Time,TemperatureF,DewpointF,PressureIn,WindDirection,WindDirectionDegrees,WindSpeedMPH,WindSpeedGustMPH,Humidity,HourlyPrecipIn,Conditions,Clouds,dailyrainin,SoftwareType,DateUTC
2013-01-14 00:00:00,65.1,63.3,30.15,ENE,68,0.0,0.0,94,0.00,,---,0.00,VWS V14.01,2013-01-14 05:00:00,
2013-01-14 00:01:00,61.5,61.0,30.12,ENE,68,0.0,0.0,98,0.00,,---,0.00,VWS V14.01,2013-01-14 05:01:00,
2013-01-14 00:02:00,61.3,60.8,30.12,ENE,68,0.0,0.0,98,0.00,,---,0.00,VWS V14.01,2013-01-14 05:02:00,
2013-01-14 00:03:00,65.1,63.3,30.15,ENE,68,0.0,0.0,94,0.00,,---,0.00,VWS V14.01,2013-01-14 05:03:00,
2013-01-14 00:04:00,64.9,63.5,30.15,ENE,68,0.0,0.0,95,0.00,,---,0.00,VWS V14.01,2013-01-14 05:04:00,
2013-01-14 00:05:00,64.9,63.5,30.15,ENE,68,0.0,0.0,95,0.00,,---,0.00,VWS V14.01,2013-01-14 05:05:00,
2013-01-14 00:06:00,64.9,63.5,30.15,ENE,68,0.0,0.0,95,0.00,,---,0.00,VWS V14.01,2013-01-14 05:06:00,
2013-01-14 00:07:00,61.3,60.8,30.15,ENE,68,0.0,0.0,98,0.00,,---,0.00,VWS V14.01,2013-01-14 05:07:00,
2013-01-14 00:08:00,64.8,63.3,30.15,ENE,68,0.0,0.0,95,0.00,,---,0.00,VWS V14.01,2013-01-14 05:08:00,
2013-01-14 00:09:00,64.8,63.3,30.15,ENE,68,0.0,0.0,95,0.00,,---,0.00,VWS V14.01,2013-01-14 05:09:00,
2013-01-14 00:10:00,64.6,63.1,30.15,ENE,68,0.0,0.0,95,0.00,,---,0.00,VWS V14.01,2013-01-14 05:10:00,
2013-01-14 00:11:00,64.4,62.9,30.15,ENE,68,0.0,0.0,95,0.00,,---,0.00,VWS V14.01,2013-01-14 05:11:00,
2013-01-14 00:12:00,61.3,60.8,30.15,ENE,68,0.0,0.0,98,0.00,,---,0.00,VWS V14.01,2013-01-14 05:12:00,
2013-01-14 00:13:00,64.2,63.1,30.15,ENE,68,0.0,0.0,96,0.00,,---,0.00,VWS V14.01,2013-01-14 05:13:00,
2013-01-14 00:14:00,64.2,63.1,30.15,ENE,68,0.0,0.0,96,0.00,,---,0.00,VWS V14.01,2013-01-14 05:14:00,
2013-01-14 00:15:00,64.2,63.1,30.15,ENE,68,0.0,0.0,96,0.00,,---,0.00,VWS V14.01,2013-01-14 05:15:00,
2013-01-14 00:16:00,64.2,63.1,30.15,ENE,68,0.0,0.0,96,0.00,,---,0.00,VWS V14.01,2013-01-14 05:16:00,
2013-01-14 00:17:00,61.0,60.4,30.15,ENE,68,0.0,0.0,98,0.00,,---,0.00,VWS V14.01,2013-01-14 05:17:00,
2013-01-14 00:18:00,64.0,62.9,30.12,ENE,68,0.0,0.0,96,0.00,,---,0.00,VWS V14.01,2013-01-14 05:18:00,
2013-01-14 00:19:00,63.9,62.7,30.12,ENE,68,0.0,0.0,96,0.00,,---,0.00,VWS V14.01,2013-01-14 05:19:00,
2013-01-14 00:20:00,63.9,62.7,30.12,ENE,68,0.0,0.0,96,0.00,,---,0.00,VWS V14.01,2013-01-14 05:20:00,
2013-01-14 00:21:00,63.9,62.7,30.12,ENE,68,0.0,0.0,96,0.00,,---,0.00,VWS V14.01,2013-01-14 05:21:00,
2013-01-14 00:22:00,61.0,60.4,30.15,ENE,68,0.0,0.0,98,0.00,,---,0.00,VWS V14.01,2013-01-14 05:22:00,
2013-01-14 00:23:00,63.9,62.7,30.12,ENE,68,0.0,0.0,96,0.00,,---,0.00,VWS V14.01,2013-01-14 05:23:00,
2013-01-14 00:24:00,63.7,62.5,30.12,ENE,68,0.0,0.0,96,0.00,,---,0.00,VWS V14.01,2013-01-14 05:24:00,
2013-01-14 00:25:00,63.7,62.5,30.12,ENE,68,0.0,0.0,96,0.00,,---,0.00,VWS V14.01,2013-01-14 05:25:00,
2013-01-14 00:26:00,63.5,62.3,30.12,ENE,68,0.0,0.0,96,0.00,,---,0.00,VWS V14.01,2013-01-14 05:26:00,
2013-01-14 00:27:00,61.0,60.4,30.15,ENE,68,0.0,0.0,98,0.00,,---,0.00,VWS V14.01,2013-01-14 05:27:00,
2013-01-14 00:28:00,63.5,62.3,30.12,ENE,68,0.0,0.0,96,0.00,,---,0.00,VWS V14.01,2013-01-14 05:28:00,
2013-01-14 00:29:00,63.5,62.3,30.12,ENE,68,0.0,0.0,96,0.00,,---,0.00,VWS V14.01,2013-01-14 05:29:00,
2013-01-14 00:30:00,63.5,62.6,30.12,ENE,68,0.0,0.0,97,0.00,,---,0.00,VWS V14.01,2013-01-14 05:30:00,
2013-01-14 00:31:00,63.3,62.5,30.12,ENE,68,0.0,0.0,97,0.00,,---,0.00,VWS V14.01,2013-01-14 05:31:00,
2013-01-14 00:32:00,61.0,60.4,30.15,ENE,68,0.0,0.0,98,0.00,,---,0.00,VWS V14.01,2013-01-14 05:32:00,
2013-01-14 00:33:00,63.1,62.3,30.15,ENE,68,0.0,0.0,97,0.00,,---,0.00,VWS V14.01,2013-01-14 05:33:00,
2013-01-14 00:34:00,63.1,62.3,30.15,ENE,68,0.0,0.0,97,0.00,,---,0.00,VWS V14.01,2013-01-14 05:34:00,
2013-01-14 00:35:00,63.1,62.3,30.15,ENE,68,0.0,0.0,97,0.00,,---,0.00,VWS V14.01,2013-01-14 05:35:00,
2013-01-14 00:36:00,63.1,62.3,30.15,ENE,68,0.0,0.0,97,0.00,,---,0.00,VWS V14.01,2013-01-14 05:36:00,
2013-01-14 00:37:00,60.6,60.1,30.15,ENE,68,0.0,0.0,98,0.00,,---,0.00,VWS V14.01,2013-01-14 05:37:00,
2013-01-14 00:38:00,63.0,62.1,30.15,ENE,68,0.0,0.0,97,0.00,,---,0.00,VWS V14.01,2013-01-14 05:38:00,
2013-01-14 00:39:00,63.1,62.3,30.15,ENE,68,0.0,0.0,97,0.00,,---,0.00,VWS V14.01,2013-01-14 05:39:00,
2013-01-14 00:40:00,63.1,62.3,30.15,ENE,68,0.0,0.0,97,0.00,,---,0.00,VWS V14.01,2013-01-14 05:40:00,
2013-01-14 00:41:00,63.0,61.8,30.15,ENE,68,0.0,0.0,96,0.00,,---,0.00,VWS V14.01,2013-01-14 05:41:00,
2013-01-14 00:42:00,60.6,60.1,30.15,ENE,68,0.0,0.0,98,0.00,,---,0.00,VWS V14.01,2013-01-14 05:42:00,
2013-01-14 00:43:00,63.1,62.0,30.15,ENE,68,0.0,0.0,96,0.00,,---,0.00,VWS V14.01,2013-01-14 05:43:00,
2013-01-14 00:44:00,63.1,62.0,30.15,ENE,68,0.0,0.0,96,0.00,,---,0.00,VWS V14.01,2013-01-14 05:44:00,
2013-01-14 00:45:00,63.1,62.0,30.15,ENE,68,0.0,0.0,96,0.00,,---,0.00,VWS V14.01,2013-01-14 05:45:00,
2013-01-14 00:46:00,63.1,62.0,30.15,ENE,68,0.0,0.0,96,0.00,,---,0.00,VWS V14.01,2013-01-14 05:46:00,
2013-01-14 00:47:00,60.6,60.1,30.15,ENE,68,0.0,0.0,98,0.00,,---,0.00,VWS V14.01,2013-01-14 05:47:00,
2013-01-14 00:48:00,63.0,61.8,30.15,ENE,68,0.0,0.0,96,0.00,,---,0.00,VWS V14.01,2013-01-14 05:48:00,
2013-01-14 00:49:00,63.0,62.1,30.15,ENE,68,0.0,0.0,97,0.00,,---,0.00,VWS V14.01,2013-01-14 05:49:00,
2013-01-14 00:50:00,63.0,62.1,30.15,ENE,68,0.0,0.0,97,0.00,,---,0.00,VWS V14.01,2013-01-14 05:50:00,
2013-01-14 00:51:00,62.8,61.9,30.15,ENE,68,0.0,0.0,97,0.00,,---,0.00,VWS V14.01,2013-01-14 05:51:00,
2013-01-14 00:52:00,60.8,60.2,30.15,ENE,68,0.0,0.0,98,0.00,,---,0.00,VWS V14.01,2013-01-14 05:52:00,
2013-01-14 00:53:00,62.6,61.7,30.15,ENE,68,0.0,0.0,97,0.00,,---,0.00,VWS V14.01,2013-01-14 05:53:00,
2013-01-14 00:54:00,62.6,61.7,30.15,ENE,68,0.0,0.0,97,0.00,,---,0.00,VWS V14.01,2013-01-14 05:54:00,
2013-01-14 00:55:00,62.4,61.6,30.15,ENE,68,0.0,0.0,97,0.00,,---,0.00,VWS V14.01,2013-01-14 05:55:00,
2013-01-14 00:56:00,62.4,61.6,30.15,ENE,68,0.0,0.0,97,0.00,,---,0.00,VWS V14.01,2013-01-14 05:56:00,
2013-01-14 00:57:00,60.6,60.1,30.15,ENE,68,0.0,0.0,98,0.00,,---,0.00,VWS V14.01,2013-01-14 05:57:00,
2013-01-14 00:58:00,62.4,61.8,30.15,ENE,68,0.0,0.0,98,0.00,,---,0.00,VWS V14.01,2013-01-14 05:58:00,
2013-01-14 00:59:00,62.4,61.8,30.15,ENE,68,0.0,0.0,98,0.00,,---,0.00,VWS V14.01,2013-01-14 05:59:00,
2013-01-14 01:00:00,62.2,61.7,30.15,ENE,68,0.0,0.0,98,0.00,,---,0.00,VWS V14.01,2013-01-14 06:00:00,
2013-01-14 01:01:00,62.2,61.7,30.15,ENE,68,0.0,0.0,98,0.00,,---,0.00,VWS V14.01,2013-01-14 06:01:00,
2013-01-14 01:02:00,60.4,59.9,30.15,ENE,68,0.0,0.0,98,0.00,,---,0.00,VWS V14.01,2013-01-14 06:02:00,
2013-01-14 01:03:00,62.2,61.7,30.12,ENE,68,0.0,0.0,98,0.00,,---,0.00,VWS V14.01,2013-01-14 06:03:00,
2013-01-14 01:04:00,62.1,61.5,30.12,ENE,68,0.0,0.0,98,0.00,,---,0.00,VWS V14.01,2013-01-14 06:04:00,
2013-01-14 01:05:00,62.1,61.5,30.12,ENE,68,0.0,0.0,98,0.00,,---,0.00,VWS V14.01,2013-01-14 06:05:00,
2013-01-14 01:06:00,62.1,61.5,30.12,ENE,68,0.0,0.0,98,0.00,,---,0.00,VWS V14.01,2013-01-14 06:06:00,
2013-01-14 01:07:00,60.3,59.7,30.15,ENE,68,0.0,0.0,98,0.00,,---,0.00,VWS V14.01,2013-01-14 06:07:00,
2013-01-14 01:08:00,62.1,61.5,30.12,ENE,68,0.0,0.0,98,0.00,,---,0.00,VWS V14.01,2013-01-14 06:08:00,
2013-01-14 01:09:00,62.1,61.5,30.12,ENE,68,0.0,0.0,98,0.00,,---,0.00,VWS V14.01,2013-01-14 06:09:00,
2013-01-14 01:10:00,62.1,61.5,30.12,ENE,68,0.0,0.0,98,0.00,,---,0.00,VWS V14.01,2013-01-14 06:10:00,
2013-01-14 01:11:00,62.1,61.5,30.12,ENE,68,0.0,0.0,98,0.00,,---,0.00,VWS V14.01,2013-01-14 06:11:00,
2013-01-14 01:12:00,60.3,59.7,30.15,ENE,68,0.0,0.0,98,0.00,,---,0.00,VWS V14.01,2013-01-14 06:12:00,
2013-01-14 01:13:00,62.1,61.5,30.12,ENE,68,0.0,0.0,98,0.00,,---,0.00,VWS V14.01,2013-01-14 06:13:00,
2013-01-14 01:14:00,62.1,61.5,30.12,ENE,68,0.0,0.0,98,0.00,,---,0.00,VWS V14.01,2013-01-14 06:14:00,
2013-01-14 01:15:00,61.9,61.3,30.12,ENE,68,0.0,0.0,98,0.00,,---,0.00,VWS V14.01,2013-01-14 06:15:00,
2013-01-14 01:16:00,61.9,61.3,30.12,ENE,68,0.0,0.0,98,0.00,,---,0.00,VWS V14.01,2013-01-14 06:16:00,
2013-01-14 01:17:00,60.1,59.5,30.15,ENE,68,0.0,0.0,98,0.00,,---,0.00,VWS V14.01,2013-01-14 06:17:00,
2013-01-14 01:18:00,61.9,61.3,30.12,ENE,68,0.0,0.0,98,0.00,,---,0.00,VWS V14.01,2013-01-14 06:18:00,
2013-01-14 01:19:00,61.9,61.3,30.12,ENE,68,0.0,0.0,98,0.00,,---,0.00,VWS V14.01,2013-01-14 06:19:00,
2013-01-14 01:20:00,61.5,61.0,30.12,ENE,68,0.0,0.0,98,0.00,,---,0.00,VWS V14.01,2013-01-14 06:20:00,
2013-01-14 01:21:00,61.5,61.0,30.12,ENE,68,0.0,0.0,98,0.00,,---,0.00,VWS V14.01,2013-01-14 06:21:00,
2013-01-14 01:22:00,59.9,59.3,30.15,ENE,68,0.0,0.0,98,0.00,,---,0.00,VWS V14.01,2013-01-14 06:22:00,
2013-01-14 01:23:00,61.5,61.0,30.12,ENE,68,0.0,0.0,98,0.00,,---,0.00,VWS V14.01,2013-01-14 06:23:00,
2013-01-14 01:24:00,61.5,61.0,30.12,ENE,68,0.0,0.0,98,0.00,,---,0.00,VWS V14.01,2013-01-14 06:24:00,
2013-01-14 01:25:00,61.5,61.0,30.12,ENE,68,0.0,0.0,98,0.00,,---,0.00,VWS V14.01,2013-01-14 06:25:00,
2013-01-14 01:26:00,61.5,61.0,30.12,ENE,68,0.0,0.0,98,0.00,,---,0.00,VWS V14.01,2013-01-14 06:26:00,
2013-01-14 01:27:00,59.7,59.2,30.15,ENE,68,0.0,0.0,98,0.00,,---,0.00,VWS V14.01,2013-01-14 06:27:00,
2013-01-14 01:28:00,61.3,60.8,30.12,ENE,68,0.0,0.0,98,0.00,,---,0.00,VWS V14.01,2013-01-14 06:28:00,
2013-01-14 01:29:00,61.3,60.8,30.12,ENE,68,0.0,0.0,98,0.00,,---,0.00,VWS V14.01,2013-01-14 06:29:00,
2013-01-14 01:30:00,61.3,60.8,30.12,ENE,68,0.0,0.0,98,0.00,,---,0.00,VWS V14.01,2013-01-14 06:30:00,
2013-01-14 01:31:00,61.3,60.8,30.12,ENE,68,0.0,0.0,98,0.00,,---,0.00,VWS V14.01,2013-01-14 06:31:00,
2013-01-14 01:32:00,59.7,59.2,30.15,ENE,68,0.0,0.0,98,0.00,,---,0.00,VWS V14.01,2013-01-14 06:32:00,
2013-01-14 01:33:00,61.3,60.8,30.15,ENE,68,0.0,0.0,98,0.00,,---,0.00,VWS V14.01,2013-01-14 06:33:00,
2013-01-14 01:34:00,61.3,60.8,30.15,ENE,68,0.0,0.0,98,0.00,,---,0.00,VWS V14.01,2013-01-14 06:34:00,
2013-01-14 01:35:00,61.3,60.8,30.15,ENE,68,0.0,0.0,98,0.00,,---,0.00,VWS V14.01,2013-01-14 06:35:00,
2013-01-14 01:36:00,61.3,60.8,30.15,ENE,68,0.0,0.0,98,0.00,,---,0.00,VWS V14.01,2013-01-14 06:36:00,
2013-01-14 01:37:00,59.5,59.0,30.15,ENE,68,0.0,0.0,98,0.00,,---,0.00,VWS V14.01,2013-01-14 06:37:00,
2013-01-14 01:38:00,61.3,60.8,30.15,ENE,68,0.0,0.0,98,0.00,,---,0.00,VWS V14.01,2013-01-14 06:38:00,
2013-01-14 01:39:00,61.2,60.6,30.15,ENE,68,0.0,0.0,98,0.00,,---,0.00,VWS V14.01,2013-01-14 06:39:00,
2013-01-14 01:40:00,61.2,60.6,30.15,ENE,68,0.0,0.0,98,0.00,,---,0.00,VWS V14.01,2013-01-14 06:40:00,
2013-01-14 01:41:00,61.2,60.6,30.15,ENE,68,0.0,0.0,98,0.00,,---,0.00,VWS V14.01,2013-01-14 06:41:00,
2013-01-14 01:42:00,59.4,58.8,30.15,ENE,68,0.0,0.0,98,0.00,,---,0.00,VWS V14.01,2013-01-14 06:42:00,
2013-01-14 01:43:00,61.0,60.4,30.15,ENE,68,0.0,0.0,98,0.00,,---,0.00,VWS V14.01,2013-01-14 06:43:00,
2013-01-14 01:44:00,61.0,60.4,30.15,ENE,68,0.0,0.0,98,0.00,,---,0.00,VWS V14.01,2013-01-14 06:44:00,
2013-01-14 01:45:00,61.0,60.4,30.15,ENE,68,0.0,0.0,98,0.00,,---,0.00,VWS V14.01,2013-01-14 06:45:00,
2013-01-14 01:46:00,61.0,60.4,30.15,ENE,68,0.0,0.0,98,0.00,,---,0.00,VWS V14.01,2013-01-14 06:46:00,
2013-01-14 01:47:00,59.4,58.8,30.15,ENE,68,0.0,0.0,98,0.00,,---,0.00,VWS V14.01,2013-01-14 06:47:00,
2013-01-14 01:48:00,61.0,60.4,30.15,ENE,68,0.0,0.0,98,0.00,,---,0.00,VWS V14.01,2013-01-14 06:48:00,
2013-01-14 01:49:00,61.0,60.4,30.15,ENE,68,0.0,0.0,98,0.00,,---,0.00,VWS V14.01,2013-01-14 06:49:00,
2013-01-14 01:50:00,61.0,60.4,30.15,ENE,68,0.0,0.0,98,0.00,,---,0.00,VWS V14.01,2013-01-14 06:50:00,
2013-01-14 01:51:00,61.0,60.4,30.15,ENE,68,0.0,0.0,98,0.00,,---,0.00,VWS V14.01,2013-01-14 06:51:00,
2013-01-14 01:52:00,59.2,58.6,30.15,ENE,68,0.0,0.0,98,0.00,,---,0.00,VWS V14.01,2013-01-14 06:52:00,
2013-01-14 01:53:00,61.0,60.4,30.15,ENE,68,0.0,0.0,98,0.00,,---,0.00,VWS V14.01,2013-01-14 06:53:00,
2013-01-14 01:54:00,61.0,60.4,30.15,ENE,68,0.0,0.0,98,0.00,,---,0.00,VWS V14.01,2013-01-14 06:54:00,
2013-01-14 01:55:00,61.0,60.4,30.15,ENE,68,0.0,0.0,98,0.00,,---,0.00,VWS V14.01,2013-01-14 06:55:00,
2013-01-14 01:56:00,61.0,60.4,30.15,ENE,68,0.0,0.0,98,0.00,,---,0.00,VWS V14.01,2013-01-14 06:56:00,
2013-01-14 01:57:00,59.2,58.6,30.15,ENE,68,0.0,0.0,98,0.00,,---,0.00,VWS V14.01,2013-01-14 06:57:00,
2013-01-14 01:58:00,60.8,60.2,30.15,ENE,68,0.0,0.0,98,0.00,,---,0.00,VWS V14.01,2013-01-14 06:58:00,
2013-01-14 01:59:00,60.8,60.2,30.15,ENE,68,0.0,0.0,98,0.00,,---,0.00,VWS V14.01,2013-01-14 06:59:00,
2013-01-14 02:00:00,60.8,60.2,30.15,ENE,68,0.0,0.0,98,0.00,,---,0.00,VWS V14.01,2013-01-14 07:00:00,
2013-01-14 02:01:00,60.8,60.2,30.15,ENE,68,0.0,0.0,98,0.00,,---,0.00,VWS V14.01,2013-01-14 07:01:00,
2013-01-14 02:02:00,59.2,58.6,30.15,ENE,68,0.0,0.0,98,0.00,,---,0.00,VWS V14.01,2013-01-14 07:02:00,
2013-01-14 02:03:00,60.6,60.1,30.15,ENE,68,0.0,0.0,98,0.00,,---,0.00,VWS V14.01,2013-01-14 07:03:00,
2013-01-14 02:04:00,60.6,60.1,30.15,ENE,68,0.0,0.0,98,0.00,,---,0.00,VWS V14.01,2013-01-14 07:04:00,
2013-01-14 02:05:00,60.6,60.1,30.15,ENE,68,0.0,0.0,98,0.00,,---,0.00,VWS V14.01,2013-01-14 07:05:00,
2013-01-14 02:06:00,60.6,60.1,30.15,ENE,68,0.0,0.0,98,0.00,,---,0.00,VWS V14.01,2013-01-14 07:06:00,
2013-01-14 02:07:00,59.2,58.6,30.15,ENE,68,0.0,0.0,98,0.00,,---,0.00,VWS V14.01,2013-01-14 07:07:00,
2013-01-14 02:08:00,60.6,60.1,30.15,ENE,68,0.0,0.0,98,0.00,,---,0.00,VWS V14.01,2013-01-14 07:08:00,
2013-01-14 02:09:00,60.6,60.1,30.15,ENE,68,0.0,0.0,98,0.00,,---,0.00,VWS V14.01,2013-01-14 07:09:00,
2013-01-14 02:10:00,60.6,60.1,30.15,ENE,68,0.0,0.0,98,0.00,,---,0.00,VWS V14.01,2013-01-14 07:10:00,
2013-01-14 02:11:00,60.6,60.1,30.15,ENE,68,0.0,0.0,98,0.00,,---,0.00,VWS V14.01,2013-01-14 07:11:00,
2013-01-14 02:12:00,59.2,58.6,30.15,ENE,68,0.0,0.0,98,0.00,,---,0.00,VWS V14.01,2013-01-14 07:12:00,
2013-01-14 02:13:00,60.6,60.1,30.15,ENE,68,0.0,0.0,98,0.00,,---,0.00,VWS V14.01,2013-01-14 07:13:00,
2013-01-14 02:14:00,60.8,60.2,30.15,ENE,68,0.0,0.0,98,0.00,,---,0.00,VWS V14.01,2013-01-14 07:14:00,
2013-01-14 02:15:00,60.8,60.2,30.15,ENE,68,0.0,0.0,98,0.00,,---,0.00,VWS V14.01,2013-01-14 07:15:00,
2013-01-14 02:16:00,61.0,60.4,30.15,ENE,68,0.0,0.0,98,0.00,,---,0.00,VWS V14.01,2013-01-14 07:16:00,
2013-01-14 02:17:00,59.0,58.4,30.15,ENE,68,0.0,0.0,98,0.00,,---,0.00,VWS V14.01,2013-01-14 07:17:00,
2013-01-14 02:18:00,60.8,60.2,30.15,ENE,68,0.0,0.0,98,0.00,,---,0.00,VWS V14.01,2013-01-14 07:18:00,
2013-01-14 02:19:00,60.8,60.2,30.15,ENE,68,0.0,0.0,98,0.00,,---,0.00,VWS V14.01,2013-01-14 07:19:00,
2013-01-14 02:20:00,60.8,60.2,30.15,ENE,68,0.0,0.0,98,0.00,,---,0.00,VWS V14.01,2013-01-14 07:20:00,
2013-01-14 02:21:00,60.8,60.2,30.15,ENE,68,0.0,0.0,98,0.00,,---,0.00,VWS V14.01,2013-01-14 07:21:00,
2013-01-14 02:22:00,59.0,58.4,30.15,ENE,68,0.0,0.0,98,0.00,,---,0.00,VWS V14.01,2013-01-14 07:22:00,
2013-01-14 02:23:00,60.6,60.1,30.15,ENE,68,0.0,0.0,98,0.00,,---,0.00,VWS V14.01,2013-01-14 07:23:00,
2013-01-14 02:24:00,60.6,60.1,30.15,ENE,68,0.0,0.0,98,0.00,,---,0.00,VWS V14.01,2013-01-14 07:24:00,
2013-01-14 02:25:00,60.6,60.1,30.15,ENE,68,0.0,0.0,98,0.00,,---,0.00,VWS V14.01,2013-01-14 07:25:00,
2013-01-14 02:26:00,60.6,60.1,30.15,ENE,68,0.0,0.0,98,0.00,,---,0.00,VWS V14.01,2013-01-14 07:26:00,
2013-01-14 02:27:00,59.0,58.4,30.15,ENE,68,0.0,0.0,98,0.00,,---,0.00,VWS V14.01,2013-01-14 07:27:00,
2013-01-14 02:28:00,60.4,59.9,30.15,ENE,68,0.0,0.0,98,0.00,,---,0.00,VWS V14.01,2013-01-14 07:28:00,
2013-01-14 02:29:00,60.3,59.7,30.15,ENE,68,0.0,0.0,98,0.00,,---,0.00,VWS V14.01,2013-01-14 07:29:00,
2013-01-14 02:30:00,60.3,59.7,30.15,ENE,68,0.0,0.0,98,0.00,,---,0.00,VWS V14.01,2013-01-14 07:30:00,
2013-01-14 02:31:00,60.3,59.7,30.15,ENE,68,0.0,0.0,98,0.00,,---,0.00,VWS V14.01,2013-01-14 07:31:00,
2013-01-14 02:32:00,58.8,58.3,30.15,ENE,68,0.0,0.0,98,0.00,,---,0.00,VWS V14.01,2013-01-14 07:32:00,
2013-01-14 02:33:00,60.3,59.7,30.15,ENE,68,0.0,0.0,98,0.00,,---,0.00,VWS V14.01,2013-01-14 07:33:00,
2013-01-14 02:34:00,60.3,59.7,30.15,ENE,68,0.0,0.0,98,0.00,,---,0.00,VWS V14.01,2013-01-14 07:34:00,
2013-01-14 02:35:00,60.3,59.7,30.15,ENE,68,0.0,0.0,98,0.00,,---,0.00,VWS V14.01,2013-01-14 07:35:00,
2013-01-14 02:36:00,60.3,59.7,30.15,ENE,68,0.0,0.0,98,0.00,,---,0.00,VWS V14.01,2013-01-14 07:36:00,
2013-01-14 02:37:00,58.6,58.1,30.18,ENE,68,0.0,0.0,98,0.00,,---,0.00,VWS V14.01,2013-01-14 07:37:00,
2013-01-14 02:38:00,60.3,59.7,30.15,ENE,68,0.0,0.0,98,0.00,,---,0.00,VWS V14.01,2013-01-14 07:38:00,
2013-01-14 02:39:00,60.3,59.7,30.15,ENE,68,0.0,0.0,98,0.00,,---,0.00,VWS V14.01,2013-01-14 07:39:00,
2013-01-14 02:40:00,60.3,59.7,30.15,ENE,68,0.0,0.0,98,0.00,,---,0.00,VWS V14.01,2013-01-14 07:40:00,
2013-01-14 02:41:00,60.1,59.5,30.15,ENE,68,0.0,0.0,98,0.00,,---,0.00,VWS V14.01,2013-01-14 07:41:00,
2013-01-14 02:42:00,58.6,58.1,30.18,ENE,68,0.0,0.0,98,0.00,,---,0.00,VWS V14.01,2013-01-14 07:42:00,
2013-01-14 02:43:00,60.1,59.5,30.15,ENE,68,0.0,0.0,98,0.00,,---,0.00,VWS V14.01,2013-01-14 07:43:00,
2013-01-14 02:44:00,60.1,59.5,30.15,ENE,68,0.0,0.0,98,0.00,,---,0.00,VWS V14.01,2013-01-14 07:44:00,
2013-01-14 02:45:00,60.1,59.5,30.15,ENE,68,0.0,0.0,98,0.00,,---,0.00,VWS V14.01,2013-01-14 07:45:00,
2013-01-14 02:46:00,60.1,59.5,30.15,ENE,68,0.0,0.0,98,0.00,,---,0.00,VWS V14.01,2013-01-14 07:46:00,
2013-01-14 02:47:00,58.5,57.9,30.18,ENE,68,0.0,0.0,98,0.00,,---,0.00,VWS V14.01,2013-01-14 07:47:00,
2013-01-14 02:48:00,59.9,59.3,30.15,ENE,68,0.0,0.0,98,0.00,,---,0.00,VWS V14.01,2013-01-14 07:48:00,
2013-01-14 02:49:00,59.9,59.3,30.15,ENE,68,0.0,0.0,98,0.00,,---,0.00,VWS V14.01,2013-01-14 07:49:00,
2013-01-14 02:50:00,59.9,59.3,30.15,ENE,68,0.0,0.0,98,0.00,,---,0.00,VWS V14.01,2013-01-14 07:50:00,
2013-01-14 02:51:00,59.9,59.3,30.15,ENE,68,0.0,0.0,98,0.00,,---,0.00,VWS V14.01,2013-01-14 07:51:00,
2013-01-14 02:52:00,58.5,57.9,30.15,ENE,68,0.0,0.0,98,0.00,,---,0.00,VWS V14.01,2013-01-14 07:52:00,
2013-01-14 02:53:00,59.7,59.2,30.15,ENE,68,0.0,0.0,98,0.00,,---,0.00,VWS V14.01,2013-01-14 07:53:00,
2013-01-14 02:54:00,59.7,59.2,30.15,ENE,68,0.0,0.0,98,0.00,,---,0.00,VWS V14.01,2013-01-14 07:54:00,
2013-01-14 02:55:00,59.7,59.2,30.15,ENE,68,0.0,0.0,98,0.00,,---,0.00,VWS V14.01,2013-01-14 07:55:00,
2013-01-14 02:56:00,59.7,59.2,30.15,ENE,68,0.0,0.0,98,0.00,,---,0.00,VWS V14.01,2013-01-14 07:56:00,
2013-01-14 02:57:00,58.3,57.7,30.15,ENE,68,0.0,0.0,98,0.00,,---,0.00,VWS V14.01,2013-01-14 07:57:00,
2013-01-14 02:58:00,59.7,59.2,30.15,ENE,68,0.0,0.0,98,0.00,,---,0.00,VWS V14.01,2013-01-14 07:58:00,
2013-01-14 02:59:00,59.5,59.0,30.15,ENE,68,0.0,0.0,98,0.00,,---,0.00,VWS V14.01,2013-01-14 07:59:00,
2013-01-14 03:00:00,59.5,59.0,30.15,ENE,68,0.0,0.0,98,0.00,,---,0.00,VWS V14.01,2013-01-14 08:00:00,
2013-01-14 03:01:00,59.5,59.0,30.15,ENE,68,0.0,0.0,98,0.00,,---,0.00,VWS V14.01,2013-01-14 08:01:00,
2013-01-14 03:02:00,58.3,57.7,30.15,ENE,68,0.0,0.0,98,0.00,,---,0.00,VWS V14.01,2013-01-14 08:02:00,
2013-01-14 03:03:00,59.5,59.0,30.15,ENE,68,0.0,0.0,98,0.00,,---,0.00,VWS V14.01,2013-01-14 08:03:00,
2013-01-14 03:04:00,59.4,58.8,30.15,ENE,68,0.0,0.0,98,0.00,,---,0.00,VWS V14.01,2013-01-14 08:04:00,
2013-01-14 03:05:00,59.4,58.8,30.15,ENE,68,0.0,0.0,98,0.00,,---,0.00,VWS V14.01,2013-01-14 08:05:00,
2013-01-14 03:06:00,59.4,58.8,30.15,ENE,68,0.0,0.0,98,0.00,,---,0.00,VWS V14.01,2013-01-14 08:06:00,
2013-01-14 03:07:00,58.3,57.7,30.15,ENE,68,0.0,0.0,98,0.00,,---,0.00,VWS V14.01,2013-01-14 08:07:00,
2013-01-14 03:08:00,59.4,58.8,30.15,ENE,68,0.0,0.0,98,0.00,,---,0.00,VWS V14.01,2013-01-14 08:08:00,
2013-01-14 03:09:00,59.4,58.8,30.15,ENE,68,0.0,0.0,98,0.00,,---,0.00,VWS V14.01,2013-01-14 08:09:00,
2013-01-14 03:10:00,59.4,58.8,30.15,ENE,68,0.0,0.0,98,0.00,,---,0.00,VWS V14.01,2013-01-14 08:10:00,
2013-01-14 03:11:00,59.4,58.8,30.15,ENE,68,0.0,0.0,98,0.00,,---,0.00,VWS V14.01,2013-01-14 08:11:00,
2013-01-14 03:12:00,58.3,57.7,30.15,ENE,68,0.0,0.0,98,0.00,,---,0.00,VWS V14.01,2013-01-14 08:12:00,
2013-01-14 03:13:00,59.4,58.8,30.15,ENE,68,0.0,0.0,98,0.00,,---,0.00,VWS V14.01,2013-01-14 08:13:00,
2013-01-14 03:14:00,59.4,58.8,30.15,ENE,68,0.0,0.0,98,0.00,,---,0.00,VWS V14.01,2013-01-14 08:14:00,
2013-01-14 03:15:00,59.2,58.6,30.15,ENE,68,0.0,0.0,98,0.00,,---,0.00,VWS V14.01,2013-01-14 08:15:00,
2013-01-14 03:16:00,59.2,58.6,30.15,ENE,68,0.0,0.0,98,0.00,,---,0.00,VWS V14.01,2013-01-14 08:16:00,
2013-01-14 03:17:00,58.3,57.7,30.15,ENE,68,0.0,0.0,98,0.00,,---,0.00,VWS V14.01,2013-01-14 08:17:00,
2013-01-14 03:18:00,59.2,58.6,30.15,ENE,68,0.0,0.0,98,0.00,,---,0.00,VWS V14.01,2013-01-14 08:18:00,
2013-01-14 03:19:00,59.2,58.6,30.15,ENE,68,0.0,0.0,98,0.00,,---,0.00,VWS V14.01,2013-01-14 08:19:00,
2013-01-14 03:20:00,59.2,58.6,30.15,ENE,68,0.0,0.0,98,0.00,,---,0.00,VWS V14.01,2013-01-14 08:20:00,
2013-01-14 03:21:00,59.2,58.6,30.15,ENE,68,0.0,0.0,98,0.00,,---,0.00,VWS V14.01,2013-01-14 08:21:00,
2013-01-14 03:22:00,58.1,57.5,30.15,ENE,68,0.0,0.0,98,0.00,,---,0.00,VWS V14.01,2013-01-14 08:22:00,
2013-01-14 03:23:00,59.2,58.6,30.15,ENE,68,0.0,0.0,98,0.00,,---,0.00,VWS V14.01,2013-01-14 08:23:00,
2013-01-14 03:24:00,59.2,58.6,30.15,ENE,68,0.0,0.0,98,0.00,,---,0.00,VWS V14.01,2013-01-14 08:24:00,
2013-01-14 03:25:00,59.2,58.6,30.15,ENE,68,0.0,0.0,98,0.00,,---,0.00,VWS V14.01,2013-01-14 08:25:00,
2013-01-14 03:26:00,59.2,58.6,30.15,ENE,68,0.0,0.0,98,0.00,,---,0.00,VWS V14.01,2013-01-14 08:26:00,
2013-01-14 03:27:00,57.9,57.4,30.15,ENE,68,0.0,0.0,98,0.00,,---,0.00,VWS V14.01,2013-01-14 08:27:00,
2013-01-14 03:28:00,59.2,58.6,30.15,ENE,68,0.0,0.0,98,0.00,,---,0.00,VWS V14.01,2013-01-14 08:28:00,
2013-01-14 03:29:00,59.0,58.4,30.15,ENE,68,0.0,0.0,98,0.00,,---,0.00,VWS V14.01,2013-01-14 08:29:00,
2013-01-14 03:30:00,59.0,58.4,30.15,ENE,68,0.0,0.0,98,0.00,,---,0.00,VWS V14.01,2013-01-14 08:30:00,
2013-01-14 03:31:00,59.0,58.4,30.15,ENE,68,0.0,0.0,98,0.00,,---,0.00,VWS V14.01,2013-01-14 08:31:00,
2013-01-14 03:32:00,57.7,57.2,30.15,ENE,68,0.0,0.0,98,0.00,,---,0.00,VWS V14.01,2013-01-14 08:32:00,
2013-01-14 03:33:00,59.2,58.6,30.15,ENE,68,0.0,0.0,98,0.00,,---,0.00,VWS V14.01,2013-01-14 08:33:00,
2013-01-14 03:34:00,59.2,58.6,30.15,ENE,68,0.0,0.0,98,0.00,,---,0.00,VWS V14.01,2013-01-14 08:34:00,
2013-01-14 03:35:00,59.2,58.6,30.15,ENE,68,0.0,0.0,98,0.00,,---,0.00,VWS V14.01,2013-01-14 08:35:00,
2013-01-14 03:36:00,59.2,58.6,30.15,ENE,68,0.0,0.0,98,0.00,,---,0.00,VWS V14.01,2013-01-14 08:36:00,
2013-01-14 03:37:00,57.9,57.4,30.15,ENE,68,0.0,0.0,98,0.00,,---,0.00,VWS V14.01,2013-01-14 08:37:00,
2013-01-14 03:38:00,59.2,58.6,30.15,ENE,68,0.0,0.0,98,0.00,,---,0.00,VWS V14.01,2013-01-14 08:38:00,
2013-01-14 03:39:00,59.2,58.6,30.15,ENE,68,0.0,0.0,98,0.00,,---,0.00,VWS V14.01,2013-01-14 08:39:00,
2013-01-14 03:40:00,59.2,58.6,30.15,ENE,68,0.0,0.0,98,0.00,,---,0.00,VWS V14.01,2013-01-14 08:40:00,
2013-01-14 03:41:00,59.0,58.4,30.15,ENE,68,0.0,0.0,98,0.00,,---,0.00,VWS V14.01,2013-01-14 08:41:00,
2013-01-14 03:42:00,57.7,57.2,30.15,SSE,158,0.0,0.0,98,0.00,,---,0.00,VWS V14.01,2013-01-14 08:42:00,
2013-01-14 03:43:00,59.0,58.4,30.15,ENE,68,0.0,0.0,98,0.00,,---,0.00,VWS V14.01,2013-01-14 08:43:00,
2013-01-14 03:44:00,59.0,58.4,30.15,ENE,68,0.0,0.0,98,0.00,,---,0.00,VWS V14.01,2013-01-14 08:44:00,
2013-01-14 03:45:00,59.0,58.4,30.15,ENE,68,0.0,0.0,98,0.00,,---,0.00,VWS V14.01,2013-01-14 08:45:00,
2013-01-14 03:46:00,59.0,58.4,30.15,ENE,68,0.0,0.0,98,0.00,,---,0.00,VWS V14.01,2013-01-14 08:46:00,
2013-01-14 03:47:00,57.7,57.2,30.15,SSE,158,0.0,0.0,98,0.00,,---,0.00,VWS V14.01,2013-01-14 08:47:00,
2013-01-14 03:48:00,59.0,58.4,30.15,ENE,68,0.0,0.0,98,0.00,,---,0.00,VWS V14.01,2013-01-14 08:48:00,
2013-01-14 03:49:00,59.0,58.4,30.15,ENE,68,0.0,0.0,98,0.00,,---,0.00,VWS V14.01,2013-01-14 08:49:00,
2013-01-14 03:50:00,59.0,58.4,30.15,ENE,68,0.0,0.0,98,0.00,,---,0.00,VWS V14.01,2013-01-14 08:50:00,
2013-01-14 03:51:00,59.0,58.4,30.15,ENE,68,0.0,0.0,98,0.00,,---,0.00,VWS V14.01,2013-01-14 08:51:00,
2013-01-14 03:52:00,57.7,57.2,30.15,SSE,158,0.0,0.0,98,0.00,,---,0.00,VWS V14.01,2013-01-14 08:52:00,
2013-01-14 03:53:00,59.0,58.4,30.15,ENE,68,0.0,0.0,98,0.00,,---,0.00,VWS V14.01,2013-01-14 08:53:00,
2013-01-14 03:54:00,59.0,58.4,30.15,ENE,68,0.0,0.0,98,0.00,,---,0.00,VWS V14.01,2013-01-14 08:54:00,
2013-01-14 03:55:00,58.8,58.3,30.15,ENE,68,0.0,0.0,98,0.00,,---,0.00,VWS V14.01,2013-01-14 08:55:00,
2013-01-14 03:56:00,58.8,58.3,30.15,ENE,68,0.0,0.0,98,0.00,,---,0.00,VWS V14.01,2013-01-14 08:56:00,
2013-01-14 03:57:00,57.6,57.0,30.15,SSE,158,0.0,0.0,98,0.00,,---,0.00,VWS V14.01,2013-01-14 08:57:00,
2013-01-14 03:58:00,58.8,58.3,30.15,ENE,68,0.0,0.0,98,0.00,,---,0.00,VWS V14.01,2013-01-14 08:58:00,
2013-01-14 03:59:00,58.6,58.1,30.15,ENE,68,0.0,0.0,98,0.00,,---,0.00,VWS V14.01,2013-01-14 08:59:00,
2013-01-14 04:00:00,58.6,58.1,30.15,ENE,68,0.0,0.0,98,0.00,,---,0.00,VWS V14.01,2013-01-14 09:00:00,
2013-01-14 04:01:00,58.6,58.1,30.15,ENE,68,0.0,0.0,98,0.00,,---,0.00,VWS V14.01,2013-01-14 09:01:00,
2013-01-14 04:02:00,57.6,57.0,30.15,SSE,158,0.0,0.0,98,0.00,,---,0.00,VWS V14.01,2013-01-14 09:02:00,
2013-01-14 04:03:00,58.6,58.1,30.18,ENE,68,0.0,0.0,98,0.00,,---,0.00,VWS V14.01,2013-01-14 09:03:00,
2013-01-14 04:04:00,58.6,58.1,30.18,ENE,68,0.0,0.0,98,0.00,,---,0.00,VWS V14.01,2013-01-14 09:04:00,
2013-01-14 04:05:00,58.6,58.1,30.18,ENE,68,0.0,0.0,98,0.00,,---,0.00,VWS V14.01,2013-01-14 09:05:00,
2013-01-14 04:06:00,58.5,57.9,30.18,ENE,68,0.0,0.0,98,0.00,,---,0.00,VWS V14.01,2013-01-14 09:06:00,
2013-01-14 04:07:00,57.6,57.0,30.15,SSE,158,0.0,0.0,98,0.00,,---,0.00,VWS V14.01,2013-01-14 09:07:00,
2013-01-14 04:08:00,58.6,58.1,30.18,ENE,68,0.0,0.0,98,0.00,,---,0.00,VWS V14.01,2013-01-14 09:08:00,
2013-01-14 04:09:00,58.8,58.3,30.18,ENE,68,0.0,0.0,98,0.00,,---,0.00,VWS V14.01,2013-01-14 09:09:00,
2013-01-14 04:10:00,58.6,58.1,30.18,ENE,68,0.0,0.0,98,0.00,,---,0.00,VWS V14.01,2013-01-14 09:10:00,
2013-01-14 04:11:00,58.6,58.1,30.18,ENE,68,0.0,0.0,98,0.00,,---,0.00,VWS V14.01,2013-01-14 09:11:00,
2013-01-14 04:12:00,57.4,56.8,30.15,SSE,158,0.0,0.0,98,0.00,,---,0.00,VWS V14.01,2013-01-14 09:12:00,
2013-01-14 04:13:00,58.5,57.9,30.18,ENE,68,0.0,0.0,98,0.00,,---,0.00,VWS V14.01,2013-01-14 09:13:00,
2013-01-14 04:14:00,58.5,57.9,30.18,ENE,68,0.0,0.0,98,0.00,,---,0.00,VWS V14.01,2013-01-14 09:14:00,
2013-01-14 04:15:00,58.5,57.9,30.18,ENE,68,0.0,0.0,98,0.00,,---,0.00,VWS V14.01,2013-01-14 09:15:00,
2013-01-14 04:16:00,58.5,57.9,30.18,ENE,68,0.0,0.0,98,0.00,,---,0.00,VWS V14.01,2013-01-14 09:16:00,
2013-01-14 04:17:00,57.4,56.8,30.15,SSE,158,0.0,0.0,98,0.00,,---,0.00,VWS V14.01,2013-01-14 09:17:00,
2013-01-14 04:18:00,58.5,57.9,30.15,ENE,68,0.0,0.0,98,0.00,,---,0.00,VWS V14.01,2013-01-14 09:18:00,
2013-01-14 04:19:00,58.5,57.9,30.15,ENE,68,0.0,0.0,98,0.00,,---,0.00,VWS V14.01,2013-01-14 09:19:00,
2013-01-14 04:20:00,58.5,57.9,30.15,ENE,68,0.0,0.0,98,0.00,,---,0.00,VWS V14.01,2013-01-14 09:20:00,
2013-01-14 04:21:00,58.5,57.9,30.15,ENE,68,0.0,0.0,98,0.00,,---,0.00,VWS V14.01,2013-01-14 09:21:00,
2013-01-14 04:22:00,57.4,56.8,30.15,SSE,158,0.0,0.0,98,0.00,,---,0.00,VWS V14.01,2013-01-14 09:22:00,
2013-01-14 04:23:00,58.3,57.7,30.15,ENE,68,0.0,0.0,98,0.00,,---,0.00,VWS V14.01,2013-01-14 09:23:00,
2013-01-14 04:24:00,58.3,57.7,30.15,ENE,68,0.0,0.0,98,0.00,,---,0.00,VWS V14.01,2013-01-14 09:24:00,
2013-01-14 04:25:00,58.3,57.7,30.15,ENE,68,0.0,0.0,98,0.00,,---,0.00,VWS V14.01,2013-01-14 09:25:00,
2013-01-14 04:26:00,58.3,57.7,30.15,ENE,68,0.0,0.0,98,0.00,,---,0.00,VWS V14.01,2013-01-14 09:26:00,
2013-01-14 04:27:00,57.2,56.6,30.15,SSE,158,0.0,0.0,98,0.00,,---,0.00,VWS V14.01,2013-01-14 09:27:00,
2013-01-14 04:28:00,58.3,57.7,30.15,ENE,68,0.0,0.0,98,0.00,,---,0.00,VWS V14.01,2013-01-14 09:28:00,
2013-01-14 04:29:00,58.1,57.5,30.15,ENE,68,0.0,0.0,98,0.00,,---,0.00,VWS V14.01,2013-01-14 09:29:00,
2013-01-14 04:30:00,58.1,57.5,30.15,ENE,68,0.0,0.0,98,0.00,,---,0.00,VWS V14.01,2013-01-14 09:30:00,
2013-01-14 04:31:00,58.1,57.5,30.15,ENE,68,0.0,0.0,98,0.00,,---,0.00,VWS V14.01,2013-01-14 09:31:00,
2013-01-14 04:32:00,57.4,56.8,30.15,SSE,158,0.0,0.0,98,0.00,,---,0.00,VWS V14.01,2013-01-14 09:32:00,
2013-01-14 04:33:00,58.3,57.7,30.15,ENE,68,0.0,0.0,98,0.00,,---,0.00,VWS V14.01,2013-01-14 09:33:00,
2013-01-14 04:34:00,58.3,57.7,30.15,ENE,68,0.0,0.0,98,0.00,,---,0.00,VWS V14.01,2013-01-14 09:34:00,
2013-01-14 04:35:00,58.3,57.7,30.15,ENE,68,0.0,0.0,98,0.00,,---,0.00,VWS V14.01,2013-01-14 09:35:00,
2013-01-14 04:36:00,58.3,57.7,30.15,ENE,68,0.0,0.0,98,0.00,,---,0.00,VWS V14.01,2013-01-14 09:36:00,
2013-01-14 04:37:00,57.2,56.6,30.15,SSE,158,0.0,0.0,98,0.00,,---,0.00,VWS V14.01,2013-01-14 09:37:00,
2013-01-14 04:38:00,58.3,57.7,30.15,ENE,68,0.0,0.0,98,0.00,,---,0.00,VWS V14.01,2013-01-14 09:38:00,
2013-01-14 04:39:00,58.3,57.7,30.15,ENE,68,0.0,0.0,98,0.00,,---,0.00,VWS V14.01,2013-01-14 09:39:00,
2013-01-14 04:40:00,58.3,57.7,30.15,ENE,68,0.0,0.0,98,0.00,,---,0.00,VWS V14.01,2013-01-14 09:40:00,
2013-01-14 04:41:00,58.3,57.7,30.15,ENE,68,0.0,0.0,98,0.00,,---,0.00,VWS V14.01,2013-01-14 09:41:00,
2013-01-14 04:42:00,57.2,56.6,30.15,SSE,158,0.0,0.0,98,0.00,,---,0.00,VWS V14.01,2013-01-14 09:42:00,
2013-01-14 04:43:00,58.3,57.7,30.15,ENE,68,0.0,0.0,98,0.00,,---,0.00,VWS V14.01,2013-01-14 09:43:00,
2013-01-14 04:44:00,58.1,57.5,30.15,ENE,68,0.0,0.0,98,0.00,,---,0.00,VWS V14.01,2013-01-14 09:44:00,
2013-01-14 04:45:00,58.1,57.5,30.15,ENE,68,0.0,0.0,98,0.00,,---,0.00,VWS V14.01,2013-01-14 09:45:00,
2013-01-14 04:46:00,58.1,57.5,30.15,ENE,68,0.0,0.0,98,0.00,,---,0.00,VWS V14.01,2013-01-14 09:46:00,
2013-01-14 04:47:00,57.0,56.5,30.15,SSE,158,0.0,0.0,98,0.00,,---,0.00,VWS V14.01,2013-01-14 09:47:00,
2013-01-14 04:48:00,58.1,57.5,30.15,ENE,68,0.0,0.0,98,0.00,,---,0.00,VWS V14.01,2013-01-14 09:48:00,
2013-01-14 04:49:00,58.1,57.5,30.15,ENE,68,0.0,0.0,98,0.00,,---,0.00,VWS V14.01,2013-01-14 09:49:00,
2013-01-14 04:50:00,58.1,57.5,30.15,ENE,68,0.0,0.0,98,0.00,,---,0.00,VWS V14.01,2013-01-14 09:50:00,
2013-01-14 04:51:00,58.1,57.5,30.15,ENE,68,0.0,0.0,98,0.00,,---,0.00,VWS V14.01,2013-01-14 09:51:00,
2013-01-14 04:52:00,56.7,56.1,30.15,SSE,158,0.0,0.0,98,0.00,,---,0.00,VWS V14.01,2013-01-14 09:52:00,
2013-01-14 04:53:00,57.9,57.4,30.15,ENE,68,0.0,0.0,98,0.00,,---,0.00,VWS V14.01,2013-01-14 09:53:00,
2013-01-14 04:54:00,57.9,57.4,30.15,ENE,68,0.0,0.0,98,0.00,,---,0.00,VWS V14.01,2013-01-14 09:54:00,
2013-01-14 04:55:00,57.9,57.4,30.15,ENE,68,0.0,0.0,98,0.00,,---,0.00,VWS V14.01,2013-01-14 09:55:00,
2013-01-14 04:56:00,57.9,57.4,30.15,ENE,68,0.0,0.0,98,0.00,,---,0.00,VWS V14.01,2013-01-14 09:56:00,
2013-01-14 04:57:00,56.7,56.1,30.15,SSE,158,0.0,0.0,98,0.00,,---,0.00,VWS V14.01,2013-01-14 09:57:00,
2013-01-14 04:58:00,57.7,57.2,30.15,ENE,68,0.0,0.0,98,0.00,,---,0.00,VWS V14.01,2013-01-14 09:58:00,
2013-01-14 04:59:00,57.7,57.2,30.15,ENE,68,0.0,0.0,98,0.00,,---,0.00,VWS V14.01,2013-01-14 09:59:00,
2013-01-14 05:00:00,57.9,57.4,30.15,ENE,68,0.0,0.0,98,0.00,,---,0.00,VWS V14.01,2013-01-14 10:00:00,
2013-01-14 05:01:00,57.9,57.4,30.15,ENE,68,0.0,0.0,98,0.00,,---,0.00,VWS V14.01,2013-01-14 10:01:00,
2013-01-14 05:02:00,56.7,56.1,30.15,SSE,158,0.0,0.0,98,0.00,,---,0.00,VWS V14.01,2013-01-14 10:02:00,
2013-01-14 05:03:00,57.9,57.4,30.15,ENE,68,0.0,0.0,98,0.00,,---,0.00,VWS V14.01,2013-01-14 10:03:00,
2013-01-14 05:04:00,57.9,57.4,30.15,ENE,68,0.0,0.0,98,0.00,,---,0.00,VWS V14.01,2013-01-14 10:04:00,
2013-01-14 05:05:00,57.9,57.4,30.15,ENE,68,0.0,0.0,98,0.00,,---,0.00,VWS V14.01,2013-01-14 10:05:00,
2013-01-14 05:06:00,57.9,57.4,30.15,ENE,68,0.0,0.0,98,0.00,,---,0.00,VWS V14.01,2013-01-14 10:06:00,
2013-01-14 05:07:00,56.7,56.1,30.15,SSE,158,0.0,0.0,98,0.00,,---,0.00,VWS V14.01,2013-01-14 10:07:00,
2013-01-14 05:08:00,57.7,57.2,30.15,SSE,158,0.0,0.0,98,0.00,,---,0.00,VWS V14.01,2013-01-14 10:08:00,
2013-01-14 05:09:00,57.7,57.2,30.15,SSE,158,0.0,0.0,98,0.00,,---,0.00,VWS V14.01,2013-01-14 10:09:00,
2013-01-14 05:10:00,57.7,57.2,30.15,SSE,158,0.0,0.0,98,0.00,,---,0.00,VWS V14.01,2013-01-14 10:10:00,
2013-01-14 05:11:00,57.7,57.2,30.15,SSE,158,0.0,0.0,98,0.00,,---,0.00,VWS V14.01,2013-01-14 10:11:00,
2013-01-14 05:12:00,56.8,56.3,30.15,SSE,158,0.0,0.0,98,0.00,,---,0.00,VWS V14.01,2013-01-14 10:12:00,
2013-01-14 05:13:00,57.7,57.2,30.15,SSE,158,0.0,0.0,98,0.00,,---,0.00,VWS V14.01,2013-01-14 10:13:00,
2013-01-14 05:14:00,57.7,57.2,30.15,SSE,158,0.0,0.0,98,0.00,,---,0.00,VWS V14.01,2013-01-14 10:14:00,
2013-01-14 05:15:00,57.7,57.2,30.15,SSE,158,0.0,0.0,98,0.00,,---,0.00,VWS V14.01,2013-01-14 10:15:00,
2013-01-14 05:16:00,57.7,57.2,30.15,SSE,158,0.0,0.0,98,0.00,,---,0.00,VWS V14.01,2013-01-14 10:16:00,
2013-01-14 05:17:00,56.8,56.3,30.15,SSE,158,0.0,0.0,98,0.00,,---,0.00,VWS V14.01,2013-01-14 10:17:00,
2013-01-14 05:18:00,57.7,57.2,30.15,SSE,158,0.0,0.0,98,0.00,,---,0.00,VWS V14.01,2013-01-14 10:18:00,
2013-01-14 05:19:00,57.6,57.0,30.15,SSE,158,0.0,0.0,98,0.00,,---,0.00,VWS V14.01,2013-01-14 10:19:00,
2013-01-14 05:20:00,57.6,57.0,30.15,SSE,158,0.0,0.0,98,0.00,,---,0.00,VWS V14.01,2013-01-14 10:20:00,
2013-01-14 05:21:00,57.6,57.0,30.15,SSE,158,0.0,0.0,98,0.00,,---,0.00,VWS V14.01,2013-01-14 10:21:00,
2013-01-14 05:22:00,56.8,56.3,30.15,SSE,158,0.0,0.0,98,0.00,,---,0.00,VWS V14.01,2013-01-14 10:22:00,
2013-01-14 05:23:00,57.6,57.0,30.15,SSE,158,0.0,0.0,98,0.00,,---,0.00,VWS V14.01,2013-01-14 10:23:00,
2013-01-14 05:24:00,57.4,56.8,30.15,SSE,158,0.0,0.0,98,0.00,,---,0.00,VWS V14.01,2013-01-14 10:24:00,
2013-01-14 05:25:00,57.4,56.8,30.15,SSE,158,0.0,0.0,98,0.00,,---,0.00,VWS V14.01,2013-01-14 10:25:00,
2013-01-14 05:26:00,57.6,57.0,30.15,SSE,158,0.0,0.0,98,0.00,,---,0.00,VWS V14.01,2013-01-14 10:26:00,
2013-01-14 05:27:00,56.7,56.1,30.15,SSE,158,0.0,0.0,98,0.00,,---,0.00,VWS V14.01,2013-01-14 10:27:00,
2013-01-14 05:28:00,57.6,57.0,30.15,SSE,158,0.0,0.0,98,0.00,,---,0.00,VWS V14.01,2013-01-14 10:28:00,
2013-01-14 05:29:00,57.6,57.0,30.15,SSE,158,0.0,0.0,98,0.00,,---,0.00,VWS V14.01,2013-01-14 10:29:00,
2013-01-14 05:30:00,57.6,57.0,30.15,SSE,158,0.0,0.0,98,0.00,,---,0.00,VWS V14.01,2013-01-14 10:30:00,
2013-01-14 05:31:00,57.6,57.0,30.15,SSE,158,0.0,0.0,98,0.00,,---,0.00,VWS V14.01,2013-01-14 10:31:00,
2013-01-14 05:32:00,56.5,55.9,30.15,SSE,158,0.0,0.0,98,0.00,,---,0.00,VWS V14.01,2013-01-14 10:32:00,
2013-01-14 05:33:00,57.6,57.0,30.15,SSE,158,0.0,0.0,98,0.00,,---,0.00,VWS V14.01,2013-01-14 10:33:00,
2013-01-14 05:34:00,57.4,56.8,30.15,SSE,158,0.0,0.0,98,0.00,,---,0.00,VWS V14.01,2013-01-14 10:34:00,
2013-01-14 05:35:00,57.4,56.8,30.15,SSE,158,0.0,0.0,98,0.00,,---,0.00,VWS V14.01,2013-01-14 10:35:00,
2013-01-14 05:36:00,57.4,56.8,30.15,SSE,158,0.0,0.0,98,0.00,,---,0.00,VWS V14.01,2013-01-14 10:36:00,
2013-01-14 05:37:00,56.5,55.9,30.15,SSE,158,0.0,0.0,98,0.00,,---,0.00,VWS V14.01,2013-01-14 10:37:00,
2013-01-14 05:38:00,57.4,56.8,30.15,SSE,158,0.0,0.0,98,0.00,,---,0.00,VWS V14.01,2013-01-14 10:38:00,
2013-01-14 05:39:00,57.4,56.8,30.15,SSE,158,0.0,0.0,98,0.00,,---,0.00,VWS V14.01,2013-01-14 10:39:00,
2013-01-14 05:40:00,57.4,56.8,30.15,SSE,158,0.0,0.0,98,0.00,,---,0.00,VWS V14.01,2013-01-14 10:40:00,
2013-01-14 05:41:00,57.4,56.8,30.15,SSE,158,0.0,0.0,98,0.00,,---,0.00,VWS V14.01,2013-01-14 10:41:00,
2013-01-14 05:42:00,56.5,55.9,30.15,SSE,158,0.0,0.0,98,0.00,,---,0.00,VWS V14.01,2013-01-14 10:42:00,
2013-01-14 05:43:00,57.4,56.8,30.15,SSE,158,0.0,0.0,98,0.00,,---,0.00,VWS V14.01,2013-01-14 10:43:00,
2013-01-14 05:44:00,57.4,56.8,30.15,SSE,158,0.0,0.0,98,0.00,,---,0.00,VWS V14.01,2013-01-14 10:44:00,
2013-01-14 05:45:00,57.4,56.8,30.15,SSE,158,0.0,0.0,98,0.00,,---,0.00,VWS V14.01,2013-01-14 10:45:00,
2013-01-14 05:46:00,57.4,56.8,30.15,SSE,158,0.0,0.0,98,0.00,,---,0.00,VWS V14.01,2013-01-14 10:46:00,
2013-01-14 05:47:00,56.5,55.9,30.15,SSE,158,0.0,0.0,98,0.00,,---,0.00,VWS V14.01,2013-01-14 10:47:00,
2013-01-14 05:48:00,57.4,56.8,30.15,SSE,158,0.0,0.0,98,0.00,,---,0.00,VWS V14.01,2013-01-14 10:48:00,
2013-01-14 05:49:00,57.4,56.8,30.15,SSE,158,0.0,0.0,98,0.00,,---,0.00,VWS V14.01,2013-01-14 10:49:00,
2013-01-14 05:50:00,57.2,56.6,30.15,SSE,158,0.0,0.0,98,0.00,,---,0.00,VWS V14.01,2013-01-14 10:50:00,
2013-01-14 05:51:00,57.2,56.6,30.15,SSE,158,0.0,0.0,98,0.00,,---,0.00,VWS V14.01,2013-01-14 10:51:00,
2013-01-14 05:52:00,56.5,55.9,30.15,SSE,158,0.0,0.0,98,0.00,,---,0.00,VWS V14.01,2013-01-14 10:52:00,
2013-01-14 05:53:00,57.2,56.6,30.15,SSE,158,0.0,0.0,98,0.00,,---,0.00,VWS V14.01,2013-01-14 10:53:00,
2013-01-14 05:54:00,57.2,56.6,30.15,SSE,158,0.0,0.0,98,0.00,,---,0.00,VWS V14.01,2013-01-14 10:54:00,
2013-01-14 05:55:00,57.2,56.6,30.15,SSE,158,0.0,0.0,98,0.00,,---,0.00,VWS V14.01,2013-01-14 10:55:00,
2013-01-14 05:56:00,57.4,56.8,30.15,SSE,158,0.0,0.0,98,0.00,,---,0.00,VWS V14.01,2013-01-14 10:56:00,
2013-01-14 05:57:00,56.3,55.8,30.15,SSE,158,0.0,0.0,98,0.00,,---,0.00,VWS V14.01,2013-01-14 10:57:00,
2013-01-14 05:58:00,57.4,56.8,30.15,SSE,158,0.0,0.0,98,0.00,,---,0.00,VWS V14.01,2013-01-14 10:58:00,
2013-01-14 05:59:00,57.4,56.8,30.15,SSE,158,0.0,0.0,98,0.00,,---,0.00,VWS V14.01,2013-01-14 10:59:00,
2013-01-14 06:00:00,57.4,56.8,30.15,SSE,158,0.0,0.0,98,0.00,,---,0.00,VWS V14.01,2013-01-14 11:00:00,
2013-01-14 06:01:00,57.2,56.6,30.15,SSE,158,0.0,0.0,98,0.00,,---,0.00,VWS V14.01,2013-01-14 11:01:00,
2013-01-14 06:02:00,56.1,55.6,30.15,SSE,158,0.0,0.0,98,0.00,,---,0.00,VWS V14.01,2013-01-14 11:02:00,
2013-01-14 06:03:00,57.2,56.6,30.15,SSE,158,0.0,0.0,98,0.00,,---,0.00,VWS V14.01,2013-01-14 11:03:00,
2013-01-14 06:04:00,57.2,56.6,30.15,SSE,158,0.0,0.0,98,0.00,,---,0.00,VWS V14.01,2013-01-14 11:04:00,
2013-01-14 06:05:00,57.2,56.6,30.15,SSE,158,0.0,0.0,98,0.00,,---,0.00,VWS V14.01,2013-01-14 11:05:00,
2013-01-14 06:06:00,57.2,56.6,30.15,SSE,158,0.0,0.0,98,0.00,,---,0.00,VWS V14.01,2013-01-14 11:06:00,
2013-01-14 06:07:00,56.1,55.6,30.15,SSE,158,0.0,0.0,98,0.00,,---,0.00,VWS V14.01,2013-01-14 11:07:00,
2013-01-14 06:08:00,57.2,56.6,30.15,SSE,158,0.0,0.0,98,0.00,,---,0.00,VWS V14.01,2013-01-14 11:08:00,
2013-01-14 06:09:00,57.2,56.6,30.15,SSE,158,0.0,0.0,98,0.00,,---,0.00,VWS V14.01,2013-01-14 11:09:00,
2013-01-14 06:10:00,57.2,56.6,30.15,SSE,158,0.0,0.0,98,0.00,,---,0.00,VWS V14.01,2013-01-14 11:10:00,
2013-01-14 06:11:00,57.2,56.6,30.15,SSE,158,0.0,0.0,98,0.00,,---,0.00,VWS V14.01,2013-01-14 11:11:00,
2013-01-14 06:12:00,56.1,55.6,30.15,SSE,158,0.0,0.0,98,0.00,,---,0.00,VWS V14.01,2013-01-14 11:12:00,
2013-01-14 06:13:00,57.0,56.5,30.15,SSE,158,0.0,0.0,98,0.00,,---,0.00,VWS V14.01,2013-01-14 11:13:00,
2013-01-14 06:14:00,57.0,56.5,30.15,SSE,158,0.0,0.0,98,0.00,,---,0.00,VWS V14.01,2013-01-14 11:14:00,
2013-01-14 06:15:00,56.8,56.3,30.15,SSE,158,0.0,0.0,98,0.00,,---,0.00,VWS V14.01,2013-01-14 11:15:00,
2013-01-14 06:16:00,56.8,56.3,30.15,SSE,158,0.0,0.0,98,0.00,,---,0.00,VWS V14.01,2013-01-14 11:16:00,
2013-01-14 06:17:00,56.3,55.8,30.15,SSE,158,0.0,0.0,98,0.00,,---,0.00,VWS V14.01,2013-01-14 11:17:00,
2013-01-14 06:18:00,56.7,56.1,30.15,SSE,158,0.0,0.0,98,0.00,,---,0.00,VWS V14.01,2013-01-14 11:18:00,
2013-01-14 06:19:00,56.7,56.1,30.15,SSE,158,0.0,0.0,98,0.00,,---,0.00,VWS V14.01,2013-01-14 11:19:00,
2013-01-14 06:20:00,56.7,56.1,30.15,SSE,158,0.0,0.0,98,0.00,,---,0.00,VWS V14.01,2013-01-14 11:20:00,
2013-01-14 06:21:00,56.7,56.1,30.15,SSE,158,0.0,0.0,98,0.00,,---,0.00,VWS V14.01,2013-01-14 11:21:00,
2013-01-14 06:22:00,56.3,55.8,30.15,SSE,158,0.0,0.0,98,0.00,,---,0.00,VWS V14.01,2013-01-14 11:22:00,
2013-01-14 06:23:00,56.7,56.1,30.15,SSE,158,0.0,0.0,98,0.00,,---,0.00,VWS V14.01,2013-01-14 11:23:00,
2013-01-14 06:24:00,56.7,56.1,30.15,SSE,158,0.0,0.0,98,0.00,,---,0.00,VWS V14.01,2013-01-14 11:24:00,
2013-01-14 06:25:00,56.7,56.1,30.15,SSE,158,0.0,0.0,98,0.00,,---,0.00,VWS V14.01,2013-01-14 11:25:00,
2013-01-14 06:26:00,56.7,56.1,30.15,SSE,158,0.0,0.0,98,0.00,,---,0.00,VWS V14.01,2013-01-14 11:26:00,
2013-01-14 06:27:00,56.3,55.8,30.15,SSE,158,0.0,0.0,98,0.00,,---,0.00,VWS V14.01,2013-01-14 11:27:00,
2013-01-14 06:28:00,56.7,56.1,30.15,SSE,158,0.0,0.0,98,0.00,,---,0.00,VWS V14.01,2013-01-14 11:28:00,
2013-01-14 06:29:00,56.7,56.1,30.15,SSE,158,0.0,0.0,98,0.00,,---,0.00,VWS V14.01,2013-01-14 11:29:00,
2013-01-14 06:30:00,56.7,56.1,30.15,SSE,158,0.0,0.0,98,0.00,,---,0.00,VWS V14.01,2013-01-14 11:30:00,
2013-01-14 06:31:00,56.7,56.1,30.15,SSE,158,0.0,0.0,98,0.00,,---,0.00,VWS V14.01,2013-01-14 11:31:00,
2013-01-14 06:32:00,56.3,55.8,30.15,SSE,158,0.0,0.0,98,0.00,,---,0.00,VWS V14.01,2013-01-14 11:32:00,
2013-01-14 06:33:00,56.7,56.1,30.15,SSE,158,0.0,0.0,98,0.00,,---,0.00,VWS V14.01,2013-01-14 11:33:00,
2013-01-14 06:34:00,56.7,56.1,30.15,SSE,158,0.0,0.0,98,0.00,,---,0.00,VWS V14.01,2013-01-14 11:34:00,
2013-01-14 06:35:00,56.7,56.1,30.15,SSE,158,0.0,0.0,98,0.00,,---,0.00,VWS V14.01,2013-01-14 11:35:00,
2013-01-14 06:36:00,56.7,56.1,30.15,SSE,158,0.0,0.0,98,0.00,,---,0.00,VWS V14.01,2013-01-14 11:36:00,
2013-01-14 06:37:00,56.3,55.8,30.15,SSE,158,0.0,0.0,98,0.00,,---,0.00,VWS V14.01,2013-01-14 11:37:00,
2013-01-14 06:38:00,56.8,56.3,30.15,SSE,158,0.0,0.0,98,0.00,,---,0.00,VWS V14.01,2013-01-14 11:38:00,
2013-01-14 06:39:00,56.8,56.3,30.15,SSE,158,0.0,0.0,98,0.00,,---,0.00,VWS V14.01,2013-01-14 11:39:00,
2013-01-14 06:40:00,56.8,56.3,30.15,SSE,158,0.0,0.0,98,0.00,,---,0.00,VWS V14.01,2013-01-14 11:40:00,
2013-01-14 06:41:00,56.8,56.3,30.15,SSE,158,0.0,0.0,98,0.00,,---,0.00,VWS V14.01,2013-01-14 11:41:00,
2013-01-14 06:42:00,55.9,55.4,30.15,SSE,158,0.0,0.0,98,0.00,,---,0.00,VWS V14.01,2013-01-14 11:42:00,
2013-01-14 06:43:00,56.8,56.3,30.15,SSE,158,0.0,0.0,98,0.00,,---,0.00,VWS V14.01,2013-01-14 11:43:00,
2013-01-14 06:44:00,56.8,56.3,30.15,SSE,158,0.0,0.0,98,0.00,,---,0.00,VWS V14.01,2013-01-14 11:44:00,
2013-01-14 06:45:00,56.8,56.3,30.15,SSE,158,0.0,0.0,98,0.00,,---,0.00,VWS V14.01,2013-01-14 11:45:00,
2013-01-14 06:46:00,56.8,56.3,30.15,SSE,158,0.0,0.0,98,0.00,,---,0.00,VWS V14.01,2013-01-14 11:46:00,
2013-01-14 06:47:00,55.9,55.4,30.15,SSE,158,0.0,0.0,98,0.00,,---,0.00,VWS V14.01,2013-01-14 11:47:00,
2013-01-14 06:48:00,56.8,56.3,30.15,SSE,158,0.0,0.0,98,0.00,,---,0.00,VWS V14.01,2013-01-14 11:48:00,
2013-01-14 06:49:00,56.7,56.1,30.15,SSE,158,0.0,0.0,98,0.00,,---,0.00,VWS V14.01,2013-01-14 11:49:00,
2013-01-14 06:50:00,56.7,56.1,30.15,SSE,158,0.0,0.0,98,0.00,,---,0.00,VWS V14.01,2013-01-14 11:50:00,
2013-01-14 06:51:00,56.7,56.1,30.15,SSE,158,0.0,0.0,98,0.00,,---,0.00,VWS V14.01,2013-01-14 11:51:00,
2013-01-14 06:52:00,55.9,55.4,30.15,SSE,158,0.0,0.0,98,0.00,,---,0.00,VWS V14.01,2013-01-14 11:52:00,
2013-01-14 06:53:00,56.7,56.1,30.15,SSE,158,0.0,0.0,98,0.00,,---,0.00,VWS V14.01,2013-01-14 11:53:00,
2013-01-14 06:54:00,56.7,56.1,30.15,SSE,158,0.0,0.0,98,0.00,,---,0.00,VWS V14.01,2013-01-14 11:54:00,
2013-01-14 06:55:00,56.7,56.1,30.15,SSE,158,0.0,0.0,98,0.00,,---,0.00,VWS V14.01,2013-01-14 11:55:00,
2013-01-14 06:56:00,56.5,55.9,30.15,SSE,158,0.0,0.0,98,0.00,,---,0.00,VWS V14.01,2013-01-14 11:56:00,
2013-01-14 06:57:00,55.9,55.4,30.15,SSE,158,0.0,0.0,98,0.00,,---,0.00,VWS V14.01,2013-01-14 11:57:00,
2013-01-14 06:58:00,56.5,55.9,30.15,SSE,158,0.0,0.0,98,0.00,,---,0.00,VWS V14.01,2013-01-14 11:58:00,
2013-01-14 06:59:00,56.5,55.9,30.15,SSE,158,0.0,0.0,98,0.00,,---,0.00,VWS V14.01,2013-01-14 11:59:00,
2013-01-14 07:00:00,56.5,55.9,30.15,SSE,158,0.0,0.0,98,0.00,,---,0.00,VWS V14.01,2013-01-14 12:00:00,
2013-01-14 07:01:00,56.5,55.9,30.15,SSE,158,0.0,0.0,98,0.00,,---,0.00,VWS V14.01,2013-01-14 12:01:00,
2013-01-14 07:02:00,55.9,55.4,30.15,SSE,158,0.0,0.0,98,0.00,,---,0.00,VWS V14.01,2013-01-14 12:02:00,
2013-01-14 07:03:00,56.7,56.1,30.15,SSE,158,0.0,0.0,98,0.00,,---,0.00,VWS V14.01,2013-01-14 12:03:00,
2013-01-14 07:04:00,56.7,56.1,30.15,SSE,158,0.0,0.0,98,0.00,,---,0.00,VWS V14.01,2013-01-14 12:04:00,
2013-01-14 07:05:00,56.7,56.1,30.15,SSE,158,0.0,0.0,98,0.00,,---,0.00,VWS V14.01,2013-01-14 12:05:00,
2013-01-14 07:06:00,56.7,56.1,30.15,SSE,158,0.0,0.0,98,0.00,,---,0.00,VWS V14.01,2013-01-14 12:06:00,
2013-01-14 07:07:00,55.9,55.4,30.18,SSE,158,0.0,0.0,98,0.00,,---,0.00,VWS V14.01,2013-01-14 12:07:00,
2013-01-14 07:08:00,56.5,55.9,30.15,SSE,158,0.0,0.0,98,0.00,,---,0.00,VWS V14.01,2013-01-14 12:08:00,
2013-01-14 07:09:00,56.5,55.9,30.15,SSE,158,0.0,0.0,98,0.00,,---,0.00,VWS V14.01,2013-01-14 12:09:00,
2013-01-14 07:10:00,56.5,55.9,30.15,SSE,158,0.0,0.0,98,0.00,,---,0.00,VWS V14.01,2013-01-14 12:10:00,
2013-01-14 07:11:00,56.5,55.9,30.15,SSE,158,0.0,0.0,98,0.00,,---,0.00,VWS V14.01,2013-01-14 12:11:00,
2013-01-14 07:12:00,55.9,55.4,30.18,SSE,158,0.0,0.0,98,0.00,,---,0.00,VWS V14.01,2013-01-14 12:12:00,
2013-01-14 07:13:00,56.5,55.9,30.15,SSE,158,0.0,0.0,98,0.00,,---,0.00,VWS V14.01,2013-01-14 12:13:00,
2013-01-14 07:14:00,56.5,55.9,30.15,SSE,158,0.0,0.0,98,0.00,,---,0.00,VWS V14.01,2013-01-14 12:14:00,
2013-01-14 07:15:00,56.5,55.9,30.15,SSE,158,0.0,0.0,98,0.00,,---,0.00,VWS V14.01,2013-01-14 12:15:00,
2013-01-14 07:16:00,56.5,55.9,30.15,SSE,158,0.0,0.0,98,0.00,,---,0.00,VWS V14.01,2013-01-14 12:16:00,
2013-01-14 07:17:00,55.9,55.4,30.18,SSE,158,0.0,0.0,98,0.00,,---,0.00,VWS V14.01,2013-01-14 12:17:00,
2013-01-14 07:18:00,56.5,55.9,30.15,SSE,158,0.0,0.0,98,0.00,,---,0.00,VWS V14.01,2013-01-14 12:18:00,
2013-01-14 07:19:00,56.5,55.9,30.15,SSE,158,0.0,0.0,98,0.00,,---,0.00,VWS V14.01,2013-01-14 12:19:00,
2013-01-14 07:20:00,56.5,55.9,30.15,SSE,158,0.0,0.0,98,0.00,,---,0.00,VWS V14.01,2013-01-14 12:20:00,
2013-01-14 07:21:00,56.3,55.8,30.15,SSE,158,0.0,0.0,98,0.00,,---,0.00,VWS V14.01,2013-01-14 12:21:00,
2013-01-14 07:22:00,55.9,55.4,30.18,SSE,158,0.0,0.0,98,0.00,,---,0.00,VWS V14.01,2013-01-14 12:22:00,
2013-01-14 07:23:00,56.3,55.8,30.15,SSE,158,0.0,0.0,98,0.00,,---,0.00,VWS V14.01,2013-01-14 12:23:00,
2013-01-14 07:24:00,56.3,55.8,30.15,SSE,158,0.0,0.0,98,0.00,,---,0.00,VWS V14.01,2013-01-14 12:24:00,
2013-01-14 07:25:00,56.3,55.8,30.15,SSE,158,0.0,0.0,98,0.00,,---,0.00,VWS V14.01,2013-01-14 12:25:00,
2013-01-14 07:26:00,56.1,55.6,30.15,SSE,158,0.0,0.0,98,0.00,,---,0.00,VWS V14.01,2013-01-14 12:26:00,
2013-01-14 07:27:00,55.9,55.4,30.18,SSE,158,0.0,0.0,98,0.00,,---,0.00,VWS V14.01,2013-01-14 12:27:00,
2013-01-14 07:28:00,56.1,55.6,30.15,SSE,158,0.0,0.0,98,0.00,,---,0.00,VWS V14.01,2013-01-14 12:28:00,
2013-01-14 07:29:00,56.1,55.6,30.15,SSE,158,0.0,0.0,98,0.00,,---,0.00,VWS V14.01,2013-01-14 12:29:00,
2013-01-14 07:30:00,56.1,55.6,30.15,SSE,158,0.0,0.0,98,0.00,,---,0.00,VWS V14.01,2013-01-14 12:30:00,
2013-01-14 07:31:00,56.1,55.6,30.15,SSE,158,0.0,0.0,98,0.00,,---,0.00,VWS V14.01,2013-01-14 12:31:00,
2013-01-14 07:32:00,56.3,55.8,30.18,SSE,158,0.0,0.0,98,0.00,,---,0.00,VWS V14.01,2013-01-14 12:32:00,
2013-01-14 07:33:00,56.1,55.6,30.15,SSE,158,0.0,0.0,98,0.00,,---,0.00,VWS V14.01,2013-01-14 12:33:00,
2013-01-14 07:34:00,56.1,55.6,30.15,SSE,158,0.0,0.0,98,0.00,,---,0.00,VWS V14.01,2013-01-14 12:34:00,
2013-01-14 07:35:00,56.1,55.6,30.15,SSE,158,0.0,0.0,98,0.00,,---,0.00,VWS V14.01,2013-01-14 12:35:00,
2013-01-14 07:36:00,56.1,55.6,30.15,SSE,158,0.0,0.0,98,0.00,,---,0.00,VWS V14.01,2013-01-14 12:36:00,
2013-01-14 07:37:00,56.7,56.1,30.18,NE,45,0.0,0.0,98,0.00,,---,0.00,VWS V14.01,2013-01-14 12:37:00,
2013-01-14 07:38:00,56.3,55.8,30.15,SSE,158,0.0,0.0,98,0.00,,---,0.00,VWS V14.01,2013-01-14 12:38:00,
2013-01-14 07:39:00,56.3,55.8,30.15,SSE,158,0.0,0.0,98,0.00,,---,0.00,VWS V14.01,2013-01-14 12:39:00,
2013-01-14 07:40:00,56.3,55.8,30.15,SSE,158,0.0,0.0,98,0.00,,---,0.00,VWS V14.01,2013-01-14 12:40:00,
2013-01-14 07:41:00,56.3,55.8,30.15,SSE,158,0.0,0.0,98,0.00,,---,0.00,VWS V14.01,2013-01-14 12:41:00,
2013-01-14 07:42:00,57.0,56.5,30.18,NNE,22,0.0,0.0,98,0.00,,---,0.00,VWS V14.01,2013-01-14 12:42:00,
2013-01-14 07:43:00,56.3,55.8,30.15,SSE,158,0.0,0.0,98,0.00,,---,0.00,VWS V14.01,2013-01-14 12:43:00,
2013-01-14 07:44:00,56.3,55.8,30.15,SSE,158,0.0,0.0,98,0.00,,---,0.00,VWS V14.01,2013-01-14 12:44:00,
2013-01-14 07:45:00,56.3,55.8,30.15,SSE,158,0.0,0.0,98,0.00,,---,0.00,VWS V14.01,2013-01-14 12:45:00,
2013-01-14 07:46:00,56.3,55.8,30.15,SSE,158,0.0,0.0,98,0.00,,---,0.00,VWS V14.01,2013-01-14 12:46:00,
2013-01-14 07:47:00,57.7,57.2,30.18,NNE,22,0.0,0.0,98,0.00,,---,0.00,VWS V14.01,2013-01-14 12:47:00,
2013-01-14 07:48:00,56.3,55.8,30.15,SSE,158,0.0,0.0,98,0.00,,---,0.00,VWS V14.01,2013-01-14 12:48:00,
2013-01-14 07:49:00,56.3,55.8,30.15,SSE,158,0.0,0.0,98,0.00,,---,0.00,VWS V14.01,2013-01-14 12:49:00,
2013-01-14 07:50:00,56.3,55.8,30.15,SSE,158,0.0,0.0,98,0.00,,---,0.00,VWS V14.01,2013-01-14 12:50:00,
2013-01-14 07:51:00,56.3,55.8,30.15,SSE,158,0.0,0.0,98,0.00,,---,0.00,VWS V14.01,2013-01-14 12:51:00,
2013-01-14 07:52:00,58.5,57.9,30.18,NNE,22,0.0,0.0,98,0.00,,---,0.00,VWS V14.01,2013-01-14 12:52:00,
2013-01-14 07:53:00,56.3,55.8,30.15,SSE,158,0.0,0.0,98,0.00,,---,0.00,VWS V14.01,2013-01-14 12:53:00,
2013-01-14 07:54:00,56.3,55.8,30.15,SSE,158,0.0,0.0,98,0.00,,---,0.00,VWS V14.01,2013-01-14 12:54:00,
2013-01-14 07:55:00,56.3,55.8,30.15,SSE,158,0.0,0.0,98,0.00,,---,0.00,VWS V14.01,2013-01-14 12:55:00,
2013-01-14 07:56:00,56.3,55.8,30.15,SSE,158,0.0,0.0,98,0.00,,---,0.00,VWS V14.01,2013-01-14 12:56:00,
2013-01-14 07:57:00,59.7,59.2,30.18,NNE,22,0.0,0.0,98,0.00,,---,0.00,VWS V14.01,2013-01-14 12:57:00,
2013-01-14 07:58:00,56.3,55.8,30.15,SSE,158,0.0,0.0,98,0.00,,---,0.00,VWS V14.01,2013-01-14 12:58:00,
2013-01-14 07:59:00,56.3,55.8,30.15,SSE,158,0.0,0.0,98,0.00,,---,0.00,VWS V14.01,2013-01-14 12:59:00,
2013-01-14 08:00:00,56.3,55.8,30.15,SSE,158,0.0,0.0,98,0.00,,---,0.00,VWS V14.01,2013-01-14 13:00:00,
2013-01-14 08:01:00,56.3,55.8,30.15,SSE,158,0.0,0.0,98,0.00,,---,0.00,VWS V14.01,2013-01-14 13:01:00,
2013-01-14 08:02:00,60.3,59.7,30.18,NNE,22,0.0,0.0,98,0.00,,---,0.00,VWS V14.01,2013-01-14 13:02:00,
2013-01-14 08:03:00,56.3,55.8,30.15,SSE,158,0.0,0.0,98,0.00,,---,0.00,VWS V14.01,2013-01-14 13:03:00,
2013-01-14 08:04:00,56.3,55.8,30.15,SSE,158,0.0,0.0,98,0.00,,---,0.00,VWS V14.01,2013-01-14 13:04:00,
2013-01-14 08:05:00,56.3,55.8,30.15,SSE,158,0.0,0.0,98,0.00,,---,0.00,VWS V14.01,2013-01-14 13:05:00,
2013-01-14 08:06:00,56.3,55.8,30.15,SSE,158,0.0,0.0,98,0.00,,---,0.00,VWS V14.01,2013-01-14 13:06:00,
2013-01-14 08:07:00,60.6,60.1,30.18,North,0,0.0,0.0,98,0.00,,---,0.00,VWS V14.01,2013-01-14 13:07:00,
2013-01-14 08:08:00,55.9,55.4,30.15,SSE,158,0.0,0.0,98,0.00,,---,0.00,VWS V14.01,2013-01-14 13:08:00,
2013-01-14 08:09:00,55.9,55.4,30.15,SSE,158,0.0,0.0,98,0.00,,---,0.00,VWS V14.01,2013-01-14 13:09:00,
2013-01-14 08:10:00,55.9,55.4,30.15,SSE,158,0.0,0.0,98,0.00,,---,0.00,VWS V14.01,2013-01-14 13:10:00,
2013-01-14 08:11:00,55.9,55.4,30.15,SSE,158,0.0,0.0,98,0.00,,---,0.00,VWS V14.01,2013-01-14 13:11:00,
2013-01-14 08:12:00,61.2,60.6,30.18,North,0,0.0,0.0,98,0.00,,---,0.00,VWS V14.01,2013-01-14 13:12:00,
2013-01-14 08:13:00,55.9,55.4,30.15,SSE,158,0.0,0.0,98,0.00,,---,0.00,VWS V14.01,2013-01-14 13:13:00,
2013-01-14 08:14:00,55.9,55.4,30.15,SSE,158,0.0,0.0,98,0.00,,---,0.00,VWS V14.01,2013-01-14 13:14:00,
2013-01-14 08:15:00,55.9,55.4,30.15,SSE,158,0.0,0.0,98,0.00,,---,0.00,VWS V14.01,2013-01-14 13:15:00,
2013-01-14 08:16:00,55.9,55.4,30.15,SSE,158,0.0,0.0,98,0.00,,---,0.00,VWS V14.01,2013-01-14 13:16:00,
2013-01-14 08:17:00,61.3,60.8,30.18,North,0,0.0,0.0,98,0.00,,---,0.00,VWS V14.01,2013-01-14 13:17:00,
2013-01-14 08:18:00,55.9,55.4,30.15,SSE,158,0.0,0.0,98,0.00,,---,0.00,VWS V14.01,2013-01-14 13:18:00,
2013-01-14 08:19:00,55.9,55.4,30.15,SSE,158,0.0,0.0,98,0.00,,---,0.00,VWS V14.01,2013-01-14 13:19:00,
2013-01-14 08:20:00,55.9,55.4,30.15,SSE,158,0.0,0.0,98,0.00,,---,0.00,VWS V14.01,2013-01-14 13:20:00,
2013-01-14 08:21:00,55.9,55.4,30.15,SSE,158,0.0,0.0,98,0.00,,---,0.00,VWS V14.01,2013-01-14 13:21:00,
2013-01-14 08:22:00,61.9,61.3,30.18,North,0,0.0,0.0,98,0.00,,---,0.00,VWS V14.01,2013-01-14 13:22:00,
2013-01-14 08:23:00,55.9,55.4,30.15,SSE,158,0.0,0.0,98,0.00,,---,0.00,VWS V14.01,2013-01-14 13:23:00,
2013-01-14 08:24:00,56.1,55.6,30.15,SSE,158,0.0,0.0,98,0.00,,---,0.00,VWS V14.01,2013-01-14 13:24:00,
2013-01-14 08:25:00,56.1,55.6,30.15,SSE,158,0.0,0.0,98,0.00,,---,0.00,VWS V14.01,2013-01-14 13:25:00,
2013-01-14 08:26:00,55.9,55.4,30.15,SSE,158,0.0,0.0,98,0.00,,---,0.00,VWS V14.01,2013-01-14 13:26:00,
2013-01-14 08:27:00,62.4,61.8,30.18,North,0,0.0,0.0,98,0.00,,---,0.00,VWS V14.01,2013-01-14 13:27:00,
2013-01-14 08:28:00,55.9,55.4,30.15,SSE,158,0.0,0.0,98,0.00,,---,0.00,VWS V14.01,2013-01-14 13:28:00,
2013-01-14 08:29:00,55.9,55.4,30.15,SSE,158,0.0,0.0,98,0.00,,---,0.00,VWS V14.01,2013-01-14 13:29:00,
2013-01-14 08:30:00,55.9,55.4,30.15,SSE,158,0.0,0.0,98,0.00,,---,0.00,VWS V14.01,2013-01-14 13:30:00,
2013-01-14 08:31:00,55.8,55.2,30.15,SSE,158,0.0,0.0,98,0.00,,---,0.00,VWS V14.01,2013-01-14 13:31:00,
2013-01-14 08:32:00,62.8,62.2,30.18,North,0,0.0,0.0,98,0.00,,---,0.00,VWS V14.01,2013-01-14 13:32:00,
2013-01-14 08:33:00,55.9,55.4,30.18,SSE,158,0.0,0.0,98,0.00,,---,0.00,VWS V14.01,2013-01-14 13:33:00,
2013-01-14 08:34:00,55.9,55.4,30.18,SSE,158,0.0,0.0,98,0.00,,---,0.00,VWS V14.01,2013-01-14 13:34:00,
2013-01-14 08:35:00,55.9,55.4,30.18,SSE,158,0.0,0.0,98,0.00,,---,0.00,VWS V14.01,2013-01-14 13:35:00,
2013-01-14 08:36:00,55.9,55.4,30.18,SSE,158,0.0,0.0,98,0.00,,---,0.00,VWS V14.01,2013-01-14 13:36:00,
2013-01-14 08:37:00,63.7,63.1,30.18,North,0,0.0,0.0,98,0.00,,---,0.00,VWS V14.01,2013-01-14 13:37:00,
2013-01-14 08:38:00,55.9,55.4,30.18,SSE,158,0.0,0.0,98,0.00,,---,0.00,VWS V14.01,2013-01-14 13:38:00,
2013-01-14 08:39:00,55.9,55.4,30.18,SSE,158,0.0,0.0,98,0.00,,---,0.00,VWS V14.01,2013-01-14 13:39:00,
2013-01-14 08:40:00,55.9,55.4,30.18,SSE,158,0.0,0.0,98,0.00,,---,0.00,VWS V14.01,2013-01-14 13:40:00,
2013-01-14 08:41:00,55.9,55.4,30.18,SSE,158,0.0,0.0,98,0.00,,---,0.00,VWS V14.01,2013-01-14 13:41:00,
2013-01-14 08:42:00,64.6,64.0,30.18,North,0,0.0,0.0,98,0.00,,---,0.00,VWS V14.01,2013-01-14 13:42:00,
2013-01-14 08:43:00,55.9,55.4,30.18,SSE,158,0.0,0.0,98,0.00,,---,0.00,VWS V14.01,2013-01-14 13:43:00,
2013-01-14 08:44:00,55.9,55.4,30.18,SSE,158,0.0,0.0,98,0.00,,---,0.00,VWS V14.01,2013-01-14 13:44:00,
2013-01-14 08:45:00,55.9,55.4,30.18,SSE,158,0.0,0.0,98,0.00,,---,0.00,VWS V14.01,2013-01-14 13:45:00,
2013-01-14 08:46:00,55.9,55.4,30.18,SSE,158,0.0,0.0,98,0.00,,---,0.00,VWS V14.01,2013-01-14 13:46:00,
2013-01-14 08:47:00,65.5,64.9,30.18,North,0,0.0,0.0,98,0.00,,---,0.00,VWS V14.01,2013-01-14 13:47:00,
2013-01-14 08:48:00,55.9,55.4,30.18,SSE,158,0.0,0.0,98,0.00,,---,0.00,VWS V14.01,2013-01-14 13:48:00,
2013-01-14 08:49:00,55.9,55.4,30.18,SSE,158,0.0,0.0,98,0.00,,---,0.00,VWS V14.01,2013-01-14 13:49:00,
2013-01-14 08:50:00,55.9,55.4,30.18,SSE,158,0.0,0.0,98,0.00,,---,0.00,VWS V14.01,2013-01-14 13:50:00,
2013-01-14 08:51:00,55.9,55.4,30.18,SSE,158,0.0,0.0,98,0.00,,---,0.00,VWS V14.01,2013-01-14 13:51:00,
2013-01-14 08:52:00,65.7,65.1,30.18,North,0,0.0,0.0,98,0.00,,---,0.00,VWS V14.01,2013-01-14 13:52:00,
2013-01-14 08:53:00,55.9,55.4,30.18,SSE,158,0.0,0.0,98,0.00,,---,0.00,VWS V14.01,2013-01-14 13:53:00,
2013-01-14 08:54:00,56.1,55.6,30.18,SSE,158,0.0,0.0,98,0.00,,---,0.00,VWS V14.01,2013-01-14 13:54:00,
2013-01-14 08:55:00,56.1,55.6,30.18,SSE,158,0.0,0.0,98,0.00,,---,0.00,VWS V14.01,2013-01-14 13:55:00,
2013-01-14 08:56:00,56.1,55.6,30.18,SSE,158,0.0,0.0,98,0.00,,---,0.00,VWS V14.01,2013-01-14 13:56:00,
2013-01-14 08:57:00,66.9,66.3,30.18,NNW,338,0.0,0.0,98,0.00,,---,0.00,VWS V14.01,2013-01-14 13:57:00,
2013-01-14 08:58:00,56.3,55.8,30.18,SSE,158,0.0,0.0,98,0.00,,---,0.00,VWS V14.01,2013-01-14 13:58:00,
2013-01-14 08:59:00,56.3,55.8,30.18,SSE,158,0.0,0.0,98,0.00,,---,0.00,VWS V14.01,2013-01-14 13:59:00,
2013-01-14 09:00:00,56.5,55.9,30.18,NE,45,0.0,0.0,98,0.00,,---,0.00,VWS V14.01,2013-01-14 14:00:00,
2013-01-14 09:01:00,56.7,56.1,30.18,NE,45,0.0,0.0,98,0.00,,---,0.00,VWS V14.01,2013-01-14 14:01:00,
2013-01-14 09:02:00,67.5,66.9,30.18,SW,225,0.0,0.0,98,0.00,,---,0.00,VWS V14.01,2013-01-14 14:02:00,
2013-01-14 09:03:00,56.7,56.1,30.18,NE,45,0.0,0.0,98,0.00,,---,0.00,VWS V14.01,2013-01-14 14:03:00,
2013-01-14 09:04:00,56.8,56.3,30.18,NNE,22,0.0,0.0,98,0.00,,---,0.00,VWS V14.01,2013-01-14 14:04:00,
2013-01-14 09:05:00,56.8,56.3,30.18,NNE,22,0.0,0.0,98,0.00,,---,0.00,VWS V14.01,2013-01-14 14:05:00,
2013-01-14 09:06:00,56.8,56.3,30.18,NNE,22,0.0,0.0,98,0.00,,---,0.00,VWS V14.01,2013-01-14 14:06:00,
2013-01-14 09:07:00,68.2,67.6,30.18,SW,225,0.0,0.0,98,0.00,,---,0.00,VWS V14.01,2013-01-14 14:07:00,
2013-01-14 09:08:00,57.0,56.5,30.18,NNE,22,0.0,0.0,98,0.00,,---,0.00,VWS V14.01,2013-01-14 14:08:00,
2013-01-14 09:09:00,57.2,56.6,30.18,NNE,22,0.0,0.0,98,0.00,,---,0.00,VWS V14.01,2013-01-14 14:09:00,
2013-01-14 09:10:00,57.4,56.8,30.18,NNE,22,0.0,0.0,98,0.00,,---,0.00,VWS V14.01,2013-01-14 14:10:00,
2013-01-14 09:11:00,57.4,56.8,30.18,NNE,22,0.0,0.0,98,0.00,,---,0.00,VWS V14.01,2013-01-14 14:11:00,
2013-01-14 09:12:00,69.3,68.7,30.18,SSE,158,0.0,0.0,98,0.00,,---,0.00,VWS V14.01,2013-01-14 14:12:00,
2013-01-14 09:13:00,57.7,57.2,30.18,NNE,22,0.0,0.0,98,0.00,,---,0.00,VWS V14.01,2013-01-14 14:13:00,
2013-01-14 09:14:00,57.7,57.2,30.18,NNE,22,0.0,0.0,98,0.00,,---,0.00,VWS V14.01,2013-01-14 14:14:00,
2013-01-14 09:15:00,57.7,57.2,30.18,NNE,22,0.0,0.0,98,0.00,,---,0.00,VWS V14.01,2013-01-14 14:15:00,
2013-01-14 09:16:00,58.1,57.5,30.18,NNE,22,0.0,0.0,98,0.00,,---,0.00,VWS V14.01,2013-01-14 14:16:00,
2013-01-14 09:17:00,70.0,69.4,30.18,South,180,0.0,0.0,98,0.00,,---,0.00,VWS V14.01,2013-01-14 14:17:00,
2013-01-14 09:18:00,58.6,58.1,30.18,NNE,22,0.0,0.0,98,0.00,,---,0.00,VWS V14.01,2013-01-14 14:18:00,
2013-01-14 09:19:00,58.8,58.3,30.18,NNE,22,0.0,0.0,98,0.00,,---,0.00,VWS V14.01,2013-01-14 14:19:00,
2013-01-14 09:20:00,59.2,58.6,30.18,NNE,22,0.0,0.0,98,0.00,,---,0.00,VWS V14.01,2013-01-14 14:20:00,
2013-01-14 09:21:00,59.4,58.8,30.18,NNE,22,0.0,0.0,98,0.00,,---,0.00,VWS V14.01,2013-01-14 14:21:00,
2013-01-14 09:22:00,71.1,70.5,30.21,ESE,112,0.0,0.0,98,0.00,,---,0.00,VWS V14.01,2013-01-14 14:22:00,
2013-01-14 09:23:00,59.7,59.2,30.18,NNE,22,0.0,0.0,98,0.00,,---,0.00,VWS V14.01,2013-01-14 14:23:00,
2013-01-14 09:24:00,59.9,59.3,30.18,NNE,22,0.0,0.0,98,0.00,,---,0.00,VWS V14.01,2013-01-14 14:24:00,
2013-01-14 09:25:00,60.1,59.5,30.18,NNE,22,0.0,0.0,98,0.00,,---,0.00,VWS V14.01,2013-01-14 14:25:00,
2013-01-14 09:26:00,60.3,59.7,30.18,NNE,22,0.0,0.0,98,0.00,,---,0.00,VWS V14.01,2013-01-14 14:26:00,
2013-01-14 09:27:00,71.2,70.7,30.21,SSE,158,0.0,0.0,98,0.00,,---,0.00,VWS V14.01,2013-01-14 14:27:00,
2013-01-14 09:28:00,60.4,59.9,30.18,NNE,22,0.0,0.0,98,0.00,,---,0.00,VWS V14.01,2013-01-14 14:28:00,
2013-01-14 09:29:00,60.4,59.9,30.18,NNE,22,0.0,0.0,98,0.00,,---,0.00,VWS V14.01,2013-01-14 14:29:00,
2013-01-14 09:30:00,60.4,59.9,30.18,NNE,22,0.0,0.0,98,0.00,,---,0.00,VWS V14.01,2013-01-14 14:30:00,
2013-01-14 09:31:00,60.4,59.9,30.18,NNE,22,0.0,0.0,98,0.00,,---,0.00,VWS V14.01,2013-01-14 14:31:00,
2013-01-14 09:32:00,72.5,71.9,30.21,ESE,112,0.0,0.0,98,0.00,,---,0.00,VWS V14.01,2013-01-14 14:32:00,
2013-01-14 09:33:00,60.6,60.1,30.18,North,0,0.0,0.0,98,0.00,,---,0.00,VWS V14.01,2013-01-14 14:33:00,
2013-01-14 09:34:00,60.6,60.1,30.18,North,0,0.0,0.0,98,0.00,,---,0.00,VWS V14.01,2013-01-14 14:34:00,
2013-01-14 09:35:00,60.8,60.2,30.18,North,0,0.0,0.0,98,0.00,,---,0.00,VWS V14.01,2013-01-14 14:35:00,
2013-01-14 09:36:00,61.0,60.4,30.18,North,0,0.0,0.0,98,0.00,,---,0.00,VWS V14.01,2013-01-14 14:36:00,
2013-01-14 09:37:00,73.0,71.5,30.24,SE,135,0.0,0.0,95,0.00,,---,0.00,VWS V14.01,2013-01-14 14:37:00,
2013-01-14 09:38:00,61.2,60.6,30.18,North,0,0.0,0.0,98,0.00,,---,0.00,VWS V14.01,2013-01-14 14:38:00,
2013-01-14 09:39:00,61.3,60.8,30.18,North,0,0.0,0.0,98,0.00,,---,0.00,VWS V14.01,2013-01-14 14:39:00,
2013-01-14 09:40:00,61.5,61.0,30.18,North,0,0.0,0.0,98,0.00,,---,0.00,VWS V14.01,2013-01-14 14:40:00,
2013-01-14 09:41:00,61.3,60.8,30.18,North,0,0.0,0.0,98,0.00,,---,0.00,VWS V14.01,2013-01-14 14:41:00,
2013-01-14 09:42:00,73.8,71.0,30.24,SE,135,0.0,0.0,91,0.00,,---,0.00,VWS V14.01,2013-01-14 14:42:00,
2013-01-14 09:43:00,61.5,61.0,30.18,North,0,0.0,0.0,98,0.00,,---,0.00,VWS V14.01,2013-01-14 14:43:00,
2013-01-14 09:44:00,61.5,61.0,30.18,North,0,0.0,0.0,98,0.00,,---,0.00,VWS V14.01,2013-01-14 14:44:00,
2013-01-14 09:45:00,61.7,61.1,30.18,North,0,0.0,0.0,98,0.00,,---,0.00,VWS V14.01,2013-01-14 14:45:00,
2013-01-14 09:46:00,61.7,61.1,30.18,North,0,0.0,0.0,98,0.00,,---,0.00,VWS V14.01,2013-01-14 14:46:00,
2013-01-14 09:47:00,73.9,69.8,30.24,ESE,112,0.0,0.0,87,0.00,,---,0.00,VWS V14.01,2013-01-14 14:47:00,
2013-01-14 09:48:00,62.1,61.5,30.18,North,0,0.0,0.0,98,0.00,,---,0.00,VWS V14.01,2013-01-14 14:48:00,
2013-01-14 09:49:00,62.1,61.5,30.18,North,0,0.0,0.0,98,0.00,,---,0.00,VWS V14.01,2013-01-14 14:49:00,
2013-01-14 09:50:00,62.2,61.7,30.18,North,0,0.0,0.0,98,0.00,,---,0.00,VWS V14.01,2013-01-14 14:50:00,
2013-01-14 09:51:00,62.2,61.7,30.18,North,0,0.0,0.0,98,0.00,,---,0.00,VWS V14.01,2013-01-14 14:51:00,
2013-01-14 09:52:00,73.9,68.5,30.21,SSE,158,0.0,0.0,83,0.00,,---,0.00,VWS V14.01,2013-01-14 14:52:00,
2013-01-14 09:53:00,62.4,61.8,30.18,North,0,0.0,0.0,98,0.00,,---,0.00,VWS V14.01,2013-01-14 14:53:00,
2013-01-14 09:54:00,62.4,61.8,30.18,North,0,0.0,0.0,98,0.00,,---,0.00,VWS V14.01,2013-01-14 14:54:00,
2013-01-14 09:55:00,62.6,62.0,30.18,North,0,0.0,0.0,98,0.00,,---,0.00,VWS V14.01,2013-01-14 14:55:00,
2013-01-14 09:56:00,62.6,62.0,30.18,North,0,0.0,0.0,98,0.00,,---,0.00,VWS V14.01,2013-01-14 14:56:00,
2013-01-14 09:57:00,74.1,67.6,30.21,SE,135,0.0,0.0,80,0.00,,---,0.00,VWS V14.01,2013-01-14 14:57:00,
2013-01-14 09:58:00,63.0,62.4,30.18,North,0,0.0,0.0,98,0.00,,---,0.00,VWS V14.01,2013-01-14 14:58:00,
2013-01-14 09:59:00,63.1,62.6,30.18,North,0,0.0,0.0,98,0.00,,---,0.00,VWS V14.01,2013-01-14 14:59:00,
2013-01-14 10:00:00,63.3,62.8,30.18,North,0,0.0,0.0,98,0.00,,---,0.00,VWS V14.01,2013-01-14 15:00:00,
2013-01-14 10:01:00,63.5,62.9,30.18,North,0,0.0,0.0,98,0.00,,---,0.00,VWS V14.01,2013-01-14 15:01:00,
2013-01-14 10:02:00,74.7,67.7,30.21,SSE,158,0.0,0.0,79,0.00,,---,0.00,VWS V14.01,2013-01-14 15:02:00,
2013-01-14 10:03:00,63.9,63.3,30.18,North,0,0.0,0.0,98,0.00,,---,0.00,VWS V14.01,2013-01-14 15:03:00,
2013-01-14 10:04:00,64.0,63.5,30.18,North,0,0.0,0.0,98,0.00,,---,0.00,VWS V14.01,2013-01-14 15:04:00,
2013-01-14 10:05:00,64.2,63.7,30.18,North,0,0.0,0.0,98,0.00,,---,0.00,VWS V14.01,2013-01-14 15:05:00,
2013-01-14 10:06:00,64.2,63.7,30.18,North,0,0.0,0.0,98,0.00,,---,0.00,VWS V14.01,2013-01-14 15:06:00,
2013-01-14 10:07:00,75.2,68.2,30.24,ESE,112,0.0,0.0,79,0.00,,---,0.00,VWS V14.01,2013-01-14 15:07:00,
2013-01-14 10:08:00,64.6,64.0,30.18,North,0,0.0,0.0,98,0.00,,---,0.00,VWS V14.01,2013-01-14 15:08:00,
2013-01-14 10:09:00,64.6,64.0,30.18,North,0,0.0,0.0,98,0.00,,---,0.00,VWS V14.01,2013-01-14 15:09:00,
2013-01-14 10:10:00,64.6,64.0,30.18,North,0,0.0,0.0,98,0.00,,---,0.00,VWS V14.01,2013-01-14 15:10:00,
2013-01-14 10:11:00,65.3,64.7,30.18,North,0,0.0,0.0,98,0.00,,---,0.00,VWS V14.01,2013-01-14 15:11:00,
2013-01-14 10:12:00,75.9,68.6,30.24,NE,45,0.0,0.0,78,0.00,,---,0.00,VWS V14.01,2013-01-14 15:12:00,
2013-01-14 10:13:00,65.7,65.1,30.18,North,0,0.0,0.0,98,0.00,,---,0.00,VWS V14.01,2013-01-14 15:13:00,
2013-01-14 10:14:00,65.7,65.1,30.18,North,0,0.0,0.0,98,0.00,,---,0.00,VWS V14.01,2013-01-14 15:14:00,
2013-01-14 10:15:00,65.7,65.1,30.18,North,0,0.0,0.0,98,0.00,,---,0.00,VWS V14.01,2013-01-14 15:15:00,
2013-01-14 10:16:00,65.7,65.1,30.18,North,0,0.0,0.0,98,0.00,,---,0.00,VWS V14.01,2013-01-14 15:16:00,
2013-01-14 10:17:00,77.0,68.1,30.24,ESE,112,0.0,0.0,74,0.00,,---,0.00,VWS V14.01,2013-01-14 15:17:00,
2013-01-14 10:18:00,66.4,65.8,30.18,North,0,0.0,0.0,98,0.00,,---,0.00,VWS V14.01,2013-01-14 15:18:00,
2013-01-14 10:19:00,66.4,65.8,30.18,North,0,0.0,0.0,98,0.00,,---,0.00,VWS V14.01,2013-01-14 15:19:00,
2013-01-14 10:20:00,66.6,66.0,30.18,North,0,0.0,0.0,98,0.00,,---,0.00,VWS V14.01,2013-01-14 15:20:00,
2013-01-14 10:21:00,66.7,66.2,30.18,NNW,338,0.0,0.0,98,0.00,,---,0.00,VWS V14.01,2013-01-14 15:21:00,
2013-01-14 10:22:00,77.5,69.0,30.21,SSE,158,0.0,0.0,75,0.00,,---,0.00,VWS V14.01,2013-01-14 15:22:00,
2013-01-14 10:23:00,66.9,66.3,30.18,NNW,338,0.0,0.0,98,0.00,,---,0.00,VWS V14.01,2013-01-14 15:23:00,
2013-01-14 10:24:00,66.9,66.3,30.18,West,270,0.0,0.0,98,0.00,,---,0.00,VWS V14.01,2013-01-14 15:24:00,
2013-01-14 10:25:00,67.3,66.7,30.18,West,270,0.0,0.0,98,0.00,,---,0.00,VWS V14.01,2013-01-14 15:25:00,
2013-01-14 10:26:00,67.5,66.9,30.18,West,270,0.0,0.0,98,0.00,,---,0.00,VWS V14.01,2013-01-14 15:26:00,
2013-01-14 10:27:00,77.5,67.8,30.21,SSE,158,0.0,0.0,72,0.00,,---,0.00,VWS V14.01,2013-01-14 15:27:00,
2013-01-14 10:28:00,67.6,67.1,30.18,SW,225,0.0,0.0,98,0.00,,---,0.00,VWS V14.01,2013-01-14 15:28:00,
2013-01-14 10:29:00,67.8,67.2,30.18,SW,225,0.0,0.0,98,0.00,,---,0.00,VWS V14.01,2013-01-14 15:29:00,
2013-01-14 10:30:00,68.0,67.4,30.18,SW,225,0.0,0.0,98,0.00,,---,0.00,VWS V14.01,2013-01-14 15:30:00,
2013-01-14 10:31:00,68.0,67.4,30.18,SW,225,0.0,0.0,98,0.00,,---,0.00,VWS V14.01,2013-01-14 15:31:00,
2013-01-14 10:32:00,77.5,67.0,30.21,NE,45,0.0,0.0,70,0.00,,---,0.00,VWS V14.01,2013-01-14 15:32:00,
2013-01-14 10:33:00,68.5,68.0,30.18,SW,225,0.0,0.0,98,0.00,,---,0.00,VWS V14.01,2013-01-14 15:33:00,
2013-01-14 10:34:00,68.7,68.1,30.18,SW,225,0.0,0.0,98,0.00,,---,0.00,VWS V14.01,2013-01-14 15:34:00,
2013-01-14 10:35:00,68.9,68.3,30.18,SW,225,0.0,0.0,98,0.00,,---,0.00,VWS V14.01,2013-01-14 15:35:00,
2013-01-14 10:36:00,68.9,68.3,30.18,SSW,202,0.0,0.0,98,0.00,,---,0.00,VWS V14.01,2013-01-14 15:36:00,
2013-01-14 10:37:00,78.4,68.3,30.21,SE,135,0.0,0.0,71,0.00,,---,0.00,VWS V14.01,2013-01-14 15:37:00,
2013-01-14 10:38:00,69.3,68.7,30.18,SSE,158,0.0,0.0,98,0.00,,---,0.00,VWS V14.01,2013-01-14 15:38:00,
2013-01-14 10:39:00,69.4,68.8,30.18,SSW,202,0.0,0.0,98,0.00,,---,0.00,VWS V14.01,2013-01-14 15:39:00,
2013-01-14 10:40:00,69.8,69.2,30.18,SSW,202,0.0,0.0,98,0.00,,---,0.00,VWS V14.01,2013-01-14 15:40:00,
2013-01-14 10:41:00,70.0,69.4,30.18,SSE,158,0.0,0.0,98,0.00,,---,0.00,VWS V14.01,2013-01-14 15:41:00,
2013-01-14 10:42:00,80.1,65.9,30.21,SSE,158,0.0,0.0,62,0.00,,---,0.00,VWS V14.01,2013-01-14 15:42:00,
2013-01-14 10:43:00,70.2,69.6,30.18,South,180,0.0,0.0,98,0.00,,---,0.00,VWS V14.01,2013-01-14 15:43:00,
2013-01-14 10:44:00,70.2,69.6,30.18,SSE,158,0.0,0.0,98,0.00,,---,0.00,VWS V14.01,2013-01-14 15:44:00,
2013-01-14 10:45:00,70.5,69.9,30.18,SSE,158,0.0,0.0,98,0.00,,---,0.00,VWS V14.01,2013-01-14 15:45:00,
2013-01-14 10:46:00,70.5,69.9,30.18,SSE,158,0.0,0.0,98,0.00,,---,0.00,VWS V14.01,2013-01-14 15:46:00,
2013-01-14 10:47:00,79.3,64.7,30.21,SSE,158,0.0,0.0,61,0.00,,---,0.00,VWS V14.01,2013-01-14 15:47:00,
2013-01-14 10:48:00,71.1,70.5,30.21,ESE,112,0.0,0.0,98,0.00,,---,0.00,VWS V14.01,2013-01-14 15:48:00,
2013-01-14 10:49:00,71.2,70.7,30.21,SE,135,0.0,0.0,98,0.00,,---,0.00,VWS V14.01,2013-01-14 15:49:00,
2013-01-14 10:50:00,71.4,70.8,30.21,SSE,158,0.0,0.0,98,0.00,,---,0.00,VWS V14.01,2013-01-14 15:50:00,
2013-01-14 10:51:00,71.4,70.8,30.21,SSE,158,0.0,0.0,98,0.00,,---,0.00,VWS V14.01,2013-01-14 15:51:00,
2013-01-14 10:52:00,78.8,64.2,30.21,SSE,158,0.0,0.0,61,0.00,,---,0.00,VWS V14.01,2013-01-14 15:52:00,
2013-01-14 10:53:00,71.2,70.7,30.21,SSE,158,0.0,0.0,98,0.00,,---,0.00,VWS V14.01,2013-01-14 15:53:00,
2013-01-14 10:54:00,71.4,70.8,30.21,SE,135,0.0,0.0,98,0.00,,---,0.00,VWS V14.01,2013-01-14 15:54:00,
2013-01-14 10:55:00,72.1,71.6,30.21,ESE,112,0.0,0.0,98,0.00,,---,0.00,VWS V14.01,2013-01-14 15:55:00,
2013-01-14 10:56:00,72.3,71.7,30.21,ESE,112,0.0,0.0,98,0.00,,---,0.00,VWS V14.01,2013-01-14 15:56:00,
2013-01-14 10:57:00,79.9,64.3,30.21,South,180,0.0,0.0,59,0.00,,---,0.00,VWS V14.01,2013-01-14 15:57:00,
2013-01-14 10:58:00,72.5,71.9,30.21,ENE,68,0.0,0.0,98,0.00,,---,0.00,VWS V14.01,2013-01-14 15:58:00,
2013-01-14 10:59:00,72.9,72.3,30.21,East,90,0.0,0.0,98,0.00,,---,0.00,VWS V14.01,2013-01-14 15:59:00,
2013-01-14 11:00:00,72.9,72.0,30.21,SSE,158,0.0,0.0,97,0.00,,---,0.00,VWS V14.01,2013-01-14 16:00:00,
2013-01-14 11:01:00,72.9,72.0,30.21,ESE,112,0.0,0.0,97,0.00,,---,0.00,VWS V14.01,2013-01-14 16:01:00,
2013-01-14 11:02:00,81.3,63.1,30.21,SSE,158,0.0,0.0,54,0.00,,---,0.00,VWS V14.01,2013-01-14 16:02:00,
2013-01-14 11:03:00,73.2,71.7,30.24,ENE,68,0.0,0.0,95,0.00,,---,0.00,VWS V14.01,2013-01-14 16:03:00,
2013-01-14 11:04:00,73.2,71.4,30.24,ESE,112,0.0,0.0,94,0.00,,---,0.00,VWS V14.01,2013-01-14 16:04:00,
2013-01-14 11:05:00,73.4,70.9,30.24,SSE,158,0.0,0.0,92,0.00,,---,0.00,VWS V14.01,2013-01-14 16:05:00,
2013-01-14 11:06:00,73.4,70.9,30.24,SSE,158,0.0,0.0,92,0.00,,---,0.00,VWS V14.01,2013-01-14 16:06:00,
2013-01-14 11:07:00,80.2,61.6,30.21,SSE,158,0.0,0.0,53,0.00,,---,0.00,VWS V14.01,2013-01-14 16:07:00,
2013-01-14 11:08:00,73.8,71.0,30.24,ESE,112,0.0,0.0,91,0.00,,---,0.00,VWS V14.01,2013-01-14 16:08:00,
2013-01-14 11:09:00,73.8,70.7,30.24,SSW,202,0.0,0.0,90,0.00,,---,0.00,VWS V14.01,2013-01-14 16:09:00,
2013-01-14 11:10:00,73.4,69.0,30.24,SSE,158,0.0,0.0,86,0.00,,---,0.00,VWS V14.01,2013-01-14 16:10:00,
2013-01-14 11:11:00,73.8,69.3,30.24,South,180,0.0,0.0,86,0.00,,---,0.00,VWS V14.01,2013-01-14 16:11:00,
2013-01-14 11:12:00,82.9,65.1,30.21,ESE,112,0.0,0.0,55,0.00,,---,0.00,VWS V14.01,2013-01-14 16:12:00,
2013-01-14 11:13:00,73.8,69.3,30.24,ESE,112,0.0,0.0,86,0.00,,---,0.00,VWS V14.01,2013-01-14 16:13:00,
2013-01-14 11:14:00,73.8,69.0,30.24,SSE,158,0.0,0.0,85,0.00,,---,0.00,VWS V14.01,2013-01-14 16:14:00,
2013-01-14 11:15:00,73.8,68.3,30.24,SSE,158,0.0,0.0,83,0.00,,---,0.00,VWS V14.01,2013-01-14 16:15:00,
2013-01-14 11:16:00,73.8,68.3,30.24,SE,135,0.0,0.0,83,0.00,,---,0.00,VWS V14.01,2013-01-14 16:16:00,
2013-01-14 11:17:00,81.9,63.1,30.21,SSE,158,0.0,0.0,53,0.00,,---,0.00,VWS V14.01,2013-01-14 16:17:00,
2013-01-14 11:18:00,73.9,68.5,30.21,South,180,0.0,0.0,83,0.00,,---,0.00,VWS V14.01,2013-01-14 16:18:00,
2013-01-14 11:19:00,73.9,67.4,30.21,South,180,0.0,0.0,80,0.00,,---,0.00,VWS V14.01,2013-01-14 16:19:00,
2013-01-14 11:20:00,74.1,67.9,30.21,SSE,158,0.0,0.0,81,0.00,,---,0.00,VWS V14.01,2013-01-14 16:20:00,
2013-01-14 11:21:00,74.1,67.6,30.21,ESE,112,0.0,0.0,80,0.00,,---,0.00,VWS V14.01,2013-01-14 16:21:00,
2013-01-14 11:22:00,80.2,61.6,30.18,ENE,68,0.0,0.0,53,0.00,,---,0.00,VWS V14.01,2013-01-14 16:22:00,
2013-01-14 11:23:00,74.1,67.6,30.21,SSE,158,0.0,0.0,80,0.00,,---,0.00,VWS V14.01,2013-01-14 16:23:00,
2013-01-14 11:24:00,74.3,68.1,30.21,SSW,202,0.0,0.0,81,0.00,,---,0.00,VWS V14.01,2013-01-14 16:24:00,
2013-01-14 11:25:00,74.3,67.7,30.21,SE,135,0.0,0.0,80,0.00,,---,0.00,VWS V14.01,2013-01-14 16:25:00,
2013-01-14 11:26:00,74.7,68.4,30.21,South,180,0.0,0.0,81,0.00,,---,0.00,VWS V14.01,2013-01-14 16:26:00,
2013-01-14 11:27:00,79.9,61.8,30.18,ESE,112,0.0,0.0,54,0.00,,---,0.00,VWS V14.01,2013-01-14 16:27:00,
2013-01-14 11:28:00,74.8,68.3,30.21,SSW,202,0.0,0.0,80,0.00,,---,0.00,VWS V14.01,2013-01-14 16:28:00,
2013-01-14 11:29:00,74.8,68.3,30.21,ESE,112,0.0,0.0,80,0.00,,---,0.00,VWS V14.01,2013-01-14 16:29:00,
2013-01-14 11:30:00,75.0,68.8,30.21,ENE,68,0.0,0.0,81,0.00,,---,0.00,VWS V14.01,2013-01-14 16:30:00,
2013-01-14 11:31:00,75.0,68.4,30.21,ENE,68,0.0,0.0,80,0.00,,---,0.00,VWS V14.01,2013-01-14 16:31:00,
2013-01-14 11:32:00,80.1,62.5,30.18,NE,45,0.0,0.0,55,0.00,,---,0.00,VWS V14.01,2013-01-14 16:32:00,
2013-01-14 11:33:00,75.4,68.4,30.24,ESE,112,0.0,0.0,79,0.00,,---,0.00,VWS V14.01,2013-01-14 16:33:00,
2013-01-14 11:34:00,75.4,68.8,30.24,ESE,112,0.0,0.0,80,0.00,,---,0.00,VWS V14.01,2013-01-14 16:34:00,
2013-01-14 11:35:00,75.6,68.6,30.24,ENE,68,0.0,0.0,79,0.00,,---,0.00,VWS V14.01,2013-01-14 16:35:00,
2013-01-14 11:36:00,75.7,69.1,30.24,ENE,68,0.0,0.0,80,0.00,,---,0.00,VWS V14.01,2013-01-14 16:36:00,
2013-01-14 11:37:00,79.9,62.3,30.18,ESE,112,0.0,0.0,55,0.00,,---,0.00,VWS V14.01,2013-01-14 16:37:00,
2013-01-14 11:38:00,75.9,68.6,30.24,ENE,68,0.0,0.0,78,0.00,,---,0.00,VWS V14.01,2013-01-14 16:38:00,
2013-01-14 11:39:00,76.1,68.4,30.24,SSE,158,0.0,0.0,77,0.00,,---,0.00,VWS V14.01,2013-01-14 16:39:00,
2013-01-14 11:40:00,76.3,67.8,30.24,NW,315,0.0,0.0,75,0.00,,---,0.00,VWS V14.01,2013-01-14 16:40:00,
2013-01-14 11:41:00,77.0,68.1,30.24,SSW,202,0.0,0.0,74,0.00,,---,0.00,VWS V14.01,2013-01-14 16:41:00,
2013-01-14 11:42:00,79.9,63.3,30.18,ENE,68,0.0,0.0,57,0.00,,---,0.00,VWS V14.01,2013-01-14 16:42:00,
2013-01-14 11:43:00,77.4,68.0,30.24,ESE,112,0.0,0.0,73,0.00,,---,0.00,VWS V14.01,2013-01-14 16:43:00,
2013-01-14 11:44:00,77.5,67.8,30.24,SE,135,0.0,0.0,72,0.00,,---,0.00,VWS V14.01,2013-01-14 16:44:00,
2013-01-14 11:45:00,77.5,68.2,30.24,ESE,112,0.0,0.0,73,0.00,,---,0.00,VWS V14.01,2013-01-14 16:45:00,
2013-01-14 11:46:00,77.5,68.2,30.24,ENE,68,0.0,0.0,73,0.00,,---,0.00,VWS V14.01,2013-01-14 16:46:00,
2013-01-14 11:47:00,80.1,63.5,30.18,NNE,22,0.0,0.0,57,0.00,,---,0.00,VWS V14.01,2013-01-14 16:47:00,
2013-01-14 11:48:00,77.5,68.6,30.21,SE,135,0.0,0.0,74,0.00,,---,0.00,VWS V14.01,2013-01-14 16:48:00,
2013-01-14 11:49:00,77.5,67.8,30.21,East,90,0.0,0.0,72,0.00,,---,0.00,VWS V14.01,2013-01-14 16:49:00,
2013-01-14 11:50:00,77.5,67.8,30.21,SSE,158,0.0,0.0,72,0.00,,---,0.00,VWS V14.01,2013-01-14 16:50:00,
2013-01-14 11:51:00,77.5,67.8,30.21,ESE,112,0.0,0.0,72,0.00,,---,0.00,VWS V14.01,2013-01-14 16:51:00,
2013-01-14 11:52:00,79.9,63.3,30.18,SE,135,0.0,0.0,57,0.00,,---,0.00,VWS V14.01,2013-01-14 16:52:00,
2013-01-14 11:53:00,77.5,67.8,30.21,South,180,0.0,0.0,72,0.00,,---,0.00,VWS V14.01,2013-01-14 16:53:00,
2013-01-14 11:54:00,77.5,67.4,30.21,SE,135,0.0,0.0,71,0.00,,---,0.00,VWS V14.01,2013-01-14 16:54:00,
2013-01-14 11:55:00,77.5,67.8,30.21,ENE,68,0.0,0.0,72,0.00,,---,0.00,VWS V14.01,2013-01-14 16:55:00,
2013-01-14 11:56:00,77.5,67.0,30.21,NE,45,0.0,0.0,70,0.00,,---,0.00,VWS V14.01,2013-01-14 16:56:00,
2013-01-14 11:57:00,78.3,62.3,30.18,ENE,68,0.0,0.0,58,0.00,,---,0.00,VWS V14.01,2013-01-14 16:57:00,
2013-01-14 11:58:00,77.7,67.6,30.21,SSE,158,0.0,0.0,71,0.00,,---,0.00,VWS V14.01,2013-01-14 16:58:00,
2013-01-14 11:59:00,77.9,67.3,30.21,ESE,112,0.0,0.0,70,0.00,,---,0.00,VWS V14.01,2013-01-14 16:59:00,
2013-01-14 12:00:00,77.9,67.3,30.21,East,90,0.0,0.0,70,0.00,,---,0.00,VWS V14.01,2013-01-14 17:00:00,
2013-01-14 12:01:00,78.1,67.9,30.21,SSE,158,0.0,0.0,71,0.00,,---,0.00,VWS V14.01,2013-01-14 17:01:00,
2013-01-14 12:02:00,78.8,63.8,30.18,SE,135,0.0,0.0,60,0.00,,---,0.00,VWS V14.01,2013-01-14 17:02:00,
2013-01-14 12:03:00,78.4,68.3,30.21,ESE,112,0.0,0.0,71,0.00,,---,0.00,VWS V14.01,2013-01-14 17:03:00,
2013-01-14 12:04:00,79.0,68.8,30.21,SSE,158,0.0,0.0,71,0.00,,---,0.00,VWS V14.01,2013-01-14 17:04:00,
2013-01-14 12:05:00,79.3,68.7,30.21,ESE,112,0.0,0.0,70,0.00,,---,0.00,VWS V14.01,2013-01-14 17:05:00,
2013-01-14 12:06:00,79.5,68.0,30.21,SSE,158,0.0,0.0,68,0.00,,---,0.00,VWS V14.01,2013-01-14 17:06:00,
2013-01-14 12:07:00,78.8,63.8,30.15,ESE,112,0.0,0.0,60,0.00,,---,0.00,VWS V14.01,2013-01-14 17:07:00,
2013-01-14 12:08:00,80.1,65.9,30.21,SSW,202,0.0,0.0,62,0.00,,---,0.00,VWS V14.01,2013-01-14 17:08:00,
2013-01-14 12:09:00,79.9,64.8,30.21,South,180,0.0,0.0,60,0.00,,---,0.00,VWS V14.01,2013-01-14 17:09:00,
2013-01-14 12:10:00,79.7,64.6,30.21,ESE,112,0.0,0.0,60,0.00,,---,0.00,VWS V14.01,2013-01-14 17:10:00,
2013-01-14 12:11:00,79.5,64.9,30.21,SSE,158,0.0,0.0,61,0.00,,---,0.00,VWS V14.01,2013-01-14 17:11:00,
2013-01-14 12:12:00,78.6,63.6,30.15,ESE,112,0.0,0.0,60,0.00,,---,0.00,VWS V14.01,2013-01-14 17:12:00,
2013-01-14 12:13:00,79.2,64.1,30.21,SSE,158,0.0,0.0,60,0.00,,---,0.00,VWS V14.01,2013-01-14 17:13:00,
2013-01-14 12:14:00,79.2,64.6,30.21,ESE,112,0.0,0.0,61,0.00,,---,0.00,VWS V14.01,2013-01-14 17:14:00,
2013-01-14 12:15:00,79.2,65.0,30.21,SSE,158,0.0,0.0,62,0.00,,---,0.00,VWS V14.01,2013-01-14 17:15:00,
2013-01-14 12:16:00,79.0,64.9,30.21,ESE,112,0.0,0.0,62,0.00,,---,0.00,VWS V14.01,2013-01-14 17:16:00,
2013-01-14 12:17:00,81.7,65.5,30.15,East,90,0.0,0.0,58,0.00,,---,0.00,VWS V14.01,2013-01-14 17:17:00,
2013-01-14 12:18:00,78.8,64.2,30.21,SSW,202,0.0,0.0,61,0.00,,---,0.00,VWS V14.01,2013-01-14 17:18:00,
2013-01-14 12:19:00,78.8,64.7,30.21,East,90,0.0,0.0,62,0.00,,---,0.00,VWS V14.01,2013-01-14 17:19:00,
2013-01-14 12:20:00,79.0,64.4,30.21,ENE,68,0.0,0.0,61,0.00,,---,0.00,VWS V14.01,2013-01-14 17:20:00,
2013-01-14 12:21:00,79.2,65.0,30.21,ESE,112,0.0,0.0,62,0.00,,---,0.00,VWS V14.01,2013-01-14 17:21:00,
2013-01-14 12:22:00,80.4,62.8,30.12,NE,45,0.0,0.0,55,0.00,,---,0.00,VWS V14.01,2013-01-14 17:22:00,
2013-01-14 12:23:00,79.9,64.3,30.21,South,180,0.0,0.0,59,0.00,,---,0.00,VWS V14.01,2013-01-14 17:23:00,
2013-01-14 12:24:00,80.6,64.5,30.21,East,90,0.0,0.0,58,0.00,,---,0.00,VWS V14.01,2013-01-14 17:24:00,
2013-01-14 12:25:00,81.3,66.1,30.21,NNE,22,0.0,0.0,60,0.00,,---,0.00,VWS V14.01,2013-01-14 17:25:00,
2013-01-14 12:26:00,81.5,63.3,30.21,South,180,0.0,0.0,54,0.00,,---,0.00,VWS V14.01,2013-01-14 17:26:00,
2013-01-14 12:27:00,79.7,63.1,30.12,ESE,112,0.0,0.0,57,0.00,,---,0.00,VWS V14.01,2013-01-14 17:27:00,
2013-01-14 12:28:00,81.1,62.4,30.21,SSE,158,0.0,0.0,53,0.00,,---,0.00,VWS V14.01,2013-01-14 17:28:00,
2013-01-14 12:29:00,81.1,62.4,30.21,South,180,0.0,0.0,53,0.00,,---,0.00,VWS V14.01,2013-01-14 17:29:00,
2013-01-14 12:30:00,81.0,62.8,30.21,SSE,158,0.0,0.0,54,0.00,,---,0.00,VWS V14.01,2013-01-14 17:30:00,
2013-01-14 12:31:00,80.6,61.9,30.21,ESE,112,0.0,0.0,53,0.00,,---,0.00,VWS V14.01,2013-01-14 17:31:00,
2013-01-14 12:32:00,82.9,64.6,30.12,SSE,158,0.0,0.0,54,0.00,,---,0.00,VWS V14.01,2013-01-14 17:32:00,
2013-01-14 12:33:00,80.2,61.6,30.21,SW,225,0.0,0.0,53,0.00,,---,0.00,VWS V14.01,2013-01-14 17:33:00,
2013-01-14 12:34:00,81.0,63.3,30.21,NNE,22,0.0,0.0,55,0.00,,---,0.00,VWS V14.01,2013-01-14 17:34:00,
2013-01-14 12:35:00,81.5,63.3,30.21,ESE,112,0.0,0.0,54,0.00,,---,0.00,VWS V14.01,2013-01-14 17:35:00,
2013-01-14 12:36:00,82.0,64.3,30.21,SE,135,0.0,0.0,55,0.00,,---,0.00,VWS V14.01,2013-01-14 17:36:00,
2013-01-14 12:37:00,82.0,62.1,30.15,East,90,0.0,0.0,51,0.00,,---,0.00,VWS V14.01,2013-01-14 17:37:00,
2013-01-14 12:38:00,82.9,65.1,30.21,ESE,112,0.0,0.0,55,0.00,,---,0.00,VWS V14.01,2013-01-14 17:38:00,
2013-01-14 12:39:00,82.8,63.4,30.21,South,180,0.0,0.0,52,0.00,,---,0.00,VWS V14.01,2013-01-14 17:39:00,
2013-01-14 12:40:00,82.6,63.7,30.21,SSE,158,0.0,0.0,53,0.00,,---,0.00,VWS V14.01,2013-01-14 17:40:00,
2013-01-14 12:41:00,81.9,62.5,30.21,ENE,68,0.0,0.0,52,0.00,,---,0.00,VWS V14.01,2013-01-14 17:41:00,
2013-01-14 12:42:00,83.5,62.9,30.15,SSE,158,0.0,0.0,50,0.00,,---,0.00,VWS V14.01,2013-01-14 17:42:00,
2013-01-14 12:43:00,81.9,63.1,30.21,SE,135,0.0,0.0,53,0.00,,---,0.00,VWS V14.01,2013-01-14 17:43:00,
2013-01-14 12:44:00,81.7,62.9,30.21,South,180,0.0,0.0,53,0.00,,---,0.00,VWS V14.01,2013-01-14 17:44:00,
2013-01-14 12:45:00,81.1,61.3,30.21,SSE,158,0.0,0.0,51,0.00,,---,0.00,VWS V14.01,2013-01-14 17:45:00,
2013-01-14 12:46:00,80.8,61.5,30.21,SE,135,0.0,0.0,52,0.00,,---,0.00,VWS V14.01,2013-01-14 17:46:00,
2013-01-14 12:47:00,83.8,61.5,30.15,SSW,202,0.0,0.0,47,0.00,,---,0.00,VWS V14.01,2013-01-14 17:47:00,
2013-01-14 12:48:00,80.2,61.6,30.18,SSE,158,0.0,0.0,53,0.00,,---,0.00,VWS V14.01,2013-01-14 17:48:00,
2013-01-14 12:49:00,80.1,61.4,30.18,SSW,202,0.0,0.0,53,0.00,,---,0.00,VWS V14.01,2013-01-14 17:49:00,
2013-01-14 12:50:00,79.9,61.8,30.18,ESE,112,0.0,0.0,54,0.00,,---,0.00,VWS V14.01,2013-01-14 17:50:00,
2013-01-14 12:51:00,79.9,62.3,30.18,ESE,112,0.0,0.0,55,0.00,,---,0.00,VWS V14.01,2013-01-14 17:51:00,
2013-01-14 12:52:00,83.3,61.0,30.15,ESE,112,0.0,0.0,47,0.00,,---,0.00,VWS V14.01,2013-01-14 17:52:00,
2013-01-14 12:53:00,79.7,61.6,30.18,ESE,112,0.0,0.0,54,0.00,,---,0.00,VWS V14.01,2013-01-14 17:53:00,
2013-01-14 12:54:00,79.7,62.1,30.18,ESE,112,0.0,0.0,55,0.00,,---,0.00,VWS V14.01,2013-01-14 17:54:00,
2013-01-14 12:55:00,79.7,62.1,30.18,ESE,112,0.0,0.0,55,0.00,,---,0.00,VWS V14.01,2013-01-14 17:55:00,
2013-01-14 12:56:00,79.7,62.1,30.18,ESE,112,0.0,0.0,55,0.00,,---,0.00,VWS V14.01,2013-01-14 17:56:00,
2013-01-14 12:57:00,83.3,61.6,30.15,ESE,112,0.0,0.0,48,0.00,,---,0.00,VWS V14.01,2013-01-14 17:57:00,
2013-01-14 12:58:00,80.1,62.5,30.18,ESE,112,0.0,0.0,55,0.00,,---,0.00,VWS V14.01,2013-01-14 17:58:00,
2013-01-14 12:59:00,80.2,62.6,30.18,South,180,0.0,0.0,55,0.00,,---,0.00,VWS V14.01,2013-01-14 17:59:00,
2013-01-14 13:00:00,80.1,62.5,30.18,ESE,112,0.0,0.0,55,0.00,,---,0.00,VWS V14.01,2013-01-14 18:00:00,
2013-01-14 13:01:00,80.1,62.5,30.18,SE,135,0.0,0.0,55,0.00,,---,0.00,VWS V14.01,2013-01-14 18:01:00,
2013-01-14 13:02:00,82.0,59.8,30.15,ESE,112,0.0,0.0,47,0.00,,---,0.00,VWS V14.01,2013-01-14 18:02:00,
2013-01-14 13:03:00,79.9,62.3,30.18,ENE,68,0.0,0.0,55,0.00,,---,0.00,VWS V14.01,2013-01-14 18:03:00,
2013-01-14 13:04:00,79.7,62.6,30.18,SE,135,0.0,0.0,56,0.00,,---,0.00,VWS V14.01,2013-01-14 18:04:00,
2013-01-14 13:05:00,79.9,63.3,30.18,ESE,112,0.0,0.0,57,0.00,,---,0.00,VWS V14.01,2013-01-14 18:05:00,
2013-01-14 13:06:00,79.9,63.3,30.18,ENE,68,0.0,0.0,57,0.00,,---,0.00,VWS V14.01,2013-01-14 18:06:00,
2013-01-14 13:07:00,81.1,60.2,30.15,ESE,112,0.0,0.0,49,0.00,,---,0.00,VWS V14.01,2013-01-14 18:07:00,
2013-01-14 13:08:00,79.9,63.3,30.18,ESE,112,0.0,0.0,57,0.00,,---,0.00,VWS V14.01,2013-01-14 18:08:00,
2013-01-14 13:09:00,80.1,63.5,30.18,ESE,112,0.0,0.0,57,0.00,,---,0.00,VWS V14.01,2013-01-14 18:09:00,
2013-01-14 13:10:00,79.9,62.8,30.18,SE,135,0.0,0.0,56,0.00,,---,0.00,VWS V14.01,2013-01-14 18:10:00,
2013-01-14 13:11:00,80.1,63.0,30.18,SE,135,0.0,0.0,56,0.00,,---,0.00,VWS V14.01,2013-01-14 18:11:00,
2013-01-14 13:12:00,81.7,61.2,30.15,SSE,158,0.0,0.0,50,0.00,,---,0.00,VWS V14.01,2013-01-14 18:12:00,
2013-01-14 13:13:00,80.2,63.6,30.18,ESE,112,0.0,0.0,57,0.00,,---,0.00,VWS V14.01,2013-01-14 18:13:00,
2013-01-14 13:14:00,80.1,63.5,30.18,SE,135,0.0,0.0,57,0.00,,---,0.00,VWS V14.01,2013-01-14 18:14:00,
2013-01-14 13:15:00,80.1,63.0,30.18,ESE,112,0.0,0.0,56,0.00,,---,0.00,VWS V14.01,2013-01-14 18:15:00,
2013-01-14 13:16:00,79.9,62.8,30.18,SSW,202,0.0,0.0,56,0.00,,---,0.00,VWS V14.01,2013-01-14 18:16:00,
2013-01-14 13:17:00,84.7,61.7,30.15,ENE,68,0.0,0.0,46,0.00,,---,0.00,VWS V14.01,2013-01-14 18:17:00,
2013-01-14 13:18:00,79.9,63.3,30.18,ENE,68,0.0,0.0,57,0.00,,---,0.00,VWS V14.01,2013-01-14 18:18:00,
2013-01-14 13:19:00,79.0,62.0,30.18,ENE,68,0.0,0.0,56,0.00,,---,0.00,VWS V14.01,2013-01-14 18:19:00,
2013-01-14 13:20:00,78.6,62.1,30.18,ENE,68,0.0,0.0,57,0.00,,---,0.00,VWS V14.01,2013-01-14 18:20:00,
2013-01-14 13:21:00,78.4,62.5,30.18,ENE,68,0.0,0.0,58,0.00,,---,0.00,VWS V14.01,2013-01-14 18:21:00,
2013-01-14 13:22:00,82.8,61.1,30.15,East,90,0.0,0.0,48,0.00,,---,0.00,VWS V14.01,2013-01-14 18:22:00,
2013-01-14 13:23:00,78.3,62.8,30.18,East,90,0.0,0.0,59,0.00,,---,0.00,VWS V14.01,2013-01-14 18:23:00,
2013-01-14 13:24:00,78.4,63.4,30.18,ENE,68,0.0,0.0,60,0.00,,---,0.00,VWS V14.01,2013-01-14 18:24:00,
2013-01-14 13:25:00,78.4,63.4,30.18,ESE,112,0.0,0.0,60,0.00,,---,0.00,VWS V14.01,2013-01-14 18:25:00,
2013-01-14 13:26:00,78.4,63.4,30.18,ENE,68,0.0,0.0,60,0.00,,---,0.00,VWS V14.01,2013-01-14 18:26:00,
2013-01-14 13:27:00,81.5,61.7,30.15,SSE,158,0.0,0.0,51,0.00,,---,0.00,VWS V14.01,2013-01-14 18:27:00,
2013-01-14 13:28:00,78.8,63.8,30.18,NNE,22,0.0,0.0,60,0.00,,---,0.00,VWS V14.01,2013-01-14 18:28:00,
2013-01-14 13:29:00,78.6,63.6,30.18,ENE,68,0.0,0.0,60,0.00,,---,0.00,VWS V14.01,2013-01-14 18:29:00,
2013-01-14 13:30:00,78.6,63.6,30.18,ESE,112,0.0,0.0,60,0.00,,---,0.00,VWS V14.01,2013-01-14 18:30:00,
2013-01-14 13:31:00,78.6,63.6,30.18,ESE,112,0.0,0.0,60,0.00,,---,0.00,VWS V14.01,2013-01-14 18:31:00,
2013-01-14 13:32:00,82.2,61.8,30.15,SE,135,0.0,0.0,50,0.00,,---,0.00,VWS V14.01,2013-01-14 18:32:00,
2013-01-14 13:33:00,78.8,63.8,30.15,ESE,112,0.0,0.0,60,0.00,,---,0.00,VWS V14.01,2013-01-14 18:33:00,
2013-01-14 13:34:00,78.6,63.6,30.15,East,90,0.0,0.0,60,0.00,,---,0.00,VWS V14.01,2013-01-14 18:34:00,
2013-01-14 13:35:00,78.4,62.9,30.15,NE,45,0.0,0.0,59,0.00,,---,0.00,VWS V14.01,2013-01-14 18:35:00,
2013-01-14 13:36:00,78.4,63.4,30.15,SE,135,0.0,0.0,60,0.00,,---,0.00,VWS V14.01,2013-01-14 18:36:00,
2013-01-14 13:37:00,84.7,62.9,30.15,SSE,158,0.0,0.0,48,0.00,,---,0.00,VWS V14.01,2013-01-14 18:37:00,
2013-01-14 13:38:00,79.2,64.1,30.15,ENE,68,0.0,0.0,60,0.00,,---,0.00,VWS V14.01,2013-01-14 18:38:00,
2013-01-14 13:39:00,79.3,64.7,30.15,SSE,158,0.0,0.0,61,0.00,,---,0.00,VWS V14.01,2013-01-14 18:39:00,
2013-01-14 13:40:00,80.2,65.6,30.15,NE,45,0.0,0.0,61,0.00,,---,0.00,VWS V14.01,2013-01-14 18:40:00,
2013-01-14 13:41:00,80.8,65.1,30.15,SE,135,0.0,0.0,59,0.00,,---,0.00,VWS V14.01,2013-01-14 18:41:00,
2013-01-14 13:42:00,84.9,61.8,30.15,ENE,68,0.0,0.0,46,0.00,,---,0.00,VWS V14.01,2013-01-14 18:42:00,
2013-01-14 13:43:00,81.7,65.5,30.15,SE,135,0.0,0.0,58,0.00,,---,0.00,VWS V14.01,2013-01-14 18:43:00,
2013-01-14 13:44:00,81.7,64.0,30.15,SSE,158,0.0,0.0,55,0.00,,---,0.00,VWS V14.01,2013-01-14 18:44:00,
2013-01-14 13:45:00,81.5,64.3,30.15,ESE,112,0.0,0.0,56,0.00,,---,0.00,VWS V14.01,2013-01-14 18:45:00,
2013-01-14 13:46:00,81.1,63.5,30.15,ENE,68,0.0,0.0,55,0.00,,---,0.00,VWS V14.01,2013-01-14 18:46:00,
2013-01-14 13:47:00,82.8,61.1,30.15,ESE,112,0.0,0.0,48,0.00,,---,0.00,VWS V14.01,2013-01-14 18:47:00,
2013-01-14 13:48:00,80.4,62.8,30.12,ENE,68,0.0,0.0,55,0.00,,---,0.00,VWS V14.01,2013-01-14 18:48:00,
2013-01-14 13:49:00,80.1,63.0,30.12,ESE,112,0.0,0.0,56,0.00,,---,0.00,VWS V14.01,2013-01-14 18:49:00,
2013-01-14 13:50:00,79.5,62.5,30.12,NNE,22,0.0,0.0,56,0.00,,---,0.00,VWS V14.01,2013-01-14 18:50:00,
2013-01-14 13:51:00,79.5,63.0,30.12,ESE,112,0.0,0.0,57,0.00,,---,0.00,VWS V14.01,2013-01-14 18:51:00,
2013-01-14 13:52:00,82.8,61.1,30.15,SSE,158,0.0,0.0,48,0.00,,---,0.00,VWS V14.01,2013-01-14 18:52:00,
2013-01-14 13:53:00,80.1,64.0,30.12,ENE,68,0.0,0.0,58,0.00,,---,0.00,VWS V14.01,2013-01-14 18:53:00,
2013-01-14 13:54:00,80.6,64.0,30.12,ESE,112,0.0,0.0,57,0.00,,---,0.00,VWS V14.01,2013-01-14 18:54:00,
2013-01-14 13:55:00,81.3,64.7,30.12,ESE,112,0.0,0.0,57,0.00,,---,0.00,VWS V14.01,2013-01-14 18:55:00,
2013-01-14 13:56:00,81.3,64.7,30.12,ENE,68,0.0,0.0,57,0.00,,---,0.00,VWS V14.01,2013-01-14 18:56:00,
2013-01-14 13:57:00,83.7,62.5,30.15,SSE,158,0.0,0.0,49,0.00,,---,0.00,VWS V14.01,2013-01-14 18:57:00,
2013-01-14 13:58:00,83.1,65.3,30.12,SSE,158,0.0,0.0,55,0.00,,---,0.00,VWS V14.01,2013-01-14 18:58:00,
2013-01-14 13:59:00,82.9,64.1,30.12,ESE,112,0.0,0.0,53,0.00,,---,0.00,VWS V14.01,2013-01-14 18:59:00,
2013-01-14 14:00:00,82.4,62.5,30.12,SSE,158,0.0,0.0,51,0.00,,---,0.00,VWS V14.01,2013-01-14 19:00:00,
2013-01-14 14:01:00,82.2,62.9,30.12,ENE,68,0.0,0.0,52,0.00,,---,0.00,VWS V14.01,2013-01-14 19:01:00,
2013-01-14 14:02:00,85.6,61.9,30.15,SSE,158,0.0,0.0,45,0.00,,---,0.00,VWS V14.01,2013-01-14 19:02:00,
2013-01-14 14:03:00,82.0,62.1,30.15,South,180,0.0,0.0,51,0.00,,---,0.00,VWS V14.01,2013-01-14 19:03:00,
2013-01-14 14:04:00,82.4,62.5,30.15,SSE,158,0.0,0.0,51,0.00,,---,0.00,VWS V14.01,2013-01-14 19:04:00,
2013-01-14 14:05:00,82.9,62.4,30.15,SE,135,0.0,0.0,50,0.00,,---,0.00,VWS V14.01,2013-01-14 19:05:00,
2013-01-14 14:06:00,83.3,62.7,30.15,ENE,68,0.0,0.0,50,0.00,,---,0.00,VWS V14.01,2013-01-14 19:06:00,
2013-01-14 14:07:00,86.2,61.1,30.15,SSE,158,0.0,0.0,43,0.00,,---,0.00,VWS V14.01,2013-01-14 19:07:00,
2013-01-14 14:08:00,84.0,63.4,30.15,SE,135,0.0,0.0,50,0.00,,---,0.00,VWS V14.01,2013-01-14 19:08:00,
2013-01-14 14:09:00,84.6,63.9,30.15,NE,45,0.0,0.0,50,0.00,,---,0.00,VWS V14.01,2013-01-14 19:09:00,
2013-01-14 14:10:00,84.4,62.0,30.15,ESE,112,0.0,0.0,47,0.00,,---,0.00,VWS V14.01,2013-01-14 19:10:00,
2013-01-14 14:11:00,84.4,62.6,30.15,SSE,158,0.0,0.0,48,0.00,,---,0.00,VWS V14.01,2013-01-14 19:11:00,
2013-01-14 14:12:00,85.5,61.1,30.15,ESE,112,0.0,0.0,44,0.00,,---,0.00,VWS V14.01,2013-01-14 19:12:00,
2013-01-14 14:13:00,83.3,60.4,30.15,SSE,158,0.0,0.0,46,0.00,,---,0.00,VWS V14.01,2013-01-14 19:13:00,
2013-01-14 14:14:00,83.1,60.2,30.15,SSE,158,0.0,0.0,46,0.00,,---,0.00,VWS V14.01,2013-01-14 19:14:00,
2013-01-14 14:15:00,82.9,60.7,30.15,SSE,158,0.0,0.0,47,0.00,,---,0.00,VWS V14.01,2013-01-14 19:15:00,
2013-01-14 14:16:00,83.3,61.0,30.15,SSE,158,0.0,0.0,47,0.00,,---,0.00,VWS V14.01,2013-01-14 19:16:00,
2013-01-14 14:17:00,83.3,60.4,30.15,SSE,158,0.0,0.0,46,0.00,,---,0.00,VWS V14.01,2013-01-14 19:17:00,
2013-01-14 14:18:00,83.3,61.0,30.15,SSE,158,0.0,0.0,47,0.00,,---,0.00,VWS V14.01,2013-01-14 19:18:00,
2013-01-14 14:19:00,83.5,61.2,30.15,ESE,112,0.0,0.0,47,0.00,,---,0.00,VWS V14.01,2013-01-14 19:19:00,
2013-01-14 14:20:00,83.7,61.3,30.15,SE,135,0.0,0.0,47,0.00,,---,0.00,VWS V14.01,2013-01-14 19:20:00,
2013-01-14 14:21:00,83.7,61.3,30.15,SE,135,0.0,0.0,47,0.00,,---,0.00,VWS V14.01,2013-01-14 19:21:00,
2013-01-14 14:22:00,82.2,60.6,30.15,SE,135,0.0,0.0,48,0.00,,---,0.00,VWS V14.01,2013-01-14 19:22:00,
2013-01-14 14:23:00,83.1,61.4,30.15,ENE,68,0.0,0.0,48,0.00,,---,0.00,VWS V14.01,2013-01-14 19:23:00,
2013-01-14 14:24:00,82.8,61.1,30.15,ESE,112,0.0,0.0,48,0.00,,---,0.00,VWS V14.01,2013-01-14 19:24:00,
2013-01-14 14:25:00,82.4,60.8,30.15,WSW,248,0.0,0.0,48,0.00,,---,0.00,VWS V14.01,2013-01-14 19:25:00,
2013-01-14 14:26:00,82.2,60.6,30.15,SSE,158,0.0,0.0,48,0.00,,---,0.00,VWS V14.01,2013-01-14 19:26:00,
2013-01-14 14:27:00,82.0,61.0,30.15,ENE,68,0.0,0.0,49,0.00,,---,0.00,VWS V14.01,2013-01-14 19:27:00,
2013-01-14 14:28:00,82.0,59.8,30.15,SSE,158,0.0,0.0,47,0.00,,---,0.00,VWS V14.01,2013-01-14 19:28:00,
2013-01-14 14:29:00,81.7,60.7,30.15,South,180,0.0,0.0,49,0.00,,---,0.00,VWS V14.01,2013-01-14 19:29:00,
2013-01-14 14:30:00,81.7,60.7,30.15,SSE,158,0.0,0.0,49,0.00,,---,0.00,VWS V14.01,2013-01-14 19:30:00,
2013-01-14 14:31:00,81.5,59.9,30.15,SSE,158,0.0,0.0,48,0.00,,---,0.00,VWS V14.01,2013-01-14 19:31:00,
2013-01-14 14:32:00,82.6,62.1,30.15,ESE,112,0.0,0.0,50,0.00,,---,0.00,VWS V14.01,2013-01-14 19:32:00,
2013-01-14 14:33:00,81.1,60.2,30.15,SE,135,0.0,0.0,49,0.00,,---,0.00,VWS V14.01,2013-01-14 19:33:00,
2013-01-14 14:34:00,81.0,60.0,30.15,ENE,68,0.0,0.0,49,0.00,,---,0.00,VWS V14.01,2013-01-14 19:34:00,
2013-01-14 14:35:00,81.0,60.0,30.15,SE,135,0.0,0.0,49,0.00,,---,0.00,VWS V14.01,2013-01-14 19:35:00,
2013-01-14 14:36:00,81.0,60.6,30.15,SE,135,0.0,0.0,50,0.00,,---,0.00,VWS V14.01,2013-01-14 19:36:00,
2013-01-14 14:37:00,81.1,61.9,30.15,ESE,112,0.0,0.0,52,0.00,,---,0.00,VWS V14.01,2013-01-14 19:37:00,
2013-01-14 14:38:00,82.4,61.9,30.15,SSE,158,0.0,0.0,50,0.00,,---,0.00,VWS V14.01,2013-01-14 19:38:00,
2013-01-14 14:39:00,83.5,63.5,30.15,East,90,0.0,0.0,51,0.00,,---,0.00,VWS V14.01,2013-01-14 19:39:00,
2013-01-14 14:40:00,84.4,63.7,30.15,SSE,158,0.0,0.0,50,0.00,,---,0.00,VWS V14.01,2013-01-14 19:40:00,
2013-01-14 14:41:00,84.4,63.7,30.15,SSW,202,0.0,0.0,50,0.00,,---,0.00,VWS V14.01,2013-01-14 19:41:00,
2013-01-14 14:42:00,82.0,61.6,30.15,ESE,112,0.0,0.0,50,0.00,,---,0.00,VWS V14.01,2013-01-14 19:42:00,
2013-01-14 14:43:00,84.6,62.1,30.15,SE,135,0.0,0.0,47,0.00,,---,0.00,VWS V14.01,2013-01-14 19:43:00,
2013-01-14 14:44:00,84.2,61.2,30.15,SE,135,0.0,0.0,46,0.00,,---,0.00,VWS V14.01,2013-01-14 19:44:00,
2013-01-14 14:45:00,83.7,61.3,30.15,South,180,0.0,0.0,47,0.00,,---,0.00,VWS V14.01,2013-01-14 19:45:00,
2013-01-14 14:46:00,83.5,61.2,30.15,ESE,112,0.0,0.0,47,0.00,,---,0.00,VWS V14.01,2013-01-14 19:46:00,
2013-01-14 14:47:00,82.2,61.2,30.15,SSE,158,0.0,0.0,49,0.00,,---,0.00,VWS V14.01,2013-01-14 19:47:00,
2013-01-14 14:48:00,82.8,61.1,30.15,ENE,68,0.0,0.0,48,0.00,,---,0.00,VWS V14.01,2013-01-14 19:48:00,
2013-01-14 14:49:00,82.4,61.3,30.15,NE,45,0.0,0.0,49,0.00,,---,0.00,VWS V14.01,2013-01-14 19:49:00,
2013-01-14 14:50:00,81.9,60.8,30.15,ENE,68,0.0,0.0,49,0.00,,---,0.00,VWS V14.01,2013-01-14 19:50:00,
2013-01-14 14:51:00,81.5,61.1,30.15,SSE,158,0.0,0.0,50,0.00,,---,0.00,VWS V14.01,2013-01-14 19:51:00,
2013-01-14 14:52:00,80.6,60.8,30.15,ENE,68,0.0,0.0,51,0.00,,---,0.00,VWS V14.01,2013-01-14 19:52:00,
2013-01-14 14:53:00,81.7,61.8,30.15,SSW,202,0.0,0.0,51,0.00,,---,0.00,VWS V14.01,2013-01-14 19:53:00,
2013-01-14 14:54:00,81.7,61.8,30.15,ESE,112,0.0,0.0,51,0.00,,---,0.00,VWS V14.01,2013-01-14 19:54:00,
2013-01-14 14:55:00,81.9,62.0,30.15,East,90,0.0,0.0,51,0.00,,---,0.00,VWS V14.01,2013-01-14 19:55:00,
2013-01-14 14:56:00,81.9,62.0,30.15,SSE,158,0.0,0.0,51,0.00,,---,0.00,VWS V14.01,2013-01-14 19:56:00,
2013-01-14 14:57:00,79.3,60.7,30.15,SSE,158,0.0,0.0,53,0.00,,---,0.00,VWS V14.01,2013-01-14 19:57:00,
2013-01-14 14:58:00,82.2,61.8,30.15,ENE,68,0.0,0.0,50,0.00,,---,0.00,VWS V14.01,2013-01-14 19:58:00,
2013-01-14 14:59:00,82.8,61.7,30.15,SSE,158,0.0,0.0,49,0.00,,---,0.00,VWS V14.01,2013-01-14 19:59:00,
2013-01-14 15:00:00,83.5,62.9,30.15,East,90,0.0,0.0,50,0.00,,---,0.00,VWS V14.01,2013-01-14 20:00:00,
2013-01-14 15:01:00,84.2,63.0,30.15,SE,135,0.0,0.0,49,0.00,,---,0.00,VWS V14.01,2013-01-14 20:01:00,
2013-01-14 15:02:00,79.3,60.7,30.15,ENE,68,0.0,0.0,53,0.00,,---,0.00,VWS V14.01,2013-01-14 20:02:00,
2013-01-14 15:03:00,84.7,62.9,30.15,South,180,0.0,0.0,48,0.00,,---,0.00,VWS V14.01,2013-01-14 20:03:00,
2013-01-14 15:04:00,84.9,62.5,30.15,ESE,112,0.0,0.0,47,0.00,,---,0.00,VWS V14.01,2013-01-14 20:04:00,
2013-01-14 15:05:00,85.3,62.2,30.15,SSE,158,0.0,0.0,46,0.00,,---,0.00,VWS V14.01,2013-01-14 20:05:00,
2013-01-14 15:06:00,84.9,61.8,30.15,SSE,158,0.0,0.0,46,0.00,,---,0.00,VWS V14.01,2013-01-14 20:06:00,
2013-01-14 15:07:00,79.0,62.0,30.15,ENE,68,0.0,0.0,56,0.00,,---,0.00,VWS V14.01,2013-01-14 20:07:00,
2013-01-14 15:08:00,84.6,62.1,30.15,ESE,112,0.0,0.0,47,0.00,,---,0.00,VWS V14.01,2013-01-14 20:08:00,
2013-01-14 15:09:00,84.0,61.6,30.15,ESE,112,0.0,0.0,47,0.00,,---,0.00,VWS V14.01,2013-01-14 20:09:00,
2013-01-14 15:10:00,83.7,61.3,30.15,ENE,68,0.0,0.0,47,0.00,,---,0.00,VWS V14.01,2013-01-14 20:10:00,
2013-01-14 15:11:00,82.9,60.0,30.15,SSE,158,0.0,0.0,46,0.00,,---,0.00,VWS V14.01,2013-01-14 20:11:00,
2013-01-14 15:12:00,78.4,62.0,30.15,SE,135,0.0,0.0,57,0.00,,---,0.00,VWS V14.01,2013-01-14 20:12:00,
2013-01-14 15:13:00,82.8,61.1,30.15,NE,45,0.0,0.0,48,0.00,,---,0.00,VWS V14.01,2013-01-14 20:13:00,
2013-01-14 15:14:00,82.9,61.2,30.15,ESE,112,0.0,0.0,48,0.00,,---,0.00,VWS V14.01,2013-01-14 20:14:00,
2013-01-14 15:15:00,83.1,61.4,30.15,SSE,158,0.0,0.0,48,0.00,,---,0.00,VWS V14.01,2013-01-14 20:15:00,
2013-01-14 15:16:00,82.9,60.7,30.15,SSE,158,0.0,0.0,47,0.00,,---,0.00,VWS V14.01,2013-01-14 20:16:00,
2013-01-14 15:17:00,78.1,62.1,30.15,ENE,68,0.0,0.0,58,0.00,,---,0.00,VWS V14.01,2013-01-14 20:17:00,
2013-01-14 15:18:00,82.9,61.2,30.15,ENE,68,0.0,0.0,48,0.00,,---,0.00,VWS V14.01,2013-01-14 20:18:00,
2013-01-14 15:19:00,83.1,60.8,30.15,SSE,158,0.0,0.0,47,0.00,,---,0.00,VWS V14.01,2013-01-14 20:19:00,
2013-01-14 15:20:00,82.9,60.0,30.15,ESE,112,0.0,0.0,46,0.00,,---,0.00,VWS V14.01,2013-01-14 20:20:00,
2013-01-14 15:21:00,83.3,61.6,30.15,ESE,112,0.0,0.0,48,0.00,,---,0.00,VWS V14.01,2013-01-14 20:21:00,
2013-01-14 15:22:00,78.3,62.8,30.15,North,0,0.0,0.0,59,0.00,,---,0.00,VWS V14.01,2013-01-14 20:22:00,
2013-01-14 15:23:00,84.2,61.8,30.15,ESE,112,0.0,0.0,47,0.00,,---,0.00,VWS V14.01,2013-01-14 20:23:00,
2013-01-14 15:24:00,84.7,62.3,30.15,SSE,158,0.0,0.0,47,0.00,,---,0.00,VWS V14.01,2013-01-14 20:24:00,
2013-01-14 15:25:00,85.1,62.6,30.15,ESE,112,0.0,0.0,47,0.00,,---,0.00,VWS V14.01,2013-01-14 20:25:00,
2013-01-14 15:26:00,85.5,62.3,30.15,ESE,112,0.0,0.0,46,0.00,,---,0.00,VWS V14.01,2013-01-14 20:26:00,
2013-01-14 15:27:00,79.3,62.8,30.15,SE,135,0.0,0.0,57,0.00,,---,0.00,VWS V14.01,2013-01-14 20:27:00,
2013-01-14 15:28:00,86.4,63.2,30.15,SSE,158,0.0,0.0,46,0.00,,---,0.00,VWS V14.01,2013-01-14 20:28:00,
2013-01-14 15:29:00,86.5,62.7,30.15,ESE,112,0.0,0.0,45,0.00,,---,0.00,VWS V14.01,2013-01-14 20:29:00,
2013-01-14 15:30:00,86.7,62.2,30.15,SSE,158,0.0,0.0,44,0.00,,---,0.00,VWS V14.01,2013-01-14 20:30:00,
2013-01-14 15:31:00,86.5,61.4,30.15,SSW,202,0.0,0.0,43,0.00,,---,0.00,VWS V14.01,2013-01-14 20:31:00,
2013-01-14 15:32:00,78.8,62.3,30.15,ENE,68,0.0,0.0,57,0.00,,---,0.00,VWS V14.01,2013-01-14 20:32:00,
2013-01-14 15:33:00,86.0,60.9,30.15,South,180,0.0,0.0,43,0.00,,---,0.00,VWS V14.01,2013-01-14 20:33:00,
2013-01-14 15:34:00,86.2,61.7,30.15,East,90,0.0,0.0,44,0.00,,---,0.00,VWS V14.01,2013-01-14 20:34:00,
2013-01-14 15:35:00,86.2,61.7,30.15,SE,135,0.0,0.0,44,0.00,,---,0.00,VWS V14.01,2013-01-14 20:35:00,
2013-01-14 15:36:00,85.6,61.9,30.15,ESE,112,0.0,0.0,45,0.00,,---,0.00,VWS V14.01,2013-01-14 20:36:00,
2013-01-14 15:37:00,78.6,62.6,30.15,SE,135,0.0,0.0,58,0.00,,---,0.00,VWS V14.01,2013-01-14 20:37:00,
2013-01-14 15:38:00,85.3,61.6,30.15,ENE,68,0.0,0.0,45,0.00,,---,0.00,VWS V14.01,2013-01-14 20:38:00,
2013-01-14 15:39:00,84.9,61.2,30.15,ENE,68,0.0,0.0,45,0.00,,---,0.00,VWS V14.01,2013-01-14 20:39:00,
2013-01-14 15:40:00,84.4,60.7,30.15,ESE,112,0.0,0.0,45,0.00,,---,0.00,VWS V14.01,2013-01-14 20:40:00,
2013-01-14 15:41:00,83.8,60.2,30.15,East,90,0.0,0.0,45,0.00,,---,0.00,VWS V14.01,2013-01-14 20:41:00,
2013-01-14 15:42:00,79.0,62.5,30.15,East,90,0.0,0.0,57,0.00,,---,0.00,VWS V14.01,2013-01-14 20:42:00,
2013-01-14 15:43:00,82.9,60.0,30.15,SE,135,0.0,0.0,46,0.00,,---,0.00,VWS V14.01,2013-01-14 20:43:00,
2013-01-14 15:44:00,82.9,60.0,30.15,SSW,202,0.0,0.0,46,0.00,,---,0.00,VWS V14.01,2013-01-14 20:44:00,
2013-01-14 15:45:00,82.6,60.3,30.15,ESE,112,0.0,0.0,47,0.00,,---,0.00,VWS V14.01,2013-01-14 20:45:00,
2013-01-14 15:46:00,82.4,60.2,30.15,ESE,112,0.0,0.0,47,0.00,,---,0.00,VWS V14.01,2013-01-14 20:46:00,
2013-01-14 15:47:00,77.9,62.0,30.15,SE,135,0.0,0.0,58,0.00,,---,0.00,VWS V14.01,2013-01-14 20:47:00,
2013-01-14 15:48:00,82.0,60.4,30.15,ESE,112,0.0,0.0,48,0.00,,---,0.00,VWS V14.01,2013-01-14 20:48:00,
2013-01-14 15:49:00,82.0,60.4,30.15,ESE,112,0.0,0.0,48,0.00,,---,0.00,VWS V14.01,2013-01-14 20:49:00,
2013-01-14 15:50:00,82.0,61.0,30.15,SE,135,0.0,0.0,49,0.00,,---,0.00,VWS V14.01,2013-01-14 20:50:00,
2013-01-14 15:51:00,82.0,61.0,30.15,SSE,158,0.0,0.0,49,0.00,,---,0.00,VWS V14.01,2013-01-14 20:51:00,
2013-01-14 15:52:00,77.5,62.1,30.15,ENE,68,0.0,0.0,59,0.00,,---,0.00,VWS V14.01,2013-01-14 20:52:00,
2013-01-14 15:53:00,81.9,60.8,30.15,East,90,0.0,0.0,49,0.00,,---,0.00,VWS V14.01,2013-01-14 20:53:00,
2013-01-14 15:54:00,81.9,61.4,30.15,East,90,0.0,0.0,50,0.00,,---,0.00,VWS V14.01,2013-01-14 20:54:00,
2013-01-14 15:55:00,82.0,61.6,30.15,SE,135,0.0,0.0,50,0.00,,---,0.00,VWS V14.01,2013-01-14 20:55:00,
2013-01-14 15:56:00,82.6,62.1,30.15,SE,135,0.0,0.0,50,0.00,,---,0.00,VWS V14.01,2013-01-14 20:56:00,
2013-01-14 15:57:00,77.5,62.6,30.15,ENE,68,0.0,0.0,60,0.00,,---,0.00,VWS V14.01,2013-01-14 20:57:00,
2013-01-14 15:58:00,82.6,62.1,30.15,East,90,0.0,0.0,50,0.00,,---,0.00,VWS V14.01,2013-01-14 20:58:00,
2013-01-14 15:59:00,82.0,61.6,30.15,NNE,22,0.0,0.0,50,0.00,,---,0.00,VWS V14.01,2013-01-14 20:59:00,
2013-01-14 16:00:00,81.3,61.5,30.15,ENE,68,0.0,0.0,51,0.00,,---,0.00,VWS V14.01,2013-01-14 21:00:00,
2013-01-14 16:01:00,81.0,61.2,30.15,ESE,112,0.0,0.0,51,0.00,,---,0.00,VWS V14.01,2013-01-14 21:01:00,
2013-01-14 16:02:00,78.3,63.7,30.15,ENE,68,0.0,0.0,61,0.00,,---,0.00,VWS V14.01,2013-01-14 21:02:00,
2013-01-14 16:03:00,81.3,62.0,30.15,ESE,112,0.0,0.0,52,0.00,,---,0.00,VWS V14.01,2013-01-14 21:03:00,
2013-01-14 16:04:00,81.5,62.2,30.15,East,90,0.0,0.0,52,0.00,,---,0.00,VWS V14.01,2013-01-14 21:04:00,
2013-01-14 16:05:00,81.7,61.8,30.15,SE,135,0.0,0.0,51,0.00,,---,0.00,VWS V14.01,2013-01-14 21:05:00,
2013-01-14 16:06:00,81.9,62.0,30.15,East,90,0.0,0.0,51,0.00,,---,0.00,VWS V14.01,2013-01-14 21:06:00,
2013-01-14 16:07:00,77.9,62.4,30.15,SE,135,0.0,0.0,59,0.00,,---,0.00,VWS V14.01,2013-01-14 21:07:00,
2013-01-14 16:08:00,82.2,61.8,30.15,SE,135,0.0,0.0,50,0.00,,---,0.00,VWS V14.01,2013-01-14 21:08:00,
2013-01-14 16:09:00,82.4,61.9,30.15,SSE,158,0.0,0.0,50,0.00,,---,0.00,VWS V14.01,2013-01-14 21:09:00,
2013-01-14 16:10:00,82.4,62.5,30.15,SSE,158,0.0,0.0,51,0.00,,---,0.00,VWS V14.01,2013-01-14 21:10:00,
2013-01-14 16:11:00,82.4,62.5,30.15,ESE,112,0.0,0.0,51,0.00,,---,0.00,VWS V14.01,2013-01-14 21:11:00,
2013-01-14 16:12:00,77.7,62.3,30.15,ENE,68,0.0,0.0,59,0.00,,---,0.00,VWS V14.01,2013-01-14 21:12:00,
2013-01-14 16:13:00,82.2,61.2,30.15,East,90,0.0,0.0,49,0.00,,---,0.00,VWS V14.01,2013-01-14 21:13:00,
2013-01-14 16:14:00,81.3,60.9,30.15,ENE,68,0.0,0.0,50,0.00,,---,0.00,VWS V14.01,2013-01-14 21:14:00,
2013-01-14 16:15:00,81.1,60.8,30.15,ENE,68,0.0,0.0,50,0.00,,---,0.00,VWS V14.01,2013-01-14 21:15:00,
2013-01-14 16:16:00,81.1,60.8,30.15,NNE,22,0.0,0.0,50,0.00,,---,0.00,VWS V14.01,2013-01-14 21:16:00,
2013-01-14 16:17:00,77.5,62.6,30.15,SE,135,0.0,0.0,60,0.00,,---,0.00,VWS V14.01,2013-01-14 21:17:00,
2013-01-14 16:18:00,80.4,61.2,30.15,ENE,68,0.0,0.0,52,0.00,,---,0.00,VWS V14.01,2013-01-14 21:18:00,
2013-01-14 16:19:00,80.4,61.2,30.15,ENE,68,0.0,0.0,52,0.00,,---,0.00,VWS V14.01,2013-01-14 21:19:00,
2013-01-14 16:20:00,79.7,60.0,30.15,ENE,68,0.0,0.0,51,0.00,,---,0.00,VWS V14.01,2013-01-14 21:20:00,
2013-01-14 16:21:00,79.3,60.7,30.15,East,90,0.0,0.0,53,0.00,,---,0.00,VWS V14.01,2013-01-14 21:21:00,
2013-01-14 16:22:00,77.5,62.6,30.15,ENE,68,0.0,0.0,60,0.00,,---,0.00,VWS V14.01,2013-01-14 21:22:00,
2013-01-14 16:23:00,79.3,60.7,30.15,SSE,158,0.0,0.0,53,0.00,,---,0.00,VWS V14.01,2013-01-14 21:23:00,
2013-01-14 16:24:00,79.3,61.3,30.15,ESE,112,0.0,0.0,54,0.00,,---,0.00,VWS V14.01,2013-01-14 21:24:00,
2013-01-14 16:25:00,79.3,61.3,30.15,SSE,158,0.0,0.0,54,0.00,,---,0.00,VWS V14.01,2013-01-14 21:25:00,
2013-01-14 16:26:00,79.3,60.7,30.15,ESE,112,0.0,0.0,53,0.00,,---,0.00,VWS V14.01,2013-01-14 21:26:00,
2013-01-14 16:27:00,77.2,62.2,30.15,ESE,112,0.0,0.0,60,0.00,,---,0.00,VWS V14.01,2013-01-14 21:27:00,
2013-01-14 16:28:00,79.3,60.7,30.15,SSE,158,0.0,0.0,53,0.00,,---,0.00,VWS V14.01,2013-01-14 21:28:00,
2013-01-14 16:29:00,79.3,60.7,30.15,East,90,0.0,0.0,53,0.00,,---,0.00,VWS V14.01,2013-01-14 21:29:00,
2013-01-14 16:30:00,79.3,61.8,30.15,NE,45,0.0,0.0,55,0.00,,---,0.00,VWS V14.01,2013-01-14 21:30:00,
2013-01-14 16:31:00,79.2,62.1,30.15,East,90,0.0,0.0,56,0.00,,---,0.00,VWS V14.01,2013-01-14 21:31:00,
2013-01-14 16:32:00,77.0,62.1,30.15,SE,135,0.0,0.0,60,0.00,,---,0.00,VWS V14.01,2013-01-14 21:32:00,
2013-01-14 16:33:00,79.0,62.0,30.15,NNE,22,0.0,0.0,56,0.00,,---,0.00,VWS V14.01,2013-01-14 21:33:00,
2013-01-14 16:34:00,79.0,62.0,30.15,NNE,22,0.0,0.0,56,0.00,,---,0.00,VWS V14.01,2013-01-14 21:34:00,
2013-01-14 16:35:00,78.8,61.8,30.15,ENE,68,0.0,0.0,56,0.00,,---,0.00,VWS V14.01,2013-01-14 21:35:00,
2013-01-14 16:36:00,78.8,62.3,30.15,ENE,68,0.0,0.0,57,0.00,,---,0.00,VWS V14.01,2013-01-14 21:36:00,
2013-01-14 16:37:00,76.8,62.4,30.12,East,90,0.0,0.0,61,0.00,,---,0.00,VWS V14.01,2013-01-14 21:37:00,
2013-01-14 16:38:00,78.4,62.0,30.15,SSE,158,0.0,0.0,57,0.00,,---,0.00,VWS V14.01,2013-01-14 21:38:00,
2013-01-14 16:39:00,78.6,62.6,30.15,ENE,68,0.0,0.0,58,0.00,,---,0.00,VWS V14.01,2013-01-14 21:39:00,
2013-01-14 16:40:00,78.4,62.5,30.15,ESE,112,0.0,0.0,58,0.00,,---,0.00,VWS V14.01,2013-01-14 21:40:00,
2013-01-14 16:41:00,78.4,62.5,30.15,NE,45,0.0,0.0,58,0.00,,---,0.00,VWS V14.01,2013-01-14 21:41:00,
2013-01-14 16:42:00,76.6,62.2,30.12,ESE,112,0.0,0.0,61,0.00,,---,0.00,VWS V14.01,2013-01-14 21:42:00,
2013-01-14 16:43:00,78.1,62.1,30.15,NE,45,0.0,0.0,58,0.00,,---,0.00,VWS V14.01,2013-01-14 21:43:00,
2013-01-14 16:44:00,78.1,62.1,30.15,ENE,68,0.0,0.0,58,0.00,,---,0.00,VWS V14.01,2013-01-14 21:44:00,
2013-01-14 16:45:00,77.9,62.0,30.15,ENE,68,0.0,0.0,58,0.00,,---,0.00,VWS V14.01,2013-01-14 21:45:00,
2013-01-14 16:46:00,78.1,62.6,30.15,SE,135,0.0,0.0,59,0.00,,---,0.00,VWS V14.01,2013-01-14 21:46:00,
2013-01-14 16:47:00,76.3,61.9,30.12,ESE,112,0.0,0.0,61,0.00,,---,0.00,VWS V14.01,2013-01-14 21:47:00,
2013-01-14 16:48:00,78.6,63.1,30.15,ESE,112,0.0,0.0,59,0.00,,---,0.00,VWS V14.01,2013-01-14 21:48:00,
2013-01-14 16:49:00,78.8,62.8,30.15,ESE,112,0.0,0.0,58,0.00,,---,0.00,VWS V14.01,2013-01-14 21:49:00,
2013-01-14 16:50:00,79.2,63.1,30.15,SSE,158,0.0,0.0,58,0.00,,---,0.00,VWS V14.01,2013-01-14 21:50:00,
2013-01-14 16:51:00,79.3,63.3,30.15,SSE,158,0.0,0.0,58,0.00,,---,0.00,VWS V14.01,2013-01-14 21:51:00,
2013-01-14 16:52:00,75.9,62.0,30.15,SSE,158,0.0,0.0,62,0.00,,---,0.00,VWS V14.01,2013-01-14 21:52:00,
2013-01-14 16:53:00,79.5,63.0,30.15,SE,135,0.0,0.0,57,0.00,,---,0.00,VWS V14.01,2013-01-14 21:53:00,
2013-01-14 16:54:00,79.7,63.1,30.15,ESE,112,0.0,0.0,57,0.00,,---,0.00,VWS V14.01,2013-01-14 21:54:00,
2013-01-14 16:55:00,79.7,63.1,30.15,ESE,112,0.0,0.0,57,0.00,,---,0.00,VWS V14.01,2013-01-14 21:55:00,
2013-01-14 16:56:00,79.3,62.8,30.15,ESE,112,0.0,0.0,57,0.00,,---,0.00,VWS V14.01,2013-01-14 21:56:00,
2013-01-14 16:57:00,75.7,62.3,30.15,SE,135,0.0,0.0,63,0.00,,---,0.00,VWS V14.01,2013-01-14 21:57:00,
2013-01-14 16:58:00,78.8,62.3,30.15,SSE,158,0.0,0.0,57,0.00,,---,0.00,VWS V14.01,2013-01-14 21:58:00,
2013-01-14 16:59:00,78.8,62.3,30.15,ESE,112,0.0,0.0,57,0.00,,---,0.00,VWS V14.01,2013-01-14 21:59:00,
2013-01-14 17:00:00,78.6,62.1,30.15,NE,45,0.0,0.0,57,0.00,,---,0.00,VWS V14.01,2013-01-14 22:00:00,
2013-01-14 17:01:00,78.6,62.6,30.15,ENE,68,0.0,0.0,58,0.00,,---,0.00,VWS V14.01,2013-01-14 22:01:00,
2013-01-14 17:02:00,75.6,62.1,30.15,ESE,112,0.0,0.0,63,0.00,,---,0.00,VWS V14.01,2013-01-14 22:02:00,
2013-01-14 17:03:00,78.8,62.3,30.15,ESE,112,0.0,0.0,57,0.00,,---,0.00,VWS V14.01,2013-01-14 22:03:00,
2013-01-14 17:04:00,79.0,62.5,30.15,ESE,112,0.0,0.0,57,0.00,,---,0.00,VWS V14.01,2013-01-14 22:04:00,
2013-01-14 17:05:00,79.2,62.6,30.15,ENE,68,0.0,0.0,57,0.00,,---,0.00,VWS V14.01,2013-01-14 22:05:00,
2013-01-14 17:06:00,79.3,63.3,30.15,NE,45,0.0,0.0,58,0.00,,---,0.00,VWS V14.01,2013-01-14 22:06:00,
2013-01-14 17:07:00,75.2,62.2,30.15,SE,135,0.0,0.0,64,0.00,,---,0.00,VWS V14.01,2013-01-14 22:07:00,
2013-01-14 17:08:00,79.0,62.5,30.15,SSE,158,0.0,0.0,57,0.00,,---,0.00,VWS V14.01,2013-01-14 22:08:00,
2013-01-14 17:09:00,78.8,62.3,30.15,East,90,0.0,0.0,57,0.00,,---,0.00,VWS V14.01,2013-01-14 22:09:00,
2013-01-14 17:10:00,78.6,62.1,30.15,ENE,68,0.0,0.0,57,0.00,,---,0.00,VWS V14.01,2013-01-14 22:10:00,
2013-01-14 17:11:00,78.3,61.8,30.15,ESE,112,0.0,0.0,57,0.00,,---,0.00,VWS V14.01,2013-01-14 22:11:00,
2013-01-14 17:12:00,74.8,62.3,30.15,SSE,158,0.0,0.0,65,0.00,,---,0.00,VWS V14.01,2013-01-14 22:12:00,
2013-01-14 17:13:00,77.9,62.0,30.15,ENE,68,0.0,0.0,58,0.00,,---,0.00,VWS V14.01,2013-01-14 22:13:00,
2013-01-14 17:14:00,77.9,62.0,30.15,ESE,112,0.0,0.0,58,0.00,,---,0.00,VWS V14.01,2013-01-14 22:14:00,
2013-01-14 17:15:00,77.5,61.6,30.15,NE,45,0.0,0.0,58,0.00,,---,0.00,VWS V14.01,2013-01-14 22:15:00,
2013-01-14 17:16:00,77.5,61.6,30.15,ENE,68,0.0,0.0,58,0.00,,---,0.00,VWS V14.01,2013-01-14 22:16:00,
2013-01-14 17:17:00,74.8,62.7,30.15,NNE,22,0.0,0.0,66,0.00,,---,0.00,VWS V14.01,2013-01-14 22:17:00,
2013-01-14 17:18:00,77.5,62.1,30.15,East,90,0.0,0.0,59,0.00,,---,0.00,VWS V14.01,2013-01-14 22:18:00,
2013-01-14 17:19:00,77.5,62.1,30.15,East,90,0.0,0.0,59,0.00,,---,0.00,VWS V14.01,2013-01-14 22:19:00,
2013-01-14 17:20:00,77.5,62.1,30.15,ESE,112,0.0,0.0,59,0.00,,---,0.00,VWS V14.01,2013-01-14 22:20:00,
2013-01-14 17:21:00,77.5,62.6,30.15,ENE,68,0.0,0.0,60,0.00,,---,0.00,VWS V14.01,2013-01-14 22:21:00,
2013-01-14 17:22:00,74.7,63.0,30.15,SE,135,0.0,0.0,67,0.00,,---,0.00,VWS V14.01,2013-01-14 22:22:00,
2013-01-14 17:23:00,77.7,62.7,30.15,ESE,112,0.0,0.0,60,0.00,,---,0.00,VWS V14.01,2013-01-14 22:23:00,
2013-01-14 17:24:00,77.7,63.2,30.15,South,180,0.0,0.0,61,0.00,,---,0.00,VWS V14.01,2013-01-14 22:24:00,
2013-01-14 17:25:00,77.9,63.4,30.15,SSE,158,0.0,0.0,61,0.00,,---,0.00,VWS V14.01,2013-01-14 22:25:00,
2013-01-14 17:26:00,77.9,63.4,30.15,East,90,0.0,0.0,61,0.00,,---,0.00,VWS V14.01,2013-01-14 22:26:00,
2013-01-14 17:27:00,73.9,62.7,30.18,ESE,112,0.0,0.0,68,0.00,,---,0.00,VWS V14.01,2013-01-14 22:27:00,
2013-01-14 17:28:00,78.3,63.7,30.15,ESE,112,0.0,0.0,61,0.00,,---,0.00,VWS V14.01,2013-01-14 22:28:00,
2013-01-14 17:29:00,78.3,63.2,30.15,SSE,158,0.0,0.0,60,0.00,,---,0.00,VWS V14.01,2013-01-14 22:29:00,
2013-01-14 17:30:00,78.3,62.8,30.15,ESE,112,0.0,0.0,59,0.00,,---,0.00,VWS V14.01,2013-01-14 22:30:00,
2013-01-14 17:31:00,77.9,62.4,30.15,ESE,112,0.0,0.0,59,0.00,,---,0.00,VWS V14.01,2013-01-14 22:31:00,
2013-01-14 17:32:00,73.6,63.2,30.18,East,90,0.0,0.0,70,0.00,,---,0.00,VWS V14.01,2013-01-14 22:32:00,
2013-01-14 17:33:00,77.9,62.4,30.15,ENE,68,0.0,0.0,59,0.00,,---,0.00,VWS V14.01,2013-01-14 22:33:00,
2013-01-14 17:34:00,77.9,62.4,30.15,SE,135,0.0,0.0,59,0.00,,---,0.00,VWS V14.01,2013-01-14 22:34:00,
2013-01-14 17:35:00,77.9,62.4,30.15,ENE,68,0.0,0.0,59,0.00,,---,0.00,VWS V14.01,2013-01-14 22:35:00,
2013-01-14 17:36:00,77.9,62.4,30.15,ENE,68,0.0,0.0,59,0.00,,---,0.00,VWS V14.01,2013-01-14 22:36:00,
2013-01-14 17:37:00,73.4,63.0,30.18,ESE,112,0.0,0.0,70,0.00,,---,0.00,VWS V14.01,2013-01-14 22:37:00,
2013-01-14 17:38:00,77.7,62.3,30.15,ESE,112,0.0,0.0,59,0.00,,---,0.00,VWS V14.01,2013-01-14 22:38:00,
2013-01-14 17:39:00,77.4,61.9,30.15,ENE,68,0.0,0.0,59,0.00,,---,0.00,VWS V14.01,2013-01-14 22:39:00,
2013-01-14 17:40:00,77.4,61.9,30.15,ENE,68,0.0,0.0,59,0.00,,---,0.00,VWS V14.01,2013-01-14 22:40:00,
2013-01-14 17:41:00,77.4,61.9,30.15,NNE,22,0.0,0.0,59,0.00,,---,0.00,VWS V14.01,2013-01-14 22:41:00,
2013-01-14 17:42:00,72.9,63.3,30.18,ESE,112,0.0,0.0,72,0.00,,---,0.00,VWS V14.01,2013-01-14 22:42:00,
2013-01-14 17:43:00,77.5,62.6,30.15,ENE,68,0.0,0.0,60,0.00,,---,0.00,VWS V14.01,2013-01-14 22:43:00,
2013-01-14 17:44:00,77.5,62.6,30.15,ENE,68,0.0,0.0,60,0.00,,---,0.00,VWS V14.01,2013-01-14 22:44:00,
2013-01-14 17:45:00,77.7,62.7,30.15,ESE,112,0.0,0.0,60,0.00,,---,0.00,VWS V14.01,2013-01-14 22:45:00,
2013-01-14 17:46:00,77.5,62.6,30.15,SE,135,0.0,0.0,60,0.00,,---,0.00,VWS V14.01,2013-01-14 22:46:00,
2013-01-14 17:47:00,72.5,63.4,30.18,SE,135,0.0,0.0,73,0.00,,---,0.00,VWS V14.01,2013-01-14 22:47:00,
2013-01-14 17:48:00,77.5,62.6,30.15,ENE,68,0.0,0.0,60,0.00,,---,0.00,VWS V14.01,2013-01-14 22:48:00,
2013-01-14 17:49:00,77.5,62.6,30.15,ESE,112,0.0,0.0,60,0.00,,---,0.00,VWS V14.01,2013-01-14 22:49:00,
2013-01-14 17:50:00,77.5,62.6,30.15,NNE,22,0.0,0.0,60,0.00,,---,0.00,VWS V14.01,2013-01-14 22:50:00,
2013-01-14 17:51:00,77.4,62.9,30.15,East,90,0.0,0.0,61,0.00,,---,0.00,VWS V14.01,2013-01-14 22:51:00,
2013-01-14 17:52:00,72.1,63.0,30.18,ENE,68,0.0,0.0,73,0.00,,---,0.00,VWS V14.01,2013-01-14 22:52:00,
2013-01-14 17:53:00,77.2,62.2,30.15,ESE,112,0.0,0.0,60,0.00,,---,0.00,VWS V14.01,2013-01-14 22:53:00,
2013-01-14 17:54:00,77.0,62.1,30.15,ESE,112,0.0,0.0,60,0.00,,---,0.00,VWS V14.01,2013-01-14 22:54:00,
2013-01-14 17:55:00,77.0,62.1,30.15,South,180,0.0,0.0,60,0.00,,---,0.00,VWS V14.01,2013-01-14 22:55:00,
2013-01-14 17:56:00,77.0,62.1,30.15,East,90,0.0,0.0,60,0.00,,---,0.00,VWS V14.01,2013-01-14 22:56:00,
2013-01-14 17:57:00,71.8,63.1,30.18,ESE,112,0.0,0.0,74,0.00,,---,0.00,VWS V14.01,2013-01-14 22:57:00,
2013-01-14 17:58:00,76.8,61.9,30.15,ESE,112,0.0,0.0,60,0.00,,---,0.00,VWS V14.01,2013-01-14 22:58:00,
2013-01-14 17:59:00,76.8,61.9,30.15,SE,135,0.0,0.0,60,0.00,,---,0.00,VWS V14.01,2013-01-14 22:59:00,
2013-01-14 18:00:00,76.8,62.4,30.15,ESE,112,0.0,0.0,61,0.00,,---,0.00,VWS V14.01,2013-01-14 23:00:00,
2013-01-14 18:01:00,76.8,62.4,30.15,East,90,0.0,0.0,61,0.00,,---,0.00,VWS V14.01,2013-01-14 23:01:00,
2013-01-14 18:02:00,71.4,63.5,30.18,ENE,68,0.0,0.0,76,0.00,,---,0.00,VWS V14.01,2013-01-14 23:02:00,
2013-01-14 18:03:00,76.8,62.4,30.12,North,0,0.0,0.0,61,0.00,,---,0.00,VWS V14.01,2013-01-14 23:03:00,
2013-01-14 18:04:00,76.8,62.4,30.12,SSE,158,0.0,0.0,61,0.00,,---,0.00,VWS V14.01,2013-01-14 23:04:00,
2013-01-14 18:05:00,76.8,62.4,30.12,ESE,112,0.0,0.0,61,0.00,,---,0.00,VWS V14.01,2013-01-14 23:05:00,
2013-01-14 18:06:00,76.6,62.2,30.12,ESE,112,0.0,0.0,61,0.00,,---,0.00,VWS V14.01,2013-01-14 23:06:00,
2013-01-14 18:07:00,71.1,63.9,30.18,ENE,68,0.0,0.0,78,0.00,,---,0.00,VWS V14.01,2013-01-14 23:07:00,
2013-01-14 18:08:00,76.5,61.6,30.12,ESE,112,0.0,0.0,60,0.00,,---,0.00,VWS V14.01,2013-01-14 23:08:00,
2013-01-14 18:09:00,76.5,61.6,30.12,SE,135,0.0,0.0,60,0.00,,---,0.00,VWS V14.01,2013-01-14 23:09:00,
2013-01-14 18:10:00,76.5,62.0,30.12,SSE,158,0.0,0.0,61,0.00,,---,0.00,VWS V14.01,2013-01-14 23:10:00,
2013-01-14 18:11:00,76.3,61.9,30.12,ESE,112,0.0,0.0,61,0.00,,---,0.00,VWS V14.01,2013-01-14 23:11:00,
2013-01-14 18:12:00,70.9,64.1,30.18,ENE,68,0.0,0.0,79,0.00,,---,0.00,VWS V14.01,2013-01-14 23:12:00,
2013-01-14 18:13:00,76.3,61.9,30.12,South,180,0.0,0.0,61,0.00,,---,0.00,VWS V14.01,2013-01-14 23:13:00,
2013-01-14 18:14:00,76.1,61.7,30.12,SSE,158,0.0,0.0,61,0.00,,---,0.00,VWS V14.01,2013-01-14 23:14:00,
2013-01-14 18:15:00,76.1,62.2,30.12,SSE,158,0.0,0.0,62,0.00,,---,0.00,VWS V14.01,2013-01-14 23:15:00,
2013-01-14 18:16:00,76.1,62.2,30.12,SE,135,0.0,0.0,62,0.00,,---,0.00,VWS V14.01,2013-01-14 23:16:00,
2013-01-14 18:17:00,70.5,64.4,30.18,ENE,68,0.0,0.0,81,0.00,,---,0.00,VWS V14.01,2013-01-14 23:17:00,
2013-01-14 18:18:00,75.9,62.0,30.15,ESE,112,0.0,0.0,62,0.00,,---,0.00,VWS V14.01,2013-01-14 23:18:00,
2013-01-14 18:19:00,75.9,62.0,30.15,SSE,158,0.0,0.0,62,0.00,,---,0.00,VWS V14.01,2013-01-14 23:19:00,
2013-01-14 18:20:00,75.9,62.4,30.15,SE,135,0.0,0.0,63,0.00,,---,0.00,VWS V14.01,2013-01-14 23:20:00,
2013-01-14 18:21:00,75.9,62.4,30.15,ENE,68,0.0,0.0,63,0.00,,---,0.00,VWS V14.01,2013-01-14 23:21:00,
2013-01-14 18:22:00,70.3,64.6,30.18,ENE,68,0.0,0.0,82,0.00,,---,0.00,VWS V14.01,2013-01-14 23:22:00,
2013-01-14 18:23:00,75.6,62.1,30.15,NNE,22,0.0,0.0,63,0.00,,---,0.00,VWS V14.01,2013-01-14 23:23:00,
2013-01-14 18:24:00,75.6,62.1,30.15,SSE,158,0.0,0.0,63,0.00,,---,0.00,VWS V14.01,2013-01-14 23:24:00,
2013-01-14 18:25:00,75.6,62.1,30.15,ESE,112,0.0,0.0,63,0.00,,---,0.00,VWS V14.01,2013-01-14 23:25:00,
2013-01-14 18:26:00,75.6,62.1,30.15,ESE,112,0.0,0.0,63,0.00,,---,0.00,VWS V14.01,2013-01-14 23:26:00,
2013-01-14 18:27:00,70.0,64.6,30.18,East,90,0.0,0.0,83,0.00,,---,0.00,VWS V14.01,2013-01-14 23:27:00,
2013-01-14 18:28:00,75.4,61.9,30.15,NE,45,0.0,0.0,63,0.00,,---,0.00,VWS V14.01,2013-01-14 23:28:00,
2013-01-14 18:29:00,75.4,61.9,30.15,NNE,22,0.0,0.0,63,0.00,,---,0.00,VWS V14.01,2013-01-14 23:29:00,
2013-01-14 18:30:00,75.4,61.9,30.15,ESE,112,0.0,0.0,63,0.00,,---,0.00,VWS V14.01,2013-01-14 23:30:00,
2013-01-14 18:31:00,75.2,62.2,30.15,ESE,112,0.0,0.0,64,0.00,,---,0.00,VWS V14.01,2013-01-14 23:31:00,
2013-01-14 18:32:00,69.6,64.9,30.18,ENE,68,0.0,0.0,85,0.00,,---,0.00,VWS V14.01,2013-01-14 23:32:00,
2013-01-14 18:33:00,75.2,62.2,30.15,ESE,112,0.0,0.0,64,0.00,,---,0.00,VWS V14.01,2013-01-14 23:33:00,
2013-01-14 18:34:00,75.0,62.5,30.15,East,90,0.0,0.0,65,0.00,,---,0.00,VWS V14.01,2013-01-14 23:34:00,
2013-01-14 18:35:00,75.0,62.5,30.15,SE,135,0.0,0.0,65,0.00,,---,0.00,VWS V14.01,2013-01-14 23:35:00,
2013-01-14 18:36:00,75.0,62.5,30.15,ESE,112,0.0,0.0,65,0.00,,---,0.00,VWS V14.01,2013-01-14 23:36:00,
2013-01-14 18:37:00,69.6,65.2,30.18,ENE,68,0.0,0.0,86,0.00,,---,0.00,VWS V14.01,2013-01-14 23:37:00,
2013-01-14 18:38:00,74.8,62.7,30.15,SSE,158,0.0,0.0,66,0.00,,---,0.00,VWS V14.01,2013-01-14 23:38:00,
2013-01-14 18:39:00,74.8,62.7,30.15,SSE,158,0.0,0.0,66,0.00,,---,0.00,VWS V14.01,2013-01-14 23:39:00,
2013-01-14 18:40:00,74.8,62.7,30.15,SSE,158,0.0,0.0,66,0.00,,---,0.00,VWS V14.01,2013-01-14 23:40:00,
2013-01-14 18:41:00,74.8,62.7,30.15,ENE,68,0.0,0.0,66,0.00,,---,0.00,VWS V14.01,2013-01-14 23:41:00,
2013-01-14 18:42:00,69.3,65.2,30.18,ENE,68,0.0,0.0,87,0.00,,---,0.00,VWS V14.01,2013-01-14 23:42:00,
2013-01-14 18:43:00,74.8,63.2,30.15,ESE,112,0.0,0.0,67,0.00,,---,0.00,VWS V14.01,2013-01-14 23:43:00,
2013-01-14 18:44:00,74.7,63.0,30.15,SE,135,0.0,0.0,67,0.00,,---,0.00,VWS V14.01,2013-01-14 23:44:00,
2013-01-14 18:45:00,74.7,63.0,30.15,SE,135,0.0,0.0,67,0.00,,---,0.00,VWS V14.01,2013-01-14 23:45:00,
2013-01-14 18:46:00,74.7,63.0,30.15,ESE,112,0.0,0.0,67,0.00,,---,0.00,VWS V14.01,2013-01-14 23:46:00,
2013-01-14 18:47:00,69.3,65.6,30.18,NE,45,0.0,0.0,88,0.00,,---,0.00,VWS V14.01,2013-01-14 23:47:00,
2013-01-14 18:48:00,74.1,62.9,30.18,SSE,158,0.0,0.0,68,0.00,,---,0.00,VWS V14.01,2013-01-14 23:48:00,
2013-01-14 18:49:00,74.1,62.9,30.18,ESE,112,0.0,0.0,68,0.00,,---,0.00,VWS V14.01,2013-01-14 23:49:00,
2013-01-14 18:50:00,74.1,62.9,30.18,ENE,68,0.0,0.0,68,0.00,,---,0.00,VWS V14.01,2013-01-14 23:50:00,
2013-01-14 18:51:00,73.9,62.7,30.18,ESE,112,0.0,0.0,68,0.00,,---,0.00,VWS V14.01,2013-01-14 23:51:00,
2013-01-14 18:52:00,69.1,65.4,30.18,NE,45,0.0,0.0,88,0.00,,---,0.00,VWS V14.01,2013-01-14 23:52:00,
2013-01-14 18:53:00,73.9,62.7,30.18,SSW,202,0.0,0.0,68,0.00,,---,0.00,VWS V14.01,2013-01-14 23:53:00,
2013-01-14 18:54:00,73.8,63.0,30.18,ESE,112,0.0,0.0,69,0.00,,---,0.00,VWS V14.01,2013-01-14 23:54:00,
2013-01-14 18:55:00,73.6,62.8,30.18,ESE,112,0.0,0.0,69,0.00,,---,0.00,VWS V14.01,2013-01-14 23:55:00,
2013-01-14 18:56:00,73.6,62.8,30.18,ESE,112,0.0,0.0,69,0.00,,---,0.00,VWS V14.01,2013-01-14 23:56:00,
2013-01-14 18:57:00,68.9,65.5,30.18,ENE,68,0.0,0.0,89,0.00,,---,0.00,VWS V14.01,2013-01-14 23:57:00,
2013-01-14 18:58:00,73.4,63.0,30.18,ENE,68,0.0,0.0,70,0.00,,---,0.00,VWS V14.01,2013-01-14 23:58:00,
2013-01-14 18:59:00,73.4,63.0,30.18,ESE,112,0.0,0.0,70,0.00,,---,0.00,VWS V14.01,2013-01-14 23:59:00,
2013-01-14 19:00:00,73.4,63.0,30.18,ESE,112,0.0,0.0,70,0.00,,---,0.00,VWS V14.01,2013-01-15 00:00:00,
2013-01-14 19:01:00,73.4,63.0,30.18,SE,135,0.0,0.0,70,0.00,,---,0.00,VWS V14.01,2013-01-15 00:01:00,
2013-01-14 19:02:00,68.7,65.3,30.18,ENE,68,0.0,0.0,89,0.00,,---,0.00,VWS V14.01,2013-01-15 00:02:00,
2013-01-14 19:03:00,73.2,63.3,30.18,ESE,112,0.0,0.0,71,0.00,,---,0.00,VWS V14.01,2013-01-15 00:03:00,
2013-01-14 19:04:00,73.0,63.1,30.18,SSE,158,0.0,0.0,71,0.00,,---,0.00,VWS V14.01,2013-01-15 00:04:00,
2013-01-14 19:05:00,73.0,63.1,30.18,SE,135,0.0,0.0,71,0.00,,---,0.00,VWS V14.01,2013-01-15 00:05:00,
2013-01-14 19:06:00,72.9,62.9,30.18,ESE,112,0.0,0.0,71,0.00,,---,0.00,VWS V14.01,2013-01-15 00:06:00,
2013-01-14 19:07:00,68.7,65.3,30.18,NE,45,0.0,0.0,89,0.00,,---,0.00,VWS V14.01,2013-01-15 00:07:00,
2013-01-14 19:08:00,72.7,63.1,30.18,ESE,112,0.0,0.0,72,0.00,,---,0.00,VWS V14.01,2013-01-15 00:08:00,
2013-01-14 19:09:00,72.7,63.1,30.18,ESE,112,0.0,0.0,72,0.00,,---,0.00,VWS V14.01,2013-01-15 00:09:00,
2013-01-14 19:10:00,72.7,63.5,30.18,ESE,112,0.0,0.0,73,0.00,,---,0.00,VWS V14.01,2013-01-15 00:10:00,
2013-01-14 19:11:00,72.5,63.4,30.18,ESE,112,0.0,0.0,73,0.00,,---,0.00,VWS V14.01,2013-01-15 00:11:00,
2013-01-14 19:12:00,68.5,65.5,30.18,SE,135,0.0,0.0,90,0.00,,---,0.00,VWS V14.01,2013-01-15 00:12:00,
2013-01-14 19:13:00,72.5,63.4,30.18,NE,45,0.0,0.0,73,0.00,,---,0.00,VWS V14.01,2013-01-15 00:13:00,
2013-01-14 19:14:00,72.5,63.4,30.18,NE,45,0.0,0.0,73,0.00,,---,0.00,VWS V14.01,2013-01-15 00:14:00,
2013-01-14 19:15:00,72.3,63.2,30.18,SE,135,0.0,0.0,73,0.00,,---,0.00,VWS V14.01,2013-01-15 00:15:00,
2013-01-14 19:16:00,72.1,63.0,30.18,ESE,112,0.0,0.0,73,0.00,,---,0.00,VWS V14.01,2013-01-15 00:16:00,
2013-01-14 19:17:00,68.5,65.5,30.18,SE,135,0.0,0.0,90,0.00,,---,0.00,VWS V14.01,2013-01-15 00:17:00,
2013-01-14 19:18:00,72.0,63.2,30.18,ENE,68,0.0,0.0,74,0.00,,---,0.00,VWS V14.01,2013-01-15 00:18:00,
2013-01-14 19:19:00,72.0,63.2,30.18,NNE,22,0.0,0.0,74,0.00,,---,0.00,VWS V14.01,2013-01-15 00:19:00,
2013-01-14 19:20:00,72.0,63.2,30.18,NNE,22,0.0,0.0,74,0.00,,---,0.00,VWS V14.01,2013-01-15 00:20:00,
2013-01-14 19:21:00,71.8,63.1,30.18,ESE,112,0.0,0.0,74,0.00,,---,0.00,VWS V14.01,2013-01-15 00:21:00,
2013-01-14 19:22:00,68.4,65.3,30.18,SW,225,0.0,0.0,90,0.00,,---,0.00,VWS V14.01,2013-01-15 00:22:00,
2013-01-14 19:23:00,71.6,63.3,30.18,ESE,112,0.0,0.0,75,0.00,,---,0.00,VWS V14.01,2013-01-15 00:23:00,
2013-01-14 19:24:00,71.6,63.3,30.18,ESE,112,0.0,0.0,75,0.00,,---,0.00,VWS V14.01,2013-01-15 00:24:00,
2013-01-14 19:25:00,71.4,63.1,30.18,ESE,112,0.0,0.0,75,0.00,,---,0.00,VWS V14.01,2013-01-15 00:25:00,
2013-01-14 19:26:00,71.4,63.1,30.18,ESE,112,0.0,0.0,75,0.00,,---,0.00,VWS V14.01,2013-01-15 00:26:00,
2013-01-14 19:27:00,68.4,65.3,30.18,SSE,158,0.0,0.0,90,0.00,,---,0.00,VWS V14.01,2013-01-15 00:27:00,
2013-01-14 19:28:00,71.2,62.9,30.18,ENE,68,0.0,0.0,75,0.00,,---,0.00,VWS V14.01,2013-01-15 00:28:00,
2013-01-14 19:29:00,71.2,63.3,30.18,ENE,68,0.0,0.0,76,0.00,,---,0.00,VWS V14.01,2013-01-15 00:29:00,
2013-01-14 19:30:00,71.2,63.3,30.18,ENE,68,0.0,0.0,76,0.00,,---,0.00,VWS V14.01,2013-01-15 00:30:00,
2013-01-14 19:31:00,68.2,65.5,30.18,SSE,158,0.0,0.0,91,0.00,,---,0.00,VWS V14.01,2013-01-15 00:31:00,
2013-01-14 19:32:00,71.1,63.9,30.18,ENE,68,0.0,0.0,78,0.00,,---,0.00,VWS V14.01,2013-01-15 00:32:00,
2013-01-14 19:33:00,71.1,64.2,30.18,ENE,68,0.0,0.0,79,0.00,,---,0.00,VWS V14.01,2013-01-15 00:33:00,
2013-01-14 19:34:00,71.1,63.9,30.18,ENE,68,0.0,0.0,78,0.00,,---,0.00,VWS V14.01,2013-01-15 00:34:00,
2013-01-14 19:35:00,70.9,63.7,30.18,ENE,68,0.0,0.0,78,0.00,,---,0.00,VWS V14.01,2013-01-15 00:35:00,
2013-01-14 19:36:00,70.9,64.1,30.18,ENE,68,0.0,0.0,79,0.00,,---,0.00,VWS V14.01,2013-01-15 00:36:00,
2013-01-14 19:37:00,68.2,65.5,30.18,North,0,0.0,0.0,91,0.00,,---,0.00,VWS V14.01,2013-01-15 00:37:00,
2013-01-14 19:38:00,70.7,63.9,30.18,NE,45,0.0,0.0,79,0.00,,---,0.00,VWS V14.01,2013-01-15 00:38:00,
2013-01-14 19:39:00,70.7,63.9,30.18,NE,45,0.0,0.0,79,0.00,,---,0.00,VWS V14.01,2013-01-15 00:39:00,
2013-01-14 19:40:00,70.7,64.2,30.18,ENE,68,0.0,0.0,80,0.00,,---,0.00,VWS V14.01,2013-01-15 00:40:00,
2013-01-14 19:41:00,68.0,65.3,30.18,North,0,0.0,0.0,91,0.00,,---,0.00,VWS V14.01,2013-01-15 00:41:00,
2013-01-14 19:42:00,70.5,64.4,30.18,ENE,68,0.0,0.0,81,0.00,,---,0.00,VWS V14.01,2013-01-15 00:42:00,
2013-01-14 19:43:00,70.5,64.4,30.18,ENE,68,0.0,0.0,81,0.00,,---,0.00,VWS V14.01,2013-01-15 00:43:00,
2013-01-14 19:44:00,70.5,64.4,30.18,ENE,68,0.0,0.0,81,0.00,,---,0.00,VWS V14.01,2013-01-15 00:44:00,
2013-01-14 19:45:00,70.3,64.2,30.18,ENE,68,0.0,0.0,81,0.00,,---,0.00,VWS V14.01,2013-01-15 00:45:00,
2013-01-14 19:46:00,68.0,65.6,30.18,ESE,112,0.0,0.0,92,0.00,,---,0.00,VWS V14.01,2013-01-15 00:46:00,
2013-01-14 19:47:00,70.3,64.6,30.18,ENE,68,0.0,0.0,82,0.00,,---,0.00,VWS V14.01,2013-01-15 00:47:00,
2013-01-14 19:48:00,70.2,64.4,30.18,ENE,68,0.0,0.0,82,0.00,,---,0.00,VWS V14.01,2013-01-15 00:48:00,
2013-01-14 19:49:00,70.2,64.4,30.18,NNE,22,0.0,0.0,82,0.00,,---,0.00,VWS V14.01,2013-01-15 00:49:00,
2013-01-14 19:50:00,70.2,64.4,30.18,ENE,68,0.0,0.0,82,0.00,,---,0.00,VWS V14.01,2013-01-15 00:50:00,
2013-01-14 19:51:00,68.0,65.6,30.18,ENE,68,0.0,0.0,92,0.00,,---,0.00,VWS V14.01,2013-01-15 00:51:00,
2013-01-14 19:52:00,70.0,64.6,30.18,East,90,0.0,0.0,83,0.00,,---,0.00,VWS V14.01,2013-01-15 00:52:00,
2013-01-14 19:53:00,70.0,64.6,30.18,ENE,68,0.0,0.0,83,0.00,,---,0.00,VWS V14.01,2013-01-15 00:53:00,
2013-01-14 19:54:00,69.8,64.8,30.18,ENE,68,0.0,0.0,84,0.00,,---,0.00,VWS V14.01,2013-01-15 00:54:00,
2013-01-14 19:55:00,69.8,64.8,30.18,ENE,68,0.0,0.0,84,0.00,,---,0.00,VWS V14.01,2013-01-15 00:55:00,
2013-01-14 19:56:00,68.0,65.9,30.18,North,0,0.0,0.0,93,0.00,,---,0.00,VWS V14.01,2013-01-15 00:56:00,
2013-01-14 19:57:00,69.6,64.9,30.18,ENE,68,0.0,0.0,85,0.00,,---,0.00,VWS V14.01,2013-01-15 00:57:00,
2013-01-14 19:58:00,69.6,64.9,30.18,ENE,68,0.0,0.0,85,0.00,,---,0.00,VWS V14.01,2013-01-15 00:58:00,
2013-01-14 19:59:00,69.6,64.9,30.18,ENE,68,0.0,0.0,85,0.00,,---,0.00,VWS V14.01,2013-01-15 00:59:00,
2013-01-14 20:00:00,69.6,64.9,30.18,ENE,68,0.0,0.0,85,0.00,,---,0.00,VWS V14.01,2013-01-15 01:00:00,
2013-01-14 20:01:00,68.0,65.9,30.18,North,0,0.0,0.0,93,0.00,,---,0.00,VWS V14.01,2013-01-15 01:01:00,
2013-01-14 20:02:00,69.6,65.2,30.18,ENE,68,0.0,0.0,86,0.00,,---,0.00,VWS V14.01,2013-01-15 01:02:00,
2013-01-14 20:03:00,69.4,65.1,30.18,ENE,68,0.0,0.0,86,0.00,,---,0.00,VWS V14.01,2013-01-15 01:03:00,
2013-01-14 20:04:00,69.4,65.1,30.18,NE,45,0.0,0.0,86,0.00,,---,0.00,VWS V14.01,2013-01-15 01:04:00,
2013-01-14 20:05:00,69.4,65.1,30.18,ENE,68,0.0,0.0,86,0.00,,---,0.00,VWS V14.01,2013-01-15 01:05:00,
2013-01-14 20:06:00,67.8,65.7,30.18,North,0,0.0,0.0,93,0.00,,---,0.00,VWS V14.01,2013-01-15 01:06:00,
2013-01-14 20:07:00,69.3,65.2,30.18,ENE,68,0.0,0.0,87,0.00,,---,0.00,VWS V14.01,2013-01-15 01:07:00,
2013-01-14 20:08:00,69.3,65.2,30.18,ENE,68,0.0,0.0,87,0.00,,---,0.00,VWS V14.01,2013-01-15 01:08:00,
2013-01-14 20:09:00,69.3,65.2,30.18,ENE,68,0.0,0.0,87,0.00,,---,0.00,VWS V14.01,2013-01-15 01:09:00,
2013-01-14 20:10:00,69.3,65.2,30.18,NE,45,0.0,0.0,87,0.00,,---,0.00,VWS V14.01,2013-01-15 01:10:00,
2013-01-14 20:11:00,67.6,65.6,30.18,SSE,158,0.0,0.0,93,0.00,,---,0.00,VWS V14.01,2013-01-15 01:11:00,
2013-01-14 20:12:00,69.3,65.6,30.18,NE,45,0.0,0.0,88,0.00,,---,0.00,VWS V14.01,2013-01-15 01:12:00,
2013-01-14 20:13:00,69.3,65.6,30.18,NNE,22,0.0,0.0,88,0.00,,---,0.00,VWS V14.01,2013-01-15 01:13:00,
2013-01-14 20:14:00,69.3,65.6,30.18,East,90,0.0,0.0,88,0.00,,---,0.00,VWS V14.01,2013-01-15 01:14:00,
2013-01-14 20:15:00,69.3,65.6,30.18,ENE,68,0.0,0.0,88,0.00,,---,0.00,VWS V14.01,2013-01-15 01:15:00,
2013-01-14 20:16:00,67.5,65.7,30.18,SSW,202,0.0,0.0,94,0.00,,---,0.00,VWS V14.01,2013-01-15 01:16:00,
2013-01-14 20:17:00,69.1,65.4,30.18,NE,45,0.0,0.0,88,0.00,,---,0.00,VWS V14.01,2013-01-15 01:17:00,
2013-01-14 20:18:00,69.1,65.4,30.18,NE,45,0.0,0.0,88,0.00,,---,0.00,VWS V14.01,2013-01-15 01:18:00,
2013-01-14 20:19:00,69.1,65.4,30.18,NE,45,0.0,0.0,88,0.00,,---,0.00,VWS V14.01,2013-01-15 01:19:00,
2013-01-14 20:20:00,69.1,65.4,30.18,ENE,68,0.0,0.0,88,0.00,,---,0.00,VWS V14.01,2013-01-15 01:20:00,
2013-01-14 20:21:00,67.3,65.5,30.18,SSW,202,0.0,0.0,94,0.00,,---,0.00,VWS V14.01,2013-01-15 01:21:00,
2013-01-14 20:22:00,68.9,65.5,30.18,ENE,68,0.0,0.0,89,0.00,,---,0.00,VWS V14.01,2013-01-15 01:22:00,
2013-01-14 20:23:00,68.9,65.5,30.18,ENE,68,0.0,0.0,89,0.00,,---,0.00,VWS V14.01,2013-01-15 01:23:00,
2013-01-14 20:24:00,68.9,65.5,30.18,ENE,68,0.0,0.0,89,0.00,,---,0.00,VWS V14.01,2013-01-15 01:24:00,
2013-01-14 20:25:00,68.9,65.5,30.18,ENE,68,0.0,0.0,89,0.00,,---,0.00,VWS V14.01,2013-01-15 01:25:00,
2013-01-14 20:26:00,67.1,65.3,30.18,SE,135,0.0,0.0,94,0.00,,---,0.00,VWS V14.01,2013-01-15 01:26:00,
2013-01-14 20:27:00,68.7,65.3,30.18,ENE,68,0.0,0.0,89,0.00,,---,0.00,VWS V14.01,2013-01-15 01:27:00,
2013-01-14 20:28:00,68.7,65.3,30.18,ENE,68,0.0,0.0,89,0.00,,---,0.00,VWS V14.01,2013-01-15 01:28:00,
2013-01-14 20:29:00,68.7,65.3,30.18,NNE,22,0.0,0.0,89,0.00,,---,0.00,VWS V14.01,2013-01-15 01:29:00,
2013-01-14 20:30:00,68.7,65.3,30.18,NNE,22,0.0,0.0,89,0.00,,---,0.00,VWS V14.01,2013-01-15 01:30:00,
2013-01-14 20:31:00,66.9,65.1,30.18,SE,135,0.0,0.0,94,0.00,,---,0.00,VWS V14.01,2013-01-15 01:31:00,
2013-01-14 20:32:00,68.7,65.3,30.18,NE,45,0.0,0.0,89,0.00,,---,0.00,VWS V14.01,2013-01-15 01:32:00,
2013-01-14 20:33:00,68.7,65.3,30.18,SE,135,0.0,0.0,89,0.00,,---,0.00,VWS V14.01,2013-01-15 01:33:00,
2013-01-14 20:34:00,68.7,65.7,30.18,SE,135,0.0,0.0,90,0.00,,---,0.00,VWS V14.01,2013-01-15 01:34:00,
2013-01-14 20:35:00,68.7,65.7,30.18,SE,135,0.0,0.0,90,0.00,,---,0.00,VWS V14.01,2013-01-15 01:35:00,
2013-01-14 20:36:00,66.9,65.1,30.18,SE,135,0.0,0.0,94,0.00,,---,0.00,VWS V14.01,2013-01-15 01:36:00,
2013-01-14 20:37:00,68.5,65.5,30.18,SE,135,0.0,0.0,90,0.00,,---,0.00,VWS V14.01,2013-01-15 01:37:00,
2013-01-14 20:38:00,68.5,65.5,30.18,SE,135,0.0,0.0,90,0.00,,---,0.00,VWS V14.01,2013-01-15 01:38:00,
2013-01-14 20:39:00,68.5,65.5,30.18,SE,135,0.0,0.0,90,0.00,,---,0.00,VWS V14.01,2013-01-15 01:39:00,
2013-01-14 20:40:00,68.5,65.5,30.18,SE,135,0.0,0.0,90,0.00,,---,0.00,VWS V14.01,2013-01-15 01:40:00,
2013-01-14 20:41:00,66.7,65.0,30.18,SE,135,0.0,0.0,94,0.00,,---,0.00,VWS V14.01,2013-01-15 01:41:00,
2013-01-14 20:42:00,68.5,65.5,30.18,SE,135,0.0,0.0,90,0.00,,---,0.00,VWS V14.01,2013-01-15 01:42:00,
2013-01-14 20:43:00,68.5,65.5,30.18,SSE,158,0.0,0.0,90,0.00,,---,0.00,VWS V14.01,2013-01-15 01:43:00,
2013-01-14 20:44:00,68.5,65.5,30.18,WSW,248,0.0,0.0,90,0.00,,---,0.00,VWS V14.01,2013-01-15 01:44:00,
2013-01-14 20:45:00,68.5,65.5,30.18,WSW,248,0.0,0.0,90,0.00,,---,0.00,VWS V14.01,2013-01-15 01:45:00,
2013-01-14 20:46:00,66.7,65.3,30.18,SE,135,0.0,0.0,95,0.00,,---,0.00,VWS V14.01,2013-01-15 01:46:00,
2013-01-14 20:47:00,68.4,65.3,30.18,SW,225,0.0,0.0,90,0.00,,---,0.00,VWS V14.01,2013-01-15 01:47:00,
2013-01-14 20:48:00,68.4,65.3,30.18,SW,225,0.0,0.0,90,0.00,,---,0.00,VWS V14.01,2013-01-15 01:48:00,
2013-01-14 20:49:00,68.4,65.3,30.18,SW,225,0.0,0.0,90,0.00,,---,0.00,VWS V14.01,2013-01-15 01:49:00,
2013-01-14 20:50:00,68.2,65.1,30.18,SSW,202,0.0,0.0,90,0.00,,---,0.00,VWS V14.01,2013-01-15 01:50:00,
2013-01-14 20:51:00,66.7,65.3,30.15,SE,135,0.0,0.0,95,0.00,,---,0.00,VWS V14.01,2013-01-15 01:51:00,
2013-01-14 20:52:00,68.4,65.3,30.18,SSE,158,0.0,0.0,90,0.00,,---,0.00,VWS V14.01,2013-01-15 01:52:00,
2013-01-14 20:53:00,68.4,65.6,30.18,SSE,158,0.0,0.0,91,0.00,,---,0.00,VWS V14.01,2013-01-15 01:53:00,
2013-01-14 20:54:00,68.4,65.6,30.18,SSE,158,0.0,0.0,91,0.00,,---,0.00,VWS V14.01,2013-01-15 01:54:00,
2013-01-14 20:55:00,68.4,65.6,30.18,SSE,158,0.0,0.0,91,0.00,,---,0.00,VWS V14.01,2013-01-15 01:55:00,
2013-01-14 20:56:00,66.6,65.1,30.15,SE,135,0.0,0.0,95,0.00,,---,0.00,VWS V14.01,2013-01-15 01:56:00,
2013-01-14 20:57:00,68.2,65.5,30.18,SSE,158,0.0,0.0,91,0.00,,---,0.00,VWS V14.01,2013-01-15 01:57:00,
2013-01-14 20:58:00,68.2,65.5,30.18,SSE,158,0.0,0.0,91,0.00,,---,0.00,VWS V14.01,2013-01-15 01:58:00,
2013-01-14 20:59:00,68.2,65.5,30.18,SSE,158,0.0,0.0,91,0.00,,---,0.00,VWS V14.01,2013-01-15 01:59:00,
2013-01-14 21:00:00,68.2,65.5,30.18,SSE,158,0.0,0.0,91,0.00,,---,0.00,VWS V14.01,2013-01-15 02:00:00,
2013-01-14 21:01:00,66.4,64.9,30.15,SE,135,0.0,0.0,95,0.00,,---,0.00,VWS V14.01,2013-01-15 02:01:00,
2013-01-14 21:02:00,68.2,65.5,30.18,North,0,0.0,0.0,91,0.00,,---,0.00,VWS V14.01,2013-01-15 02:02:00,
2013-01-14 21:03:00,68.2,65.5,30.18,North,0,0.0,0.0,91,0.00,,---,0.00,VWS V14.01,2013-01-15 02:03:00,
2013-01-14 21:04:00,68.0,65.3,30.18,North,0,0.0,0.0,91,0.00,,---,0.00,VWS V14.01,2013-01-15 02:04:00,
2013-01-14 21:05:00,68.0,65.3,30.18,North,0,0.0,0.0,91,0.00,,---,0.00,VWS V14.01,2013-01-15 02:05:00,
2013-01-14 21:06:00,66.2,64.7,30.18,SE,135,0.0,0.0,95,0.00,,---,0.00,VWS V14.01,2013-01-15 02:06:00,
2013-01-14 21:07:00,68.0,65.3,30.18,North,0,0.0,0.0,91,0.00,,---,0.00,VWS V14.01,2013-01-15 02:07:00,
2013-01-14 21:08:00,68.0,65.3,30.18,NE,45,0.0,0.0,91,0.00,,---,0.00,VWS V14.01,2013-01-15 02:08:00,
2013-01-14 21:09:00,68.0,65.6,30.18,NE,45,0.0,0.0,92,0.00,,---,0.00,VWS V14.01,2013-01-15 02:09:00,
2013-01-14 21:10:00,68.0,65.6,30.18,NE,45,0.0,0.0,92,0.00,,---,0.00,VWS V14.01,2013-01-15 02:10:00,
2013-01-14 21:11:00,66.0,64.8,30.18,SE,135,0.0,0.0,96,0.00,,---,0.00,VWS V14.01,2013-01-15 02:11:00,
2013-01-14 21:12:00,68.0,65.6,30.18,ESE,112,0.0,0.0,92,0.00,,---,0.00,VWS V14.01,2013-01-15 02:12:00,
2013-01-14 21:13:00,68.0,65.6,30.18,East,90,0.0,0.0,92,0.00,,---,0.00,VWS V14.01,2013-01-15 02:13:00,
2013-01-14 21:14:00,68.0,65.6,30.18,ESE,112,0.0,0.0,92,0.00,,---,0.00,VWS V14.01,2013-01-15 02:14:00,
2013-01-14 21:15:00,68.0,65.6,30.18,ENE,68,0.0,0.0,92,0.00,,---,0.00,VWS V14.01,2013-01-15 02:15:00,
2013-01-14 21:16:00,66.0,64.8,30.18,SE,135,0.0,0.0,96,0.00,,---,0.00,VWS V14.01,2013-01-15 02:16:00,
2013-01-14 21:17:00,68.0,65.6,30.18,ENE,68,0.0,0.0,92,0.00,,---,0.00,VWS V14.01,2013-01-15 02:17:00,
2013-01-14 21:18:00,68.0,65.6,30.18,ESE,112,0.0,0.0,92,0.00,,---,0.00,VWS V14.01,2013-01-15 02:18:00,
2013-01-14 21:19:00,68.0,65.6,30.18,North,0,0.0,0.0,92,0.00,,---,0.00,VWS V14.01,2013-01-15 02:19:00,
2013-01-14 21:20:00,68.2,66.1,30.18,ESE,112,0.0,0.0,93,0.00,,---,0.00,VWS V14.01,2013-01-15 02:20:00,
2013-01-14 21:21:00,65.8,64.7,30.18,SE,135,0.0,0.0,96,0.00,,---,0.00,VWS V14.01,2013-01-15 02:21:00,
2013-01-14 21:22:00,68.0,65.9,30.18,North,0,0.0,0.0,93,0.00,,---,0.00,VWS V14.01,2013-01-15 02:22:00,
2013-01-14 21:23:00,68.0,65.9,30.18,North,0,0.0,0.0,93,0.00,,---,0.00,VWS V14.01,2013-01-15 02:23:00,
2013-01-14 21:24:00,68.0,65.9,30.18,North,0,0.0,0.0,93,0.00,,---,0.00,VWS V14.01,2013-01-15 02:24:00,
2013-01-14 21:25:00,68.0,65.9,30.18,North,0,0.0,0.0,93,0.00,,---,0.00,VWS V14.01,2013-01-15 02:25:00,
2013-01-14 21:26:00,65.7,64.5,30.18,SE,135,0.0,0.0,96,0.00,,---,0.00,VWS V14.01,2013-01-15 02:26:00,
2013-01-14 21:27:00,68.0,65.9,30.18,North,0,0.0,0.0,93,0.00,,---,0.00,VWS V14.01,2013-01-15 02:27:00,
2013-01-14 21:28:00,67.8,65.7,30.18,North,0,0.0,0.0,93,0.00,,---,0.00,VWS V14.01,2013-01-15 02:28:00,
2013-01-14 21:29:00,67.8,65.7,30.18,North,0,0.0,0.0,93,0.00,,---,0.00,VWS V14.01,2013-01-15 02:29:00,
2013-01-14 21:30:00,67.8,65.7,30.18,North,0,0.0,0.0,93,0.00,,---,0.00,VWS V14.01,2013-01-15 02:30:00,
2013-01-14 21:31:00,65.7,64.8,30.18,SE,135,0.0,0.0,97,0.00,,---,0.00,VWS V14.01,2013-01-15 02:31:00,
2013-01-14 21:32:00,67.8,65.7,30.18,North,0,0.0,0.0,93,0.00,,---,0.00,VWS V14.01,2013-01-15 02:32:00,
2013-01-14 21:33:00,67.6,65.6,30.18,North,0,0.0,0.0,93,0.00,,---,0.00,VWS V14.01,2013-01-15 02:33:00,
2013-01-14 21:34:00,67.6,65.6,30.18,North,0,0.0,0.0,93,0.00,,---,0.00,VWS V14.01,2013-01-15 02:34:00,
2013-01-14 21:35:00,67.6,65.6,30.18,SSE,158,0.0,0.0,93,0.00,,---,0.00,VWS V14.01,2013-01-15 02:35:00,
2013-01-14 21:36:00,65.3,64.4,30.18,SE,135,0.0,0.0,97,0.00,,---,0.00,VWS V14.01,2013-01-15 02:36:00,
2013-01-14 21:37:00,67.6,65.6,30.18,SSE,158,0.0,0.0,93,0.00,,---,0.00,VWS V14.01,2013-01-15 02:37:00,
2013-01-14 21:38:00,67.6,65.6,30.18,ESE,112,0.0,0.0,93,0.00,,---,0.00,VWS V14.01,2013-01-15 02:38:00,
2013-01-14 21:39:00,67.5,65.4,30.18,ENE,68,0.0,0.0,93,0.00,,---,0.00,VWS V14.01,2013-01-15 02:39:00,
2013-01-14 21:40:00,67.5,65.4,30.18,ENE,68,0.0,0.0,93,0.00,,---,0.00,VWS V14.01,2013-01-15 02:40:00,
2013-01-14 21:41:00,65.1,64.2,30.18,SE,135,0.0,0.0,97,0.00,,---,0.00,VWS V14.01,2013-01-15 02:41:00,
2013-01-14 21:42:00,67.5,65.7,30.18,SSW,202,0.0,0.0,94,0.00,,---,0.00,VWS V14.01,2013-01-15 02:42:00,
2013-01-14 21:43:00,67.5,65.7,30.18,SSW,202,0.0,0.0,94,0.00,,---,0.00,VWS V14.01,2013-01-15 02:43:00,
2013-01-14 21:44:00,67.5,65.7,30.18,SSW,202,0.0,0.0,94,0.00,,---,0.00,VWS V14.01,2013-01-15 02:44:00,
2013-01-14 21:45:00,67.3,65.5,30.18,SSW,202,0.0,0.0,94,0.00,,---,0.00,VWS V14.01,2013-01-15 02:45:00,
2013-01-14 21:46:00,64.9,64.1,30.18,SE,135,0.0,0.0,97,0.00,,---,0.00,VWS V14.01,2013-01-15 02:46:00,
2013-01-14 21:47:00,67.3,65.5,30.18,SSW,202,0.0,0.0,94,0.00,,---,0.00,VWS V14.01,2013-01-15 02:47:00,
2013-01-14 21:48:00,67.1,65.3,30.18,SSW,202,0.0,0.0,94,0.00,,---,0.00,VWS V14.01,2013-01-15 02:48:00,
2013-01-14 21:49:00,67.1,65.3,30.18,SSW,202,0.0,0.0,94,0.00,,---,0.00,VWS V14.01,2013-01-15 02:49:00,
2013-01-14 21:50:00,67.1,65.3,30.18,SSW,202,0.0,0.0,94,0.00,,---,0.00,VWS V14.01,2013-01-15 02:50:00,
2013-01-14 21:51:00,64.8,63.9,30.18,SE,135,0.0,0.0,97,0.00,,---,0.00,VWS V14.01,2013-01-15 02:51:00,
2013-01-14 21:52:00,67.1,65.3,30.18,SE,135,0.0,0.0,94,0.00,,---,0.00,VWS V14.01,2013-01-15 02:52:00,
2013-01-14 21:53:00,67.1,65.3,30.18,SE,135,0.0,0.0,94,0.00,,---,0.00,VWS V14.01,2013-01-15 02:53:00,
2013-01-14 21:54:00,67.1,65.3,30.18,SE,135,0.0,0.0,94,0.00,,---,0.00,VWS V14.01,2013-01-15 02:54:00,
2013-01-14 21:55:00,67.1,65.3,30.18,SE,135,0.0,0.0,94,0.00,,---,0.00,VWS V14.01,2013-01-15 02:55:00,
2013-01-14 21:56:00,64.8,63.9,30.18,SE,135,0.0,0.0,97,0.00,,---,0.00,VWS V14.01,2013-01-15 02:56:00,
2013-01-14 21:57:00,66.9,65.1,30.18,SE,135,0.0,0.0,94,0.00,,---,0.00,VWS V14.01,2013-01-15 02:57:00,
2013-01-14 21:58:00,66.9,65.1,30.18,SE,135,0.0,0.0,94,0.00,,---,0.00,VWS V14.01,2013-01-15 02:58:00,
2013-01-14 21:59:00,66.9,65.1,30.18,SE,135,0.0,0.0,94,0.00,,---,0.00,VWS V14.01,2013-01-15 02:59:00,
2013-01-14 22:00:00,66.9,65.1,30.18,SE,135,0.0,0.0,94,0.00,,---,0.00,VWS V14.01,2013-01-15 03:00:00,
2013-01-14 22:01:00,64.6,63.7,30.18,SE,135,0.0,0.0,97,0.00,,---,0.00,VWS V14.01,2013-01-15 03:01:00,
2013-01-14 22:02:00,66.9,65.1,30.18,SE,135,0.0,0.0,94,0.00,,---,0.00,VWS V14.01,2013-01-15 03:02:00,
2013-01-14 22:03:00,66.9,65.1,30.18,SE,135,0.0,0.0,94,0.00,,---,0.00,VWS V14.01,2013-01-15 03:03:00,
2013-01-14 22:04:00,66.9,65.1,30.18,SE,135,0.0,0.0,94,0.00,,---,0.00,VWS V14.01,2013-01-15 03:04:00,
2013-01-14 22:05:00,66.7,65.0,30.18,SE,135,0.0,0.0,94,0.00,,---,0.00,VWS V14.01,2013-01-15 03:05:00,
2013-01-14 22:06:00,64.4,63.5,30.18,SE,135,0.0,0.0,97,0.00,,---,0.00,VWS V14.01,2013-01-15 03:06:00,
2013-01-14 22:07:00,66.7,65.0,30.18,SE,135,0.0,0.0,94,0.00,,---,0.00,VWS V14.01,2013-01-15 03:07:00,
2013-01-14 22:08:00,66.7,65.0,30.18,SE,135,0.0,0.0,94,0.00,,---,0.00,VWS V14.01,2013-01-15 03:08:00,
2013-01-14 22:09:00,66.7,65.0,30.18,SE,135,0.0,0.0,94,0.00,,---,0.00,VWS V14.01,2013-01-15 03:09:00,
2013-01-14 22:10:00,66.7,65.3,30.18,SE,135,0.0,0.0,95,0.00,,---,0.00,VWS V14.01,2013-01-15 03:10:00,
2013-01-14 22:11:00,64.0,63.2,30.18,SE,135,0.0,0.0,97,0.00,,---,0.00,VWS V14.01,2013-01-15 03:11:00,
2013-01-14 22:12:00,66.7,65.3,30.18,SE,135,0.0,0.0,95,0.00,,---,0.00,VWS V14.01,2013-01-15 03:12:00,
2013-01-14 22:13:00,66.7,65.3,30.18,SE,135,0.0,0.0,95,0.00,,---,0.00,VWS V14.01,2013-01-15 03:13:00,
2013-01-14 22:14:00,66.7,65.3,30.18,SE,135,0.0,0.0,95,0.00,,---,0.00,VWS V14.01,2013-01-15 03:14:00,
2013-01-14 22:15:00,66.7,65.3,30.18,SE,135,0.0,0.0,95,0.00,,---,0.00,VWS V14.01,2013-01-15 03:15:00,
2013-01-14 22:16:00,63.9,63.3,30.18,SE,135,0.0,0.0,98,0.00,,---,0.00,VWS V14.01,2013-01-15 03:16:00,
2013-01-14 22:17:00,66.7,65.3,30.15,SE,135,0.0,0.0,95,0.00,,---,0.00,VWS V14.01,2013-01-15 03:17:00,
2013-01-14 22:18:00,66.7,65.3,30.15,SE,135,0.0,0.0,95,0.00,,---,0.00,VWS V14.01,2013-01-15 03:18:00,
2013-01-14 22:19:00,66.6,65.1,30.15,SE,135,0.0,0.0,95,0.00,,---,0.00,VWS V14.01,2013-01-15 03:19:00,
2013-01-14 22:20:00,66.6,65.1,30.15,SE,135,0.0,0.0,95,0.00,,---,0.00,VWS V14.01,2013-01-15 03:20:00,
2013-01-14 22:21:00,63.7,63.1,30.18,SE,135,0.0,0.0,98,0.00,,---,0.00,VWS V14.01,2013-01-15 03:21:00,
2013-01-14 22:22:00,66.6,65.1,30.15,SE,135,0.0,0.0,95,0.00,,---,0.00,VWS V14.01,2013-01-15 03:22:00,
2013-01-14 22:23:00,66.6,65.1,30.15,SE,135,0.0,0.0,95,0.00,,---,0.00,VWS V14.01,2013-01-15 03:23:00,
2013-01-14 22:24:00,66.6,65.1,30.15,SE,135,0.0,0.0,95,0.00,,---,0.00,VWS V14.01,2013-01-15 03:24:00,
2013-01-14 22:25:00,66.6,65.1,30.15,SE,135,0.0,0.0,95,0.00,,---,0.00,VWS V14.01,2013-01-15 03:25:00,
2013-01-14 22:26:00,63.5,62.9,30.18,SE,135,0.0,0.0,98,0.00,,---,0.00,VWS V14.01,2013-01-15 03:26:00,
2013-01-14 22:27:00,66.4,64.9,30.15,SE,135,0.0,0.0,95,0.00,,---,0.00,VWS V14.01,2013-01-15 03:27:00,
2013-01-14 22:28:00,66.2,64.7,30.15,SE,135,0.0,0.0,95,0.00,,---,0.00,VWS V14.01,2013-01-15 03:28:00,
2013-01-14 22:29:00,66.2,64.7,30.15,SE,135,0.0,0.0,95,0.00,,---,0.00,VWS V14.01,2013-01-15 03:29:00,
2013-01-14 22:30:00,66.2,64.7,30.15,SE,135,0.0,0.0,95,0.00,,---,0.00,VWS V14.01,2013-01-15 03:30:00,
2013-01-14 22:31:00,63.7,63.1,30.18,SE,135,0.0,0.0,98,0.00,,---,0.00,VWS V14.01,2013-01-15 03:31:00,
2013-01-14 22:32:00,66.2,64.7,30.18,SE,135,0.0,0.0,95,0.00,,---,0.00,VWS V14.01,2013-01-15 03:32:00,
2013-01-14 22:33:00,66.2,64.7,30.18,SE,135,0.0,0.0,95,0.00,,---,0.00,VWS V14.01,2013-01-15 03:33:00,
2013-01-14 22:34:00,66.2,64.7,30.18,SE,135,0.0,0.0,95,0.00,,---,0.00,VWS V14.01,2013-01-15 03:34:00,
2013-01-14 22:35:00,66.2,64.7,30.18,SE,135,0.0,0.0,95,0.00,,---,0.00,VWS V14.01,2013-01-15 03:35:00,
2013-01-14 22:36:00,63.5,62.9,30.18,SE,135,0.0,0.0,98,0.00,,---,0.00,VWS V14.01,2013-01-15 03:36:00,
2013-01-14 22:37:00,66.0,64.8,30.18,SE,135,0.0,0.0,96,0.00,,---,0.00,VWS V14.01,2013-01-15 03:37:00,
2013-01-14 22:38:00,66.0,64.8,30.18,SE,135,0.0,0.0,96,0.00,,---,0.00,VWS V14.01,2013-01-15 03:38:00,
2013-01-14 22:39:00,66.0,64.8,30.18,SE,135,0.0,0.0,96,0.00,,---,0.00,VWS V14.01,2013-01-15 03:39:00,
2013-01-14 22:40:00,66.0,64.8,30.18,SE,135,0.0,0.0,96,0.00,,---,0.00,VWS V14.01,2013-01-15 03:40:00,
2013-01-14 22:41:00,63.3,62.8,30.18,SE,135,0.0,0.0,98,0.00,,---,0.00,VWS V14.01,2013-01-15 03:41:00,
2013-01-14 22:42:00,66.0,64.8,30.18,SE,135,0.0,0.0,96,0.00,,---,0.00,VWS V14.01,2013-01-15 03:42:00,
2013-01-14 22:43:00,66.0,64.8,30.18,SE,135,0.0,0.0,96,0.00,,---,0.00,VWS V14.01,2013-01-15 03:43:00,
2013-01-14 22:44:00,66.0,64.8,30.18,SE,135,0.0,0.0,96,0.00,,---,0.00,VWS V14.01,2013-01-15 03:44:00,
2013-01-14 22:45:00,66.0,64.8,30.18,SE,135,0.0,0.0,96,0.00,,---,0.00,VWS V14.01,2013-01-15 03:45:00,
2013-01-14 22:46:00,63.1,62.6,30.18,SE,135,0.0,0.0,98,0.00,,---,0.00,VWS V14.01,2013-01-15 03:46:00,
2013-01-14 22:47:00,65.8,64.7,30.18,SE,135,0.0,0.0,96,0.00,,---,0.00,VWS V14.01,2013-01-15 03:47:00,
2013-01-14 22:48:00,65.8,64.7,30.18,SE,135,0.0,0.0,96,0.00,,---,0.00,VWS V14.01,2013-01-15 03:48:00,
2013-01-14 22:49:00,65.8,64.7,30.18,SE,135,0.0,0.0,96,0.00,,---,0.00,VWS V14.01,2013-01-15 03:49:00,
2013-01-14 22:50:00,65.7,64.5,30.18,SE,135,0.0,0.0,96,0.00,,---,0.00,VWS V14.01,2013-01-15 03:50:00,
2013-01-14 22:51:00,63.1,62.6,30.18,SE,135,0.0,0.0,98,0.00,,---,0.00,VWS V14.01,2013-01-15 03:51:00,
2013-01-14 22:52:00,65.7,64.5,30.18,SE,135,0.0,0.0,96,0.00,,---,0.00,VWS V14.01,2013-01-15 03:52:00,
2013-01-14 22:53:00,65.7,64.5,30.18,SE,135,0.0,0.0,96,0.00,,---,0.00,VWS V14.01,2013-01-15 03:53:00,
2013-01-14 22:54:00,65.7,64.5,30.18,SE,135,0.0,0.0,96,0.00,,---,0.00,VWS V14.01,2013-01-15 03:54:00,
2013-01-14 22:55:00,65.7,64.8,30.18,SE,135,0.0,0.0,97,0.00,,---,0.00,VWS V14.01,2013-01-15 03:55:00,
2013-01-14 22:56:00,63.3,62.8,30.18,SE,135,0.0,0.0,98,0.00,,---,0.00,VWS V14.01,2013-01-15 03:56:00,
2013-01-14 22:57:00,65.5,64.6,30.18,SE,135,0.0,0.0,97,0.00,,---,0.00,VWS V14.01,2013-01-15 03:57:00,
2013-01-14 22:58:00,65.5,64.6,30.18,SE,135,0.0,0.0,97,0.00,,---,0.00,VWS V14.01,2013-01-15 03:58:00,
2013-01-14 22:59:00,65.5,64.6,30.18,SE,135,0.0,0.0,97,0.00,,---,0.00,VWS V14.01,2013-01-15 03:59:00,
2013-01-14 23:00:00,65.5,64.6,30.18,SE,135,0.0,0.0,97,0.00,,---,0.00,VWS V14.01,2013-01-15 04:00:00,
2013-01-14 23:01:00,63.1,62.6,30.18,SE,135,0.0,0.0,98,0.00,,---,0.00,VWS V14.01,2013-01-15 04:01:00,
2013-01-14 23:02:00,65.3,64.4,30.18,SE,135,0.0,0.0,97,0.00,,---,0.00,VWS V14.01,2013-01-15 04:02:00,
2013-01-14 23:03:00,65.3,64.4,30.18,SE,135,0.0,0.0,97,0.00,,---,0.00,VWS V14.01,2013-01-15 04:03:00,
2013-01-14 23:04:00,65.3,64.4,30.18,SE,135,0.0,0.0,97,0.00,,---,0.00,VWS V14.01,2013-01-15 04:04:00,
2013-01-14 23:05:00,65.3,64.4,30.18,SE,135,0.0,0.0,97,0.00,,---,0.00,VWS V14.01,2013-01-15 04:05:00,
2013-01-14 23:06:00,63.3,62.8,30.18,SE,135,0.0,0.0,98,0.00,,---,0.00,VWS V14.01,2013-01-15 04:06:00,
2013-01-14 23:07:00,65.1,64.2,30.18,SE,135,0.0,0.0,97,0.00,,---,0.00,VWS V14.01,2013-01-15 04:07:00,
2013-01-14 23:08:00,65.1,64.2,30.18,SE,135,0.0,0.0,97,0.00,,---,0.00,VWS V14.01,2013-01-15 04:08:00,
2013-01-14 23:09:00,65.1,64.2,30.18,SE,135,0.0,0.0,97,0.00,,---,0.00,VWS V14.01,2013-01-15 04:09:00,
2013-01-14 23:10:00,65.1,64.2,30.18,SE,135,0.0,0.0,97,0.00,,---,0.00,VWS V14.01,2013-01-15 04:10:00,
2013-01-14 23:11:00,63.0,62.4,30.18,SE,135,0.0,0.0,98,0.00,,---,0.00,VWS V14.01,2013-01-15 04:11:00,
2013-01-14 23:12:00,64.9,64.1,30.18,SE,135,0.0,0.0,97,0.00,,---,0.00,VWS V14.01,2013-01-15 04:12:00,
2013-01-14 23:13:00,64.9,64.1,30.18,SE,135,0.0,0.0,97,0.00,,---,0.00,VWS V14.01,2013-01-15 04:13:00,
2013-01-14 23:14:00,64.9,64.1,30.18,SE,135,0.0,0.0,97,0.00,,---,0.00,VWS V14.01,2013-01-15 04:14:00,
2013-01-14 23:15:00,64.9,64.1,30.18,SE,135,0.0,0.0,97,0.00,,---,0.00,VWS V14.01,2013-01-15 04:15:00,
2013-01-14 23:16:00,62.8,62.2,30.18,SE,135,0.0,0.0,98,0.00,,---,0.00,VWS V14.01,2013-01-15 04:16:00,
2013-01-14 23:17:00,64.8,63.9,30.18,SE,135,0.0,0.0,97,0.00,,---,0.00,VWS V14.01,2013-01-15 04:17:00,
2013-01-14 23:18:00,64.8,63.9,30.18,SE,135,0.0,0.0,97,0.00,,---,0.00,VWS V14.01,2013-01-15 04:18:00,
2013-01-14 23:19:00,64.9,64.1,30.18,SE,135,0.0,0.0,97,0.00,,---,0.00,VWS V14.01,2013-01-15 04:19:00,
2013-01-14 23:20:00,64.9,64.1,30.18,SE,135,0.0,0.0,97,0.00,,---,0.00,VWS V14.01,2013-01-15 04:20:00,
2013-01-14 23:21:00,62.6,62.0,30.18,SE,135,0.0,0.0,98,0.00,,---,0.00,VWS V14.01,2013-01-15 04:21:00,
2013-01-14 23:22:00,64.8,63.9,30.18,SE,135,0.0,0.0,97,0.00,,---,0.00,VWS V14.01,2013-01-15 04:22:00,
2013-01-14 23:23:00,64.8,63.9,30.18,SE,135,0.0,0.0,97,0.00,,---,0.00,VWS V14.01,2013-01-15 04:23:00,
2013-01-14 23:24:00,64.8,63.9,30.18,SE,135,0.0,0.0,97,0.00,,---,0.00,VWS V14.01,2013-01-15 04:24:00,
2013-01-14 23:25:00,64.8,63.9,30.18,SE,135,0.0,0.0,97,0.00,,---,0.00,VWS V14.01,2013-01-15 04:25:00,
2013-01-14 23:26:00,62.6,62.0,30.18,SE,135,0.0,0.0,98,0.00,,---,0.00,VWS V14.01,2013-01-15 04:26:00,
2013-01-14 23:27:00,64.6,63.7,30.18,SE,135,0.0,0.0,97,0.00,,---,0.00,VWS V14.01,2013-01-15 04:27:00,
2013-01-14 23:28:00,64.6,63.7,30.18,SE,135,0.0,0.0,97,0.00,,---,0.00,VWS V14.01,2013-01-15 04:28:00,
2013-01-14 23:29:00,64.4,63.5,30.18,SE,135,0.0,0.0,97,0.00,,---,0.00,VWS V14.01,2013-01-15 04:29:00,
2013-01-14 23:30:00,64.4,63.5,30.18,SE,135,0.0,0.0,97,0.00,,---,0.00,VWS V14.01,2013-01-15 04:30:00,
2013-01-14 23:31:00,62.4,61.8,30.18,SE,135,0.0,0.0,98,0.00,,---,0.00,VWS V14.01,2013-01-15 04:31:00,
2013-01-14 23:32:00,64.4,63.5,30.18,SE,135,0.0,0.0,97,0.00,,---,0.00,VWS V14.01,2013-01-15 04:32:00,
2013-01-14 23:33:00,64.2,63.3,30.18,SE,135,0.0,0.0,97,0.00,,---,0.00,VWS V14.01,2013-01-15 04:33:00,
2013-01-14 23:34:00,64.2,63.3,30.18,SE,135,0.0,0.0,97,0.00,,---,0.00,VWS V14.01,2013-01-15 04:34:00,
2013-01-14 23:35:00,64.0,63.2,30.18,SE,135,0.0,0.0,97,0.00,,---,0.00,VWS V14.01,2013-01-15 04:35:00,
2013-01-14 23:36:00,62.1,61.5,30.15,SE,135,0.0,0.0,98,0.00,,---,0.00,VWS V14.01,2013-01-15 04:36:00,
2013-01-14 23:37:00,64.0,63.2,30.18,SE,135,0.0,0.0,97,0.00,,---,0.00,VWS V14.01,2013-01-15 04:37:00,
2013-01-14 23:38:00,64.0,63.2,30.18,SE,135,0.0,0.0,97,0.00,,---,0.00,VWS V14.01,2013-01-15 04:38:00,
2013-01-14 23:39:00,63.9,63.0,30.18,SE,135,0.0,0.0,97,0.00,,---,0.00,VWS V14.01,2013-01-15 04:39:00,
2013-01-14 23:40:00,63.9,63.3,30.18,SE,135,0.0,0.0,98,0.00,,---,0.00,VWS V14.01,2013-01-15 04:40:00,
2013-01-14 23:41:00,61.9,61.3,30.15,SE,135,0.0,0.0,98,0.00,,---,0.00,VWS V14.01,2013-01-15 04:41:00,
2013-01-14 23:42:00,63.9,63.3,30.18,SE,135,0.0,0.0,98,0.00,,---,0.00,VWS V14.01,2013-01-15 04:42:00,
2013-01-14 23:43:00,63.7,63.1,30.18,SE,135,0.0,0.0,98,0.00,,---,0.00,VWS V14.01,2013-01-15 04:43:00,
2013-01-14 23:44:00,63.7,63.1,30.18,SE,135,0.0,0.0,98,0.00,,---,0.00,VWS V14.01,2013-01-15 04:44:00,
2013-01-14 23:45:00,63.7,63.1,30.18,SE,135,0.0,0.0,98,0.00,,---,0.00,VWS V14.01,2013-01-15 04:45:00,
2013-01-14 23:46:00,61.9,61.3,30.15,SE,135,0.0,0.0,98,0.00,,---,0.00,VWS V14.01,2013-01-15 04:46:00,
2013-01-14 23:47:00,63.7,63.1,30.18,SE,135,0.0,0.0,98,0.00,,---,0.00,VWS V14.01,2013-01-15 04:47:00,
2013-01-14 23:48:00,63.7,63.1,30.18,SE,135,0.0,0.0,98,0.00,,---,0.00,VWS V14.01,2013-01-15 04:48:00,
2013-01-14 23:49:00,63.7,63.1,30.18,SE,135,0.0,0.0,98,0.00,,---,0.00,VWS V14.01,2013-01-15 04:49:00,
2013-01-14 23:50:00,63.5,62.9,30.18,SE,135,0.0,0.0,98,0.00,,---,0.00,VWS V14.01,2013-01-15 04:50:00,
2013-01-14 23:51:00,61.7,61.1,30.18,SE,135,0.0,0.0,98,0.00,,---,0.00,VWS V14.01,2013-01-15 04:51:00,
2013-01-14 23:52:00,63.5,62.9,30.18,SE,135,0.0,0.0,98,0.00,,---,0.00,VWS V14.01,2013-01-15 04:52:00,
2013-01-14 23:53:00,63.5,62.9,30.18,SE,135,0.0,0.0,98,0.00,,---,0.00,VWS V14.01,2013-01-15 04:53:00,
2013-01-14 23:54:00,63.7,63.1,30.18,SE,135,0.0,0.0,98,0.00,,---,0.00,VWS V14.01,2013-01-15 04:54:00,
2013-01-14 23:55:00,63.7,63.1,30.18,SE,135,0.0,0.0,98,0.00,,---,0.00,VWS V14.01,2013-01-15 04:55:00,
2013-01-14 23:56:00,61.7,61.1,30.18,SE,135,0.0,0.0,98,0.00,,---,0.00,VWS V14.01,2013-01-15 04:56:00,
2013-01-14 23:57:00,63.7,63.1,30.18,SE,135,0.0,0.0,98,0.00,,---,0.00,VWS V14.01,2013-01-15 04:57:00,
2013-01-14 23:58:00,63.5,62.9,30.18,SE,135,0.0,0.0,98,0.00,,---,0.00,VWS V14.01,2013-01-15 04:58:00,
2013-01-14 23:59:00,63.5,62.9,30.18,SE,135,0.0,0.0,98,0.00,,---,0.00,VWS V14.01,2013-01-15 04:59:00,